[[{"header":{"parameterUnit":"m.s-1","parameterCategory":1,"la1":31.0,"la2":29.5877,"lo1":-88.7671,"lo2":-86.6584,"dx":0.0162,"dy":0.0185,"nx":115,"ny":88,"refTime":"2022-11-17T06:00:00:Z","depth":0,"parameterNumber":2,"parameterNumberName":"U-component_of_WINDS"},"data":[0.0,0.0,0.0,0.0,0.0,0.0,0.0,0.0,0.0,0.0,0.0,0.0,0.0,0.0,0.0,0.0,0.0,0.0,0.0,0.0,0.0,0.0,0.0,0.0,0.0,0.0,0.0,0.0,0.0,0.0,0.0,0.0,0.0,0.0,0.0,0.0,0.0,0.0,0.0,0.0,0.0,0.0,0.0,0.0,0.0,0.0,0.0,0.0,0.0,0.0,0.0,0.0,0.0,0.0,0.0,0.0,0.0,0.0,0.0,0.0,0.0,0.0,0.0,0.0,0.0,0.0,0.0,0.0,0.0,0.0,0.0,0.0,0.0,0.0,0.0,0.0,0.0,0.0,0.0,0.0,0.0,0.0,0.0,0.0,0.0,0.0,0.0,0.0,0.0,0.0,0.0,0.0,0.0,0.0,0.0,0.0,0.0,0.0,0.0,0.0,0.0,0.0,0.0,0.0,0.0,0.0,0.0,0.0,0.0,0.0,0.0,0.0,0.0,0.0,0.0,0.0,0.0,0.0,0.0,0.0,0.0,0.0,0.0,0.0,0.0,0.0,0.0,0.0,0.0,0.0,0.0,0.0,0.0,0.0,0.0,0.0,0.0,0.0,0.0,0.0,0.0,0.0,0.0,0.0,0.0,0.0,0.0,0.0,0.0,0.0,0.0,0.0,0.0,0.0,0.0,0.0,0.0,0.0,0.0,0.0,0.0,0.0,0.0,0.0,0.0,0.0,0.0,0.0,0.0,0.0,0.0,0.0,0.0,0.0,0.0,0.0,0.0,0.0,0.0,0.0,0.0,0.0,0.0,0.0,0.0,0.0,0.0,0.0,0.0,0.0,0.0,0.0,0.0,0.0,0.0,0.0,0.0,0.0,0.0,0.0,0.0,0.0,0.0,0.0,0.0,0.0,0.0,0.0,0.0,0.0,0.0,0.0,0.0,0.0,0.0,0.0,0.0,0.0,0.0,0.0,0.0,0.0,0.0,0.0,0.0,0.0,0.0,0.0,0.0,0.0,0.0,0.0,0.0,0.0,0.0,0.0,0.0,0.0,0.0,0.0,0.0,0.0,0.0,0.0,0.0,0.0,0.0,0.0,0.0,0.0,0.0,0.0,0.0,0.0,0.0,0.0,0.0,0.0,0.0,0.0,0.0,0.0,0.0,0.0,0.0,0.0,0.0,0.0,0.0,0.0,0.0,0.0,0.0,0.0,0.0,0.0,0.0,0.0,0.0,0.0,0.0,0.0,0.0,0.0,0.0,0.0,0.0,0.0,0.0,0.0,0.0,0.0,0.0,0.0,0.0,0.0,0.0,0.0,0.0,0.0,0.0,0.0,0.0,0.0,0.0,0.0,0.0,0.0,0.0,0.0,0.0,0.0,0.0,0.0,0.0,0.0,0.0,0.0,0.0,0.0,0.0,0.0,0.0,0.0,0.0,0.0,0.0,0.0,0.0,0.0,0.0,0.0,0.0,0.0,0.0,0.0,0.0,0.0,0.0,0.0,0.0,0.0,0.0,0.0,0.0,0.0,0.0,0.0,0.0,0.0,0.0,0.0,0.0,0.0,0.0,0.0,0.0,0.0,0.0,0.0,0.0,0.0,0.0,0.0,0.0,0.0,0.0,0.0,0.0,0.0,0.0,0.0,0.0,0.0,0.0,0.0,0.0,0.0,0.0,0.0,0.0,0.0,0.0,0.0,0.0,0.0,0.0,0.0,0.0,0.0,0.0,0.0,0.0,0.0,0.0,0.0,0.0,0.0,0.0,0.0,0.0,0.0,0.0,0.0,0.0,0.0,0.0,0.0,0.0,0.0,0.0,0.0,0.0,0.0,0.0,0.0,0.0,0.0,0.0,0.0,0.0,0.0,0.0,0.0,0.0,0.0,0.0,0.0,0.0,0.0,0.0,0.0,0.0,0.0,0.0,0.0,0.0,0.0,0.0,0.0,0.0,0.0,0.0,0.0,0.0,0.0,0.0,0.0,0.0,0.0,0.0,0.0,0.0,0.0,0.0,0.0,0.0,0.0,0.0,0.0,0.0,0.0,0.0,0.0,0.0,0.0,0.0,0.0,0.0,0.0,0.0,0.0,0.0,0.0,0.0,0.0,0.0,0.0,0.0,0.0,0.0,0.0,0.0,0.0,0.0,0.0,0.0,0.0,0.0,0.0,0.0,0.0,0.0,0.0,0.0,0.0,0.0,0.0,0.0,0.0,0.0,0.0,0.0,0.0,0.0,0.0,0.0,0.0,0.0,0.0,0.0,0.0,0.0,0.0,0.0,0.0,0.0,0.0,0.0,0.0,0.0,0.0,0.0,0.0,0.0,0.0,0.0,0.0,0.0,0.0,0.0,0.0,0.0,0.0,0.0,0.0,0.0,0.0,0.0,0.0,0.0,0.0,0.0,0.0,0.0,0.0,0.0,0.0,0.0,0.0,0.0,0.0,0.0,0.0,0.0,0.0,0.0,0.0,0.0,0.0,0.0,0.0,0.0,0.0,0.0,0.0,0.0,0.0,0.0,0.0,0.0,0.0,0.0,0.0,0.0,0.0,0.0,0.0,0.0,0.0,0.0,0.0,0.0,0.0,0.0,0.0,0.0,0.0,0.0,0.0,0.0,0.0,0.0,0.0,0.0,0.0,0.0,0.0,0.0,0.0,0.0,0.0,0.0,0.0,0.0,0.0,0.0,0.0,0.0,0.0,0.0,0.0,0.0,0.0,0.0,0.0,0.0,0.0,0.0,0.0,0.0,0.0,0.0,0.0,0.0,0.0,0.0,0.0,0.0,0.0,0.0,0.0,0.0,0.0,0.0,0.0,0.0,0.0,0.0,0.0,0.0,0.0,0.0,0.0,0.0,0.0,0.0,0.0,0.0,0.0,0.0,0.0,0.0,0.0,0.0,0.0,0.0,0.0,0.0,0.0,0.0,0.0,0.0,0.0,0.0,0.0,0.0,0.0,0.0,0.0,0.0,0.0,0.0,0.0,0.0,0.0,0.0,0.0,0.0,0.0,0.0,0.0,0.0,0.0,0.0,0.0,0.0,0.0,0.0,0.0,0.0,0.0,0.0,0.0,0.0,0.0,0.0,0.0,0.0,0.0,0.0,0.0,0.0,0.0,0.0,0.0,0.0,0.0,0.0,0.0,0.0,0.0,0.0,0.0,0.0,0.0,0.0,0.0,0.0,0.0,0.0,0.0,0.0,0.0,0.0,0.0,0.0,0.0,0.0,0.0,0.0,0.0,0.0,0.0,0.0,0.0,0.0,0.0,0.0,0.0,0.0,0.0,0.0,0.0,0.0,0.0,0.0,0.0,0.0,0.0,0.0,0.0,0.0,0.0,0.0,0.0,0.0,0.0,0.0,0.0,0.0,0.0,0.0,0.0,0.0,0.0,0.0,0.0,0.0,0.0,0.0,0.0,0.0,0.0,0.0,0.0,0.0,0.0,0.0,0.0,0.0,0.0,0.0,0.0,0.0,0.0,0.0,0.0,0.0,0.0,0.0,0.0,0.0,0.0,0.0,0.0,0.0,0.0,0.0,0.0,0.0,0.0,0.0,0.0,0.0,0.0,0.0,0.0,0.0,0.0,0.0,0.0,0.0,0.0,0.0,0.0,0.0,0.0,0.0,0.0,0.0,0.0,0.0,0.0,0.0,0.0,0.0,0.0,0.0,0.0,0.0,0.0,0.0,0.0,0.0,0.0,0.0,0.0,0.0,0.0,0.0,0.0,0.0,0.0,0.0,0.0,0.0,0.0,0.0,0.0,0.0,0.0,0.0,0.0,0.0,0.0,0.0,0.0,0.0,0.0,0.0,0.0,0.0,0.0,0.0,0.0,0.0,0.0,0.0,0.0,0.0,0.0,0.0,0.0,0.0,0.0,0.0,0.0,0.0,0.0,0.0,0.0,0.0,0.0,0.0,0.0,0.0,0.0,0.0,0.0,0.0,0.0,0.0,0.0,0.0,0.0,0.0,0.0,0.0,0.0,0.0,0.0,0.0,0.0,0.0,0.0,0.0,0.0,0.0,0.0,0.0,0.0,0.0,0.0,0.0,0.0,0.0,0.0,0.0,0.0,0.0,0.0,0.0,0.0,0.0,0.0,0.0,0.0,0.0,0.0,0.0,0.0,0.0,0.0,0.0,0.0,0.0,0.0,0.0,0.0,0.0,0.0,0.0,0.0,0.0,0.0,0.0,0.0,0.0,0.0,0.0,0.0,0.0,0.0,0.0,0.0,0.0,0.0,0.0,0.0,0.0,0.0,2.2688,0.0,0.0,0.0,2.2688,0.0,0.0,0.0,0.0,0.0,0.0,0.0,0.0,0.0,0.0,0.0,0.0,0.0,0.0,0.0,0.0,0.0,0.0,0.0,0.0,0.0,0.0,0.0,0.0,0.0,0.0,0.0,0.0,0.0,0.0,0.0,0.0,0.0,0.0,0.0,0.0,0.0,0.0,0.0,0.0,0.0,0.0,0.0,0.0,0.0,0.0,0.0,0.0,0.0,0.0,0.0,0.0,0.0,0.0,0.0,0.0,0.0,0.0,0.0,0.0,0.0,0.0,0.0,0.0,0.0,0.0,0.0,0.0,0.0,0.0,0.0,0.0,0.0,0.0,0.0,0.0,0.0,0.0,0.0,0.0,0.0,0.0,0.0,0.0,0.0,0.0,0.0,0.0,0.0,0.0,0.0,0.0,0.0,0.0,0.0,0.0,0.0,0.0,0.0,0.0,0.0,0.0,0.0,0.0,0.0,0.0,0.0,0.0,0.0,0.0,2.2688,2.2688,2.2688,2.2688,2.2688,0.0,0.0,0.0,0.0,0.0,0.0,0.0,0.0,0.0,0.0,0.0,0.0,0.0,0.0,0.0,0.0,0.0,0.0,0.0,0.0,0.0,0.0,0.0,0.0,0.0,0.0,0.0,0.0,0.0,0.0,0.0,0.0,0.0,0.0,0.0,0.0,0.0,0.0,0.0,0.0,0.0,0.0,0.0,0.0,0.0,0.0,0.0,0.0,0.0,0.0,0.0,0.0,0.0,0.0,0.0,0.0,0.0,0.0,0.0,0.0,0.0,0.0,0.0,0.0,0.0,0.0,0.0,0.0,0.0,0.0,0.0,0.0,0.0,0.0,0.0,0.0,0.0,0.0,0.0,0.0,0.0,0.0,0.0,0.0,0.0,0.0,0.0,0.0,0.0,0.0,0.0,0.0,0.0,0.0,0.0,0.0,0.0,0.0,0.0,0.0,0.0,0.0,0.0,0.0,0.0,0.0,0.0,0.0,0.0,0.0,0.0,0.0,2.2688,2.2688,2.2688,0.0,0.0,0.0,0.0,0.0,0.0,0.0,0.0,0.0,0.0,0.0,0.0,0.0,0.0,0.0,0.0,0.0,0.0,0.0,0.0,0.0,0.0,0.0,0.0,0.0,0.0,0.0,0.0,0.0,0.0,0.0,0.0,0.0,0.0,0.0,0.0,0.0,0.0,0.0,0.0,0.0,0.0,0.0,0.0,0.0,0.0,0.0,0.0,0.0,0.0,0.0,0.0,0.0,0.0,0.0,0.0,0.0,0.0,0.0,0.0,0.0,0.0,0.0,0.0,0.0,0.0,0.0,0.0,0.0,0.0,0.0,0.0,0.0,0.0,0.0,0.0,0.0,0.0,0.0,0.0,0.0,0.0,0.0,0.0,0.0,0.0,0.0,0.0,0.0,0.0,0.0,0.0,0.0,0.0,0.0,0.0,0.0,0.0,0.0,0.0,0.0,0.0,0.0,0.0,0.0,0.0,0.0,0.0,0.0,0.0,2.2688,2.2688,2.2688,0.0,2.2688,0.0,0.0,0.0,0.0,0.0,0.0,0.0,0.0,0.0,0.0,0.0,0.0,0.0,0.0,0.0,0.0,0.0,0.0,0.0,0.0,0.0,0.0,0.0,0.0,0.0,0.0,0.0,0.0,0.0,0.0,0.0,0.0,0.0,0.0,0.0,0.0,0.0,0.0,0.0,0.0,0.0,0.0,0.0,0.0,0.0,0.0,0.0,0.0,0.0,0.0,0.0,0.0,0.0,0.0,0.0,0.0,0.0,0.0,0.0,0.0,0.0,0.0,0.0,0.0,0.0,0.0,0.0,0.0,0.0,0.0,0.0,0.0,0.0,0.0,0.0,0.0,0.0,0.0,0.0,0.0,0.0,0.0,0.0,0.0,0.0,0.0,0.0,0.0,0.0,0.0,0.0,0.0,0.0,0.0,0.0,0.0,0.0,0.0,0.0,0.0,0.0,0.0,0.0,0.0,0.0,0.0,0.0,0.0,0.0,0.0,2.2688,2.2688,2.2688,2.2688,0.0,0.0,0.0,0.0,0.0,0.0,0.0,0.0,0.0,0.0,0.0,0.0,0.0,0.0,0.0,0.0,0.0,0.0,0.0,0.0,0.0,0.0,0.0,0.0,0.0,0.0,0.0,0.0,0.0,0.0,0.0,0.0,0.0,0.0,0.0,0.0,0.0,0.0,0.0,0.0,0.0,0.0,0.0,0.0,0.0,0.0,0.0,0.0,0.0,0.0,0.0,0.0,0.0,0.0,0.0,0.0,0.0,0.0,0.0,0.0,0.0,0.0,0.0,0.0,0.0,0.0,0.0,0.0,0.0,0.0,0.0,0.0,0.0,0.0,0.0,0.0,0.0,0.0,0.0,0.0,0.0,0.0,0.0,0.0,0.0,0.0,0.0,0.0,0.0,0.0,0.0,0.0,0.0,0.0,0.0,0.0,0.0,0.0,0.0,0.0,0.0,0.0,0.0,0.0,0.0,0.0,0.0,0.0,0.0,0.0,2.2688,2.2688,2.2688,2.2688,2.2688,2.2688,0.0,0.0,0.0,0.0,0.0,0.0,0.0,0.0,0.0,0.0,0.0,0.0,0.0,0.0,0.0,0.0,0.0,0.0,0.0,0.0,0.0,0.0,0.0,0.0,0.0,0.0,0.0,0.0,0.0,0.0,0.0,0.0,0.0,0.0,0.0,0.0,0.0,0.0,0.0,0.0,0.0,0.0,0.0,0.0,0.0,0.0,0.0,0.0,0.0,0.0,0.0,0.0,0.0,0.0,0.0,0.0,0.0,0.0,0.0,0.0,0.0,0.0,0.0,0.0,0.0,0.0,0.0,0.0,0.0,0.0,0.0,0.0,0.0,0.0,0.0,0.0,0.0,0.0,0.0,0.0,0.0,0.0,0.0,0.0,0.0,0.0,0.0,0.0,0.0,0.0,0.0,0.0,0.0,0.0,0.0,0.0,0.0,0.0,0.0,0.0,0.0,0.0,0.0,0.0,0.0,0.0,0.0,0.0,2.2719,2.2719,2.2719,2.2726,2.2722,2.2722,0.0,0.0,0.0,0.0,0.0,0.0,0.0,0.0,0.0,0.0,0.0,0.0,0.0,0.0,0.0,0.0,0.0,0.0,0.0,0.0,0.0,0.0,0.0,0.0,0.0,0.0,0.0,0.0,0.0,0.0,0.0,0.0,0.0,0.0,0.0,0.0,0.0,0.0,0.0,0.0,0.0,0.0,0.0,0.0,0.0,0.0,0.0,0.0,0.0,0.0,0.0,0.0,0.0,0.0,0.0,0.0,0.0,0.0,0.0,0.0,0.0,0.0,0.0,0.0,0.0,0.0,0.0,0.0,0.0,0.0,0.0,0.0,0.0,0.0,0.0,0.0,0.0,0.0,0.0,0.0,0.0,0.0,0.0,0.0,0.0,0.0,0.0,0.0,0.0,0.0,0.0,0.0,0.0,0.0,0.0,0.0,0.0,0.0,0.0,0.0,0.0,0.0,0.0,0.0,0.0,0.0,0.0,0.0,0.0,2.3402,2.3926,2.3926,2.344,2.3402,2.3198,0.0,0.0,0.0,0.0,0.0,0.0,0.0,0.0,0.0,0.0,0.0,0.0,0.0,0.0,0.0,0.0,0.0,0.0,0.0,0.0,0.0,0.0,0.0,0.0,0.0,0.0,0.0,0.0,0.0,0.0,0.0,0.0,0.0,0.0,0.0,0.0,0.0,0.0,0.0,0.0,0.0,0.0,0.0,0.0,0.0,0.0,0.0,0.0,0.0,0.0,0.0,0.0,0.0,0.0,0.0,0.0,0.0,0.0,0.0,0.0,0.0,0.0,0.0,0.0,0.0,0.0,0.0,0.0,0.0,0.0,0.0,0.0,0.0,0.0,0.0,0.0,0.0,0.0,0.0,0.0,0.0,0.0,0.0,0.0,0.0,0.0,0.0,0.0,0.0,0.0,0.0,0.0,0.0,0.0,0.0,0.0,0.0,0.0,0.0,0.0,0.0,0.0,0.0,0.0,0.0,0.0,0.0,0.0,0.0,2.4167,2.4719,2.476,2.4232,2.4198,2.3857,0.0,0.0,0.0,0.0,0.0,0.0,0.0,0.0,0.0,0.0,0.0,0.0,0.0,0.0,0.0,0.0,0.0,0.0,0.0,0.0,0.0,0.0,0.0,0.0,0.0,0.0,0.0,0.0,0.0,0.0,0.0,0.0,0.0,0.0,0.0,0.0,0.0,0.0,0.0,0.0,0.0,0.0,0.0,0.0,0.0,0.0,0.0,0.0,0.0,0.0,0.0,0.0,0.0,0.0,0.0,0.0,0.0,0.0,0.0,0.0,0.0,0.0,0.0,0.0,0.0,0.0,0.0,0.0,0.0,0.0,0.0,0.0,0.0,0.0,0.0,0.0,0.0,0.0,0.0,0.0,0.0,0.0,0.0,0.0,0.0,0.0,0.0,0.0,0.0,0.0,0.0,0.0,0.0,0.0,0.0,0.0,0.0,0.0,0.0,0.0,0.0,0.0,0.0,0.0,0.0,0.0,0.0,0.0,2.427,2.4998,2.5101,2.5205,2.5033,2.5071,2.4653,0.0,0.0,0.0,0.0,0.0,0.0,0.0,0.0,0.0,0.0,0.0,0.0,0.0,0.0,0.0,0.0,0.0,0.0,0.0,0.0,0.0,0.0,0.0,0.0,0.0,0.0,0.0,0.0,0.0,0.0,0.0,0.0,0.0,0.0,0.0,0.0,0.0,0.0,0.0,0.0,0.0,0.0,0.0,0.0,0.0,0.0,0.0,0.0,0.0,0.0,0.0,0.0,0.0,0.0,0.0,0.0,0.0,0.0,0.0,0.0,0.0,0.0,0.0,0.0,0.0,0.0,0.0,0.0,0.0,0.0,0.0,0.0,0.0,0.0,0.0,0.0,0.0,0.0,0.0,0.0,0.0,0.0,0.0,0.0,0.0,0.0,0.0,0.0,0.0,0.0,0.0,0.0,0.0,0.0,0.0,0.0,0.0,0.0,0.0,0.0,0.0,0.0,0.0,0.0,0.0,0.0,0.0,0.0,0.0,2.6626,2.7562,2.7795,2.7343,2.6837,2.5975,0.0,0.0,0.0,0.0,0.0,0.0,0.0,0.0,0.0,0.0,0.0,0.0,0.0,0.0,0.0,0.0,0.0,0.0,0.0,0.0,0.0,0.0,0.0,0.0,0.0,0.0,0.0,0.0,0.0,0.0,0.0,0.0,0.0,0.0,0.0,0.0,0.0,0.0,0.0,0.0,0.0,0.0,0.0,0.0,0.0,0.0,0.0,0.0,0.0,0.0,0.0,0.0,0.0,0.0,0.0,0.0,0.0,0.0,0.0,0.0,0.0,0.0,0.0,0.0,0.0,0.0,0.0,0.0,0.0,0.0,0.0,0.0,0.0,0.0,0.0,0.0,0.0,0.0,0.0,0.0,0.0,0.0,0.0,0.0,0.0,0.0,0.0,0.0,0.0,0.0,0.0,0.0,0.0,0.0,0.0,0.0,0.0,0.0,0.0,0.0,0.0,0.0,0.0,0.0,0.0,0.0,0.0,0.0,0.0,3.0106,3.0425,3.0391,2.9973,2.9227,2.8007,2.6243,0.0,0.0,0.0,0.0,0.0,0.0,0.0,0.0,0.0,0.0,0.0,0.0,0.0,0.0,0.0,0.0,0.0,0.0,0.0,0.0,0.0,0.0,0.0,0.0,0.0,0.0,0.0,0.0,0.0,0.0,0.0,0.0,0.0,0.0,0.0,0.0,0.0,0.0,0.0,0.0,0.0,0.0,0.0,0.0,0.0,0.0,0.0,0.0,0.0,0.0,0.0,0.0,0.0,0.0,0.0,0.0,0.0,0.0,0.0,0.0,0.0,0.0,0.0,0.0,0.0,0.0,0.0,0.0,0.0,0.0,0.0,0.0,0.0,0.0,0.0,0.0,0.0,0.0,0.0,0.0,0.0,0.0,0.0,0.0,0.0,0.0,0.0,0.0,0.0,0.0,0.0,0.0,0.0,0.0,0.0,0.0,0.0,0.0,0.0,0.0,0.0,0.0,0.0,0.0,0.0,0.0,0.0,0.0,3.5029,3.3756,3.303,3.2851,3.1978,3.0514,0.0,0.0,0.0,0.0,0.0,0.0,0.0,0.0,0.0,0.0,0.0,0.0,0.0,0.0,0.0,0.0,0.0,0.0,0.0,0.0,0.0,0.0,0.0,0.0,0.0,0.0,0.0,0.0,0.0,0.0,0.0,0.0,0.0,0.0,0.0,0.0,0.0,0.0,0.0,0.0,0.0,0.0,0.0,0.0,0.0,0.0,0.0,0.0,0.0,0.0,0.0,0.0,0.0,0.0,0.0,0.0,0.0,0.0,0.0,0.0,0.0,0.0,0.0,0.0,0.0,0.0,0.0,0.0,0.0,0.0,0.0,0.0,0.0,0.0,0.0,0.0,0.0,0.0,0.0,0.0,0.0,0.0,0.0,0.0,0.0,0.0,0.0,0.0,0.0,0.0,0.0,0.0,0.0,0.0,0.0,0.0,0.0,0.0,0.0,0.0,0.0,0.0,0.0,0.0,0.0,0.0,0.0,0.0,0.0,3.788,3.8606,3.7991,3.5978,3.4151,3.209,0.0,0.0,0.0,0.0,0.0,0.0,0.0,0.0,0.0,0.0,0.0,0.0,0.0,0.0,0.0,0.0,0.0,0.0,0.0,0.0,0.0,0.0,0.0,0.0,0.0,0.0,0.0,0.0,0.0,0.0,0.0,0.0,0.0,0.0,0.0,0.0,0.0,0.0,0.0,0.0,0.0,0.0,0.0,0.0,0.0,0.0,0.0,0.0,0.0,0.0,0.0,0.0,0.0,0.0,0.0,0.0,0.0,0.0,0.0,0.0,0.0,0.0,0.0,0.0,0.0,0.0,0.0,0.0,0.0,0.0,0.0,0.0,0.0,0.0,0.0,0.0,0.0,0.0,0.0,0.0,0.0,0.0,0.0,0.0,0.0,0.0,0.0,0.0,0.0,0.0,0.0,0.0,0.0,0.0,0.0,0.0,0.0,0.0,0.0,0.0,0.0,0.0,0.0,0.0,0.0,0.0,0.0,0.0,3.7417,3.957,4.0963,4.1096,3.9769,3.699,3.4168,0.0,0.0,0.0,0.0,0.0,0.0,0.0,0.0,0.0,0.0,0.0,0.0,0.0,0.0,0.0,0.0,0.0,0.0,0.0,0.0,0.0,0.0,0.0,0.0,0.0,0.0,0.0,0.0,0.0,0.0,0.0,0.0,0.0,0.0,0.0,0.0,0.0,0.0,0.0,0.0,0.0,0.0,0.0,0.0,0.0,0.0,0.0,0.0,0.0,0.0,0.0,0.0,0.0,0.0,0.0,0.0,0.0,0.0,0.0,0.0,0.0,0.0,0.0,0.0,0.0,0.0,0.0,0.0,0.0,0.0,0.0,0.0,0.0,0.0,0.0,0.0,0.0,0.0,0.0,0.0,0.0,0.0,0.0,0.0,0.0,0.0,0.0,0.0,0.0,0.0,0.0,0.0,0.0,0.0,0.0,0.0,0.0,0.0,0.0,0.0,0.0,0.0,0.0,0.0,0.0,0.0,0.0,0.0,3.8526,4.0582,4.1957,4.2858,4.3265,3.9931,3.6383,0.0,0.0,0.0,0.0,0.0,0.0,0.0,0.0,0.0,0.0,0.0,0.0,0.0,0.0,0.0,0.0,0.0,0.0,0.0,0.0,0.0,0.0,0.0,0.0,0.0,0.0,0.0,0.0,0.0,0.0,0.0,0.0,0.0,0.0,0.0,0.0,0.0,0.0,0.0,0.0,0.0,0.0,0.0,0.0,0.0,0.0,0.0,0.0,0.0,0.0,0.0,0.0,0.0,0.0,0.0,0.0,0.0,0.0,0.0,0.0,0.0,0.0,0.0,0.0,0.0,0.0,0.0,0.0,0.0,0.0,0.0,0.0,0.0,0.0,0.0,0.0,0.0,0.0,0.0,0.0,0.0,0.0,0.0,0.0,0.0,0.0,0.0,0.0,0.0,0.0,0.0,0.0,0.0,0.0,0.0,0.0,0.0,0.0,0.0,0.0,0.0,0.0,0.0,0.0,0.0,0.0,0.0,0.0,4.1329,4.2774,4.3727,4.3986,4.348,4.0567,3.7739,0.0,0.0,0.0,0.0,0.0,0.0,0.0,0.0,0.0,0.0,0.0,0.0,0.0,0.0,0.0,0.0,0.0,0.0,0.0,0.0,0.0,0.0,0.0,0.0,0.0,0.0,0.0,0.0,0.0,0.0,0.0,0.0,0.0,0.0,0.0,0.0,0.0,0.0,0.0,0.0,0.0,0.0,0.0,0.0,0.0,0.0,0.0,0.0,2.465,0.0,0.0,0.0,0.0,0.0,0.0,0.0,0.0,0.0,0.0,0.0,0.0,0.0,0.0,0.0,0.0,0.0,0.0,0.0,0.0,0.0,0.0,0.0,0.0,0.0,0.0,0.0,0.0,0.0,0.0,0.0,0.0,0.0,0.0,0.0,0.0,0.0,0.0,0.0,0.0,0.0,0.0,0.0,0.0,0.0,0.0,0.0,0.0,0.0,0.0,0.0,0.0,0.0,0.0,0.0,0.0,0.0,0.0,0.0,4.1186,4.2535,4.3621,4.4,4.3475,4.1155,3.8552,0.0,0.0,0.0,0.0,0.0,0.0,0.0,0.0,0.0,0.0,0.0,0.0,0.0,0.0,0.0,0.0,0.0,0.0,0.0,0.0,0.0,0.0,0.0,0.0,0.0,0.0,0.0,0.0,0.0,0.0,0.0,0.0,0.0,0.0,0.0,0.0,0.0,0.0,0.0,0.0,0.0,0.0,0.0,0.0,0.0,0.0,0.0,0.0,0.0,0.0,0.0,0.0,0.0,0.0,0.0,0.0,0.0,0.0,0.0,0.0,0.0,0.0,0.0,0.0,0.0,0.0,0.0,0.0,0.0,0.0,0.0,0.0,0.0,0.0,0.0,0.0,0.0,0.0,0.0,0.0,0.0,0.0,0.0,0.0,0.0,0.0,0.0,0.0,0.0,0.0,0.0,0.0,0.0,0.0,0.0,0.0,0.0,0.0,0.0,0.0,0.0,0.0,0.0,0.0,0.0,0.0,0.0,3.8693,4.0623,4.1983,4.3261,4.3892,4.375,4.1548,3.9064,3.626,0.0,0.0,0.0,0.0,0.0,0.0,0.0,0.0,0.0,0.0,0.0,0.0,0.0,0.0,0.0,0.0,0.0,0.0,0.0,0.0,0.0,0.0,0.0,0.0,0.0,0.0,0.0,0.0,0.0,0.0,0.0,0.0,0.0,0.0,0.0,0.0,0.0,0.0,2.5248,2.666,0.0,0.0,0.0,0.0,0.0,0.0,0.0,0.0,2.9771,0.0,0.0,0.0,0.0,0.0,0.0,0.0,0.0,0.0,0.0,0.0,0.0,0.0,0.0,0.0,0.0,0.0,0.0,0.0,0.0,0.0,0.0,0.0,0.0,0.0,0.0,0.0,0.0,0.0,0.0,0.0,0.0,0.0,0.0,0.0,0.0,0.0,0.0,0.0,0.0,0.0,0.0,0.0,0.0,0.0,0.0,0.0,0.0,0.0,0.0,0.0,0.0,0.0,0.0,0.0,0.0,3.7082,4.0957,4.3352,4.4174,4.4938,4.5095,4.4449,4.1378,3.9103,3.7806,0.0,0.0,0.0,0.0,0.0,0.0,0.0,0.0,0.0,0.0,0.0,0.0,0.0,0.0,0.0,0.0,0.0,0.0,0.0,0.0,0.0,0.0,0.0,0.0,0.0,0.0,0.0,0.0,0.0,0.0,0.0,0.0,0.0,0.0,0.0,0.0,0.0,0.0,0.0,2.85,2.9532,0.0,0.0,0.0,0.0,0.0,0.0,0.0,0.0,3.0518,0.0,0.0,0.0,0.0,0.0,0.0,0.0,0.0,0.0,0.0,0.0,0.0,0.0,0.0,0.0,0.0,0.0,0.0,0.0,0.0,0.0,0.0,0.0,0.0,0.0,0.0,0.0,0.0,0.0,0.0,0.0,0.0,0.0,0.0,0.0,0.0,0.0,0.0,0.0,0.0,0.0,0.0,0.0,0.0,0.0,0.0,0.0,0.0,0.0,0.0,0.0,0.0,0.0,0.0,0.0,3.8818,4.1682,4.3791,4.5123,4.5831,4.5528,4.4143,4.182,3.9707,0.0,0.0,0.0,0.0,0.0,0.0,0.0,0.0,0.0,0.0,0.0,0.0,0.0,0.0,0.0,0.0,0.0,0.0,0.0,0.0,0.0,0.0,0.0,0.0,0.0,0.0,0.0,0.0,0.0,0.0,0.0,0.0,0.0,0.0,0.0,0.0,0.0,0.0,0.0,0.0,3.0401,3.1931,3.2638,0.0,0.0,0.0,0.0,0.0,0.0,3.4756,3.3896,0.0,0.0,0.0,0.0,0.0,0.0,0.0,0.0,0.0,0.0,0.0,0.0,0.0,0.0,0.0,0.0,0.0,0.0,0.0,0.0,0.0,0.0,0.0,0.0,0.0,0.0,0.0,0.0,0.0,0.0,0.0,0.0,0.0,0.0,0.0,0.0,0.0,0.0,0.0,0.0,0.0,0.0,0.0,0.0,0.0,0.0,0.0,0.0,0.0,0.0,0.0,0.0,0.0,0.0,0.0,4.0414,4.228,4.4058,4.5751,4.6459,4.5905,4.4077,4.258,4.0453,0.0,0.0,0.0,0.0,0.0,0.0,0.0,0.0,0.0,0.0,0.0,0.0,0.0,0.0,0.0,0.0,0.0,0.0,0.0,0.0,0.0,0.0,0.0,0.0,0.0,0.0,0.0,0.0,0.0,0.0,0.0,0.0,0.0,0.0,0.0,0.0,0.0,0.0,0.0,0.0,0.0,3.405,3.4837,3.5726,0.0,0.0,0.0,0.0,3.8158,3.768,0.0,0.0,0.0,0.0,0.0,0.0,0.0,0.0,0.0,0.0,0.0,0.0,0.0,0.0,0.0,0.0,0.0,0.0,0.0,0.0,0.0,0.0,0.0,0.0,0.0,0.0,0.0,0.0,0.0,0.0,0.0,0.0,0.0,0.0,0.0,0.0,0.0,0.0,0.0,0.0,0.0,0.0,0.0,0.0,0.0,0.0,0.0,0.0,0.0,0.0,0.0,0.0,0.0,0.0,0.0,0.0,4.1143,4.3882,4.5659,4.6459,4.7157,4.6819,4.5382,4.3494,4.1181,0.0,0.0,0.0,0.0,0.0,0.0,0.0,0.0,0.0,0.0,0.0,0.0,0.0,0.0,0.0,0.0,0.0,0.0,0.0,0.0,0.0,0.0,0.0,0.0,0.0,0.0,0.0,0.0,0.0,0.0,0.0,0.0,0.0,0.0,0.0,0.0,0.0,0.0,0.0,0.0,0.0,3.5125,3.8298,3.8454,3.8386,0.0,0.0,3.9019,3.8374,3.784,0.0,0.0,0.0,0.0,0.0,0.0,0.0,0.0,0.0,0.0,0.0,0.0,0.0,0.0,0.0,0.0,0.0,0.0,0.0,0.0,0.0,0.0,0.0,0.0,0.0,0.0,0.0,0.0,0.0,0.0,0.0,0.0,0.0,0.0,0.0,0.0,0.0,0.0,0.0,0.0,0.0,0.0,0.0,0.0,0.0,0.0,0.0,0.0,0.0,0.0,0.0,0.0,0.0,0.0,0.0,3.8889,4.3064,4.5137,4.7065,4.885,4.922,4.8512,4.6747,4.4797,4.2263,0.0,0.0,0.0,0.0,0.0,0.0,0.0,0.0,0.0,0.0,0.0,0.0,0.0,0.0,0.0,0.0,0.0,0.0,0.0,0.0,0.0,0.0,0.0,0.0,0.0,0.0,0.0,0.0,0.0,0.0,0.0,0.0,0.0,0.0,0.0,0.0,0.0,0.0,0.0,0.0,0.0,0.0,3.9147,3.9772,0.0,0.0,0.0,4.0611,4.0739,0.0,0.0,0.0,0.0,0.0,0.0,0.0,0.0,0.0,0.0,0.0,0.0,0.0,0.0,0.0,0.0,0.0,0.0,0.0,0.0,0.0,0.0,0.0,0.0,0.0,0.0,0.0,0.0,0.0,0.0,0.0,0.0,0.0,0.0,0.0,0.0,0.0,0.0,0.0,0.0,0.0,0.0,0.0,0.0,0.0,0.0,0.0,0.0,0.0,0.0,0.0,0.0,0.0,0.0,0.0,0.0,0.0,4.4498,4.6244,4.8358,5.0831,5.079,4.9969,4.8409,4.6244,0.0,0.0,0.0,0.0,0.0,0.0,0.0,0.0,0.0,0.0,0.0,0.0,0.0,0.0,0.0,0.0,0.0,0.0,0.0,0.0,0.0,0.0,0.0,0.0,0.0,0.0,0.0,2.298,0.0,0.0,0.0,0.0,0.0,0.0,0.0,0.0,0.0,0.0,0.0,0.0,0.0,0.0,3.8816,4.0256,4.1273,4.1797,0.0,0.0,4.2097,4.2549,4.2406,4.1683,0.0,0.0,0.0,0.0,0.0,0.0,0.0,0.0,0.0,0.0,0.0,0.0,0.0,0.0,0.0,0.0,0.0,0.0,0.0,0.0,0.0,0.0,0.0,0.0,0.0,0.0,0.0,0.0,0.0,0.0,0.0,0.0,0.0,0.0,0.0,0.0,0.0,0.0,0.0,0.0,0.0,0.0,0.0,0.0,0.0,0.0,0.0,0.0,0.0,0.0,0.0,0.0,0.0,0.0,0.0,4.4529,4.7157,4.9486,5.1528,5.1005,5.0647,5.0451,4.7876,4.5187,0.0,0.0,0.0,0.0,0.0,0.0,0.0,0.0,0.0,0.0,0.0,0.0,0.0,0.0,0.0,0.0,0.0,0.0,0.0,0.0,0.0,0.0,0.0,0.0,0.0,0.0,0.0,0.0,0.0,0.0,0.0,0.0,0.0,0.0,0.0,0.0,0.0,0.0,0.0,0.0,0.0,3.9612,4.2948,4.3418,4.3673,0.0,4.3809,4.3279,4.27,4.2093,4.1348,4.0567,0.0,0.0,0.0,0.0,0.0,0.0,0.0,0.0,0.0,0.0,0.0,0.0,0.0,0.0,0.0,0.0,0.0,0.0,0.0,0.0,0.0,0.0,0.0,0.0,0.0,0.0,0.0,0.0,0.0,0.0,0.0,0.0,0.0,0.0,0.0,0.0,0.0,0.0,0.0,0.0,0.0,0.0,0.0,0.0,0.0,0.0,0.0,0.0,0.0,0.0,0.0,0.0,0.0,4.2223,4.6398,4.8727,5.1087,5.3425,5.3291,5.2779,5.1959,4.9712,4.7229,0.0,0.0,0.0,0.0,0.0,0.0,0.0,0.0,0.0,0.0,0.0,0.0,0.0,0.0,0.0,0.0,0.0,0.0,0.0,0.0,0.0,0.0,0.0,0.0,0.0,0.0,0.0,0.0,2.9526,2.9773,3.026,0.0,0.0,0.0,0.0,0.0,0.0,0.0,0.0,0.0,0.0,4.1753,4.3993,4.4619,0.0,0.0,4.4972,4.4592,4.392,4.3965,4.3556,4.203,4.0214,0.0,0.0,0.0,0.0,0.0,0.0,0.0,0.0,0.0,0.0,0.0,0.0,0.0,0.0,0.0,0.0,0.0,0.0,0.0,0.0,0.0,0.0,0.0,0.0,0.0,0.0,0.0,0.0,0.0,0.0,0.0,0.0,0.0,0.0,0.0,0.0,0.0,0.0,0.0,0.0,0.0,0.0,0.0,0.0,0.0,0.0,0.0,0.0,0.0,0.0,0.0,0.0,4.3353,4.7855,5.0143,5.2513,5.4964,5.4799,5.4337,5.3579,5.1478,4.9199,0.0,0.0,0.0,0.0,0.0,0.0,0.0,0.0,0.0,0.0,0.0,0.0,0.0,0.0,0.0,0.0,0.0,0.0,0.0,0.0,0.0,0.0,0.0,0.0,0.0,0.0,0.0,0.0,3.1204,3.1151,3.1212,0.0,0.0,0.0,0.0,0.0,0.0,0.0,0.0,0.0,0.0,4.3442,4.5027,4.5622,4.5967,4.6182,4.6028,4.573,4.5268,4.5413,4.5105,4.3741,0.0,0.0,0.0,0.0,0.0,0.0,0.0,0.0,0.0,0.0,0.0,0.0,0.0,0.0,0.0,0.0,0.0,0.0,0.0,0.0,0.0,0.0,0.0,0.0,0.0,0.0,0.0,0.0,0.0,0.0,2.6321,0.0,0.0,0.0,0.0,0.0,0.0,0.0,0.0,0.0,0.0,0.0,0.0,0.0,0.0,0.0,0.0,0.0,0.0,0.0,0.0,0.0,0.0,4.4562,4.8563,5.1291,5.3641,5.5622,5.5045,5.5026,5.5542,5.3067,5.1005,4.9569,0.0,0.0,0.0,0.0,0.0,0.0,0.0,0.0,0.0,0.0,0.0,0.0,0.0,0.0,0.0,0.0,0.0,0.0,0.0,0.0,0.0,0.0,0.0,0.0,0.0,0.0,3.3249,3.3848,3.3555,0.0,0.0,0.0,0.0,0.0,0.0,0.0,0.0,0.0,0.0,4.3047,4.4311,4.6283,4.6592,4.685,4.7465,4.7004,4.6573,4.6542,4.6028,4.5588,0.0,0.0,0.0,0.0,0.0,0.0,0.0,0.0,0.0,0.0,0.0,0.0,0.0,0.0,0.0,0.0,0.0,0.0,0.0,0.0,0.0,0.0,0.0,0.0,0.0,0.0,0.0,3.1517,3.2044,0.0,0.0,0.0,0.0,0.0,0.0,0.0,0.0,0.0,0.0,0.0,4.2691,4.2528,0.0,0.0,0.0,0.0,0.0,0.0,0.0,0.0,0.0,0.0,0.0,0.0,4.6142,5.0533,5.286,5.5241,5.7635,5.7112,5.665,5.6416,5.4626,5.2441,4.9754,0.0,0.0,0.0,0.0,0.0,0.0,0.0,0.0,0.0,0.0,0.0,0.0,0.0,0.0,0.0,0.0,0.0,0.0,0.0,0.0,0.0,0.0,0.0,0.0,0.0,3.3176,0.0,0.0,0.0,0.0,0.0,0.0,0.0,0.0,0.0,0.0,0.0,4.1054,4.355,4.4868,4.5998,4.7096,4.764,4.8009,0.0,0.0,0.0,0.0,0.0,0.0,0.0,0.0,0.0,0.0,0.0,0.0,0.0,0.0,3.9994,3.7269,3.7361,3.7823,3.7831,0.0,0.0,0.0,0.0,0.0,0.0,0.0,0.0,0.0,0.0,0.0,0.0,0.0,0.0,3.6612,0.0,3.5618,0.0,0.0,0.0,0.0,0.0,0.0,0.0,0.0,4.4048,4.5187,4.6706,4.6716,4.65,0.0,4.5628,4.4264,0.0,0.0,0.0,0.0,0.0,0.0,0.0,0.0,4.8091,5.2287,5.4379,5.6515,5.8651,5.8387,5.7937,5.7463,5.5899,5.3579,5.0493,4.7558,4.4633,0.0,0.0,0.0,0.0,0.0,0.0,0.0,0.0,0.0,0.0,0.0,0.0,0.0,0.0,0.0,0.0,0.0,0.0,0.0,0.0,0.0,0.0,0.0,3.6295,0.0,0.0,0.0,0.0,0.0,0.0,0.0,0.0,0.0,4.0517,4.181,4.3473,4.572,4.6726,4.7558,4.8235,0.0,0.0,0.0,0.0,0.0,0.0,0.0,4.9271,4.9066,4.885,4.8604,4.8358,4.726,4.61,4.5218,0.0,0.0,4.1348,4.1546,4.2307,4.2307,4.286,4.3599,4.4562,4.5095,4.568,0.0,0.0,0.0,0.0,0.0,0.0,0.0,0.0,4.2122,4.2404,0.0,4.0372,0.0,0.0,0.0,0.0,0.0,4.1217,0.0,0.0,4.7558,4.8912,5.08,5.0893,5.0851,5.0862,5.082,5.077,5.0369,4.4162,0.0,0.0,0.0,0.0,0.0,0.0,5.0399,5.3783,5.5881,5.7555,5.891,5.8898,5.8836,5.8726,5.6835,5.4576,5.1959,4.9845,4.7219,4.3963,4.1155,0.0,0.0,0.0,0.0,0.0,0.0,0.0,0.0,0.0,0.0,0.0,0.0,0.0,0.0,0.0,0.0,0.0,0.0,0.0,0.0,3.9494,0.0,0.0,0.0,0.0,0.0,0.0,0.0,0.0,0.0,0.0,4.4683,4.4816,4.573,4.8348,0.0,0.0,0.0,0.0,5.077,5.08,5.079,5.079,5.082,5.0862,5.1097,5.1744,0.0,0.0,4.9969,4.9846,4.9795,4.9784,4.9754,4.881,4.5607,4.6429,4.7588,4.7671,4.8163,4.9168,5.044,5.0594,5.1025,4.7034,0.0,0.0,0.0,0.0,4.3864,4.4941,4.5609,4.6501,4.7065,4.726,4.5403,0.0,0.0,0.0,0.0,0.0,0.0,4.844,5.1641,5.2337,5.3529,5.503,5.5061,5.4784,5.428,5.4268,5.4022,5.3487,5.1599,4.9281,4.6624,0.0,0.0,0.0,0.0,5.2729,5.6465,5.8159,5.9821,6.1625,6.0745,5.976,5.8818,5.7771,5.6631,5.5369,5.2883,5.042,4.804,4.4858,0.0,0.0,0.0,0.0,0.0,0.0,0.0,0.0,0.0,0.0,0.0,0.0,0.0,0.0,0.0,0.0,0.0,0.0,0.0,4.2398,4.2674,4.2337,0.0,0.0,0.0,0.0,0.0,0.0,0.0,0.0,0.0,4.9404,4.884,4.885,0.0,0.0,5.1599,5.1805,5.201,5.2287,5.2779,5.2841,0.0,5.3476,5.396,5.4341,5.4514,5.4391,5.4052,5.3364,5.286,5.241,5.1948,5.2625,5.2902,5.2029,5.1036,5.0748,5.1159,5.1764,5.2619,5.3687,5.4129,5.4398,5.1652,4.8153,4.7352,4.6931,4.6962,4.8389,4.9558,5.044,5.084,5.1271,5.1559,4.9805,4.8871,4.8573,4.7783,0.0,0.0,0.0,5.2441,5.4976,5.5899,5.6915,5.7956,5.8276,5.8159,5.7715,5.7728,5.7519,5.7118,5.7118,5.5764,5.3025,0.0,0.0,5.1713,5.3294,5.5513,5.8292,5.9765,6.1134,6.2607,6.1946,6.0948,5.9624,5.9206,5.8418,5.7229,5.5057,5.2964,5.0954,4.7876,4.4932,0.0,0.0,0.0,0.0,0.0,0.0,0.0,0.0,0.0,0.0,0.0,2.9735,3.2037,0.0,0.0,0.0,4.0601,4.3362,4.5967,4.5361,0.0,0.0,0.0,0.0,0.0,0.0,0.0,4.7475,4.9148,5.0902,5.2645,5.2925,5.2894,5.2902,5.3456,5.3899,5.3899,0.0,5.4853,5.5284,5.5561,5.5857,5.6257,5.6884,5.742,5.7697,5.7481,5.71,5.6441,5.5764,5.5144,5.4762,5.5187,5.5795,5.5919,5.5155,5.4533,5.4714,5.5253,5.6024,5.6899,5.7119,5.7242,5.5222,5.3949,5.2113,5.159,5.201,5.2748,5.3795,5.4922,5.5014,5.5045,5.4922,5.3672,5.276,5.2124,5.2113,0.0,5.4133,5.4737,5.5807,5.7229,5.8479,5.939,6.0068,6.0701,6.104,6.104,6.1101,6.1132,6.1101,6.1132,6.0763,6.0068,5.702,5.536,5.5229,5.7112,5.8637,5.9648,6.108,6.2028,6.2564,6.2764,6.224,6.0944,6.0808,5.9899,5.8048,5.6639,5.4967,5.2961,5.0388,4.7804,4.5114,0.0,0.0,0.0,0.0,0.0,0.0,0.0,0.0,0.0,0.0,0.0,0.0,0.0,0.0,0.0,4.4889,0.0,4.8706,4.764,0.0,0.0,0.0,4.6521,4.7855,4.8655,4.9609,5.0944,0.0,0.0,5.486,5.6823,5.742,5.5568,5.5807,5.6096,5.6084,5.7217,5.8079,5.8202,5.8726,5.9157,5.939,5.9883,6.0393,6.0794,6.0486,5.9778,5.9075,5.8386,5.7875,5.7496,5.7538,5.7719,5.806,5.8546,5.8919,5.82,5.8515,5.9105,5.963,5.9642,5.9639,5.7882,5.7543,5.7081,5.5776,5.4153,5.585,5.6773,5.7081,5.7605,5.782,5.7759,5.6958,5.6231,5.5584,5.5596,5.6324,5.7605,5.7746,5.8824,6.0578,6.0948,6.1427,6.2104,6.2781,6.3075,6.3137,6.3643,6.3903,6.3903,6.3933,6.3564,6.286,6.2325,6.0901,5.875,6.0086,6.1462,6.2722,6.4132,6.4543,6.3967,6.3712,6.2989,6.168,6.1162,6.0418,5.9427,5.8296,5.6745,5.4769,5.3269,5.1271,4.8625,4.6357,0.0,0.0,0.0,0.0,0.0,0.0,0.0,0.0,0.0,3.7461,4.017,0.0,4.3011,0.0,4.6757,4.8902,5.0759,4.9754,0.0,0.0,4.9569,5.002,5.1344,5.2522,5.3568,5.4422,5.62,5.7469,5.7777,5.9593,6.0873,6.0829,6.0116,5.9593,5.9593,5.9852,6.0455,6.1365,6.1691,6.2227,6.312,6.3564,6.3489,6.315,6.2522,6.1792,6.0954,6.021,5.9678,5.9405,5.9705,6.0029,6.0145,6.0735,6.1109,6.094,6.0675,6.0534,6.0998,6.1187,6.1207,5.9538,5.9538,5.9973,5.9255,5.7906,5.8467,5.8849,5.9175,5.9544,5.9839,6.0098,5.9421,5.9082,5.9033,5.9033,5.9575,6.0578,6.0886,6.1612,6.272,6.3335,6.3827,6.4197,6.4874,6.5182,6.5168,6.5442,6.5555,6.5555,6.5398,6.483,6.3835,6.4024,6.2971,6.0795,6.232,6.357,6.4273,6.523,6.5453,6.49,6.4539,6.3843,6.2842,6.213,6.1493,6.0826,5.9926,5.873,5.7135,5.5937,5.4148,5.1621,4.9558,4.7496,0.0,0.0,0.0,0.0,0.0,0.0,0.0,0.0,0.0,0.0,0.0,4.6531,4.8183,4.9343,5.0574,5.201,5.1467,5.1405,5.2379,5.2471,5.3118,5.4803,5.5899,5.678,5.7451,5.9052,6.0147,6.0178,6.1902,6.3304,6.3718,6.3612,6.3287,6.275,6.2735,6.3173,6.4002,6.4178,6.441,6.5249,6.5471,6.539,6.4835,6.4168,6.3548,6.303,6.2424,6.1842,6.1613,6.1816,6.2017,6.1936,6.2377,6.2829,6.2758,6.2287,6.1828,6.1711,6.1696,6.1489,6.0765,6.0888,6.159,6.1924,6.184,6.0763,6.0578,6.1071,6.1058,6.1379,6.1902,6.1409,6.1489,6.2042,6.2148,6.2566,6.3243,6.3783,6.4122,6.4289,6.5459,6.6027,6.6043,6.6782,6.7036,6.6835,6.6742,6.6569,6.6275,6.6008,6.5263,6.405,6.3974,6.3357,6.2295,6.3961,6.4927,6.5023,6.5496,6.5709,6.5618,6.5264,6.473,6.4063,6.3397,6.2717,6.2064,6.1455,6.0576,5.9492,5.8385,5.6696,5.4375,5.2516,5.0848,0.0,4.7496,0.0,0.0,0.0,0.0,0.0,0.0,0.0,0.0,4.8009,4.9917,5.1794,5.1959,5.2267,5.3025,5.3087,5.3641,5.4922,5.5106,5.5918,5.7925,5.8695,5.936,6.0086,6.1247,6.2034,6.2258,6.3845,6.4941,6.5235,6.6051,6.6252,6.5517,6.532,6.5506,6.602,6.613,6.613,6.6252,6.6442,6.647,6.604,6.5541,6.5135,6.4894,6.4239,6.3676,6.3388,6.3025,6.2939,6.2837,6.3165,6.3476,6.3328,6.2795,6.2338,6.2085,6.1677,6.1026,6.2713,6.309,6.2516,6.2413,6.2627,6.2935,6.2812,6.2412,6.2443,6.2473,6.2614,6.3058,6.3322,6.3445,6.4057,6.4672,6.5319,6.5472,6.5797,6.632,6.6597,6.672,6.6782,6.798,6.7752,6.6474,6.7705,6.7403,6.5616,6.584,6.5694,6.5097,6.4891,6.473,6.4685,0.0,0.0,0.0,6.6612,6.6869,6.6341,6.5952,6.5487,6.4813,6.4137,0.0,6.2906,6.2443,6.1588,6.0358,6.0226,0.0,0.0,0.0,0.0,0.0,0.0,0.0,0.0,0.0,0.0,0.0,5.1383,5.0513,4.9846,5.1067,5.2318,5.3229,5.3333,5.3826,5.5007,5.5142,5.5696,5.702,5.7204,5.8005,5.9945,6.0332,6.0886,6.2104,6.2747,6.3398,6.4217,6.4925,6.5735,6.6698,6.7128,6.7332,6.7342,6.6638,6.6477,6.6993,6.7266,6.7575,6.7605,6.7559,6.7227,6.6877,6.665,6.6155,6.5409,6.4293,6.3423,6.3132,6.2061,6.1418,6.1342,6.1349,6.1693,6.1463,6.137,6.151,6.2477,6.1762,6.0847,6.4347,0.0,6.4282,6.4298,0.0,6.4945,6.4998,6.4812,6.4474,6.4535,6.4843,6.5182,6.5335,6.5366,6.5705,6.6259,6.6905,6.7227,6.775,6.8397,6.8721,6.8505,6.7864,6.8319,6.7698,6.6166,6.6666,6.6318,6.5242,6.5237,6.4809,6.3929,6.3767,6.3404,6.2855,6.3258,6.3896,6.4693,6.5982,6.633,6.5771,6.5918,6.5847,6.5488,6.4829,0.0,0.0,0.0,0.0,0.0,0.0,0.0,0.0,0.0,0.0,5.6592,5.5856,5.5395,5.521,5.5191,5.5511,5.6146,5.5899,5.4853,5.2841,5.3291,5.4103,5.513,5.553,5.6004,5.6662,5.734,5.8128,5.9144,5.9575,6.0332,6.1563,6.2073,6.2689,6.3674,6.4333,6.495,6.5783,6.6202,6.6612,6.7242,6.6927,6.6792,6.7225,6.7155,6.7045,6.7214,6.7667,6.7849,6.7502,6.7,6.6677,6.6326,6.5751,6.525,6.5042,6.4422,6.3891,6.368,6.3075,6.263,6.2618,6.2618,6.2646,6.2547,6.2064,6.1796,6.2491,6.1671,6.0577,6.5965,6.5918,6.5988,6.613,6.6314,6.6314,6.6534,6.6871,0.0,0.0,0.0,6.7028,6.7151,6.7274,6.7367,6.7812,6.8414,6.8641,6.9103,6.9699,6.9915,6.9403,6.8333,6.8103,6.7149,6.5609,6.5216,6.483,6.448,6.4267,6.3564,6.2426,6.2319,6.1718,6.0656,6.1718,6.2551,6.305,6.4529,6.5054,6.456,6.5371,6.5811,6.5811,6.5397,6.5174,6.5188,6.5069,6.4634,6.3801,6.3649,6.3018,6.1747,6.0853,6.0261,6.0079,5.949,5.922,5.952,5.9707,5.9709,5.9514,5.939,5.819,5.5445,5.5476,5.6084,5.7247,5.7925,5.8387,5.851,5.947,6.0424,6.1071,6.1656,6.2258,6.3045,6.3367,6.3925,6.5023,6.5167,6.5649,6.6374,6.6394,6.6672,6.6643,6.5963,6.5693,6.6236,6.6615,6.6726,6.6491,6.6781,6.7065,6.66,6.5892,6.5354,6.5416,6.4565,6.3987,6.434,6.4276,6.415,6.3926,6.395,6.3557,6.3647,6.3353,6.3726,6.3743,6.286,6.1995,6.1922,6.1319,6.0363,6.7606,6.7501,6.6732,6.6247,6.5979,6.5979,6.6312,6.6887,6.6799,6.6798,6.6921,6.752,6.8074,6.8643,6.9197,6.9843,7.0354,6.8947,6.8538,6.8861,6.7382,6.6581,6.6413,6.6946,6.6066,6.4215,6.4825,6.4272,6.2624,6.2716,6.2566,6.2114,6.2047,6.1928,6.1768,6.1954,6.1587,6.0761,6.2797,6.3642,6.3148,6.4378,6.5049,6.5067,6.5551,6.5847,6.5847,6.5323,6.4934,6.4784,6.4245,6.3584,6.292,6.2413,6.1876,6.1355,6.188,6.226,6.2348,6.3127,6.3217,6.2324,6.1704,6.024,5.7678,5.8436,5.9175,5.939,5.9963,6.0609,6.115,6.1409,6.184,6.2398,6.2614,6.3181,6.4316,6.3563,6.3807,6.5953,6.4368,6.3696,6.5154,6.4472,6.4101,6.4474,6.4634,6.4458,6.4684,6.5116,6.5205,6.4954,6.492,6.4954,6.5013,6.4775,6.4589,6.4663,6.4437,6.41,6.4261,6.3476,6.2873,6.2729,6.1988,6.1235,6.1064,6.0786,6.1163,6.1262,6.1007,6.0755,6.0844,6.0604,6.0303,6.7993,6.7847,6.7109,6.7155,6.7774,6.7607,6.7499,6.7483,6.7491,6.7589,6.778,6.8586,6.8736,6.8425,6.9806,6.9822,6.8777,6.8745,6.8503,6.8056,6.7195,6.6367,6.5642,6.5413,6.4368,6.2686,6.2534,6.2017,6.1098,6.1217,6.1355,6.1495,6.1502,6.1529,6.1495,6.1189,6.0614,5.9832,6.1863,6.2536,6.1666,6.3021,6.4142,6.4848,6.4542,6.5025,6.6489,6.5504,6.5147,6.5517,6.5248,6.4859,6.4435,6.4075,6.3846,6.3889,6.4333,6.4657,6.4785,6.5402,6.5213,6.4043,6.3656,6.2812,6.1194,6.0948,6.104,6.1365,6.1735,6.1981,6.235,6.3027,6.3595,6.3903,6.3923,6.4067,6.4308,6.3313,6.3083,6.4255,6.3446,6.3178,6.4735,6.411,6.3755,6.4413,6.4114,6.3451,6.2846,6.3126,6.3702,6.4323,6.4498,6.4498,6.4458,6.3823,6.3553,6.3734,6.313,6.2883,6.3037,6.2495,6.2285,6.2184,6.1561,6.1237,6.1163,6.1181,6.1163,6.1163,6.1163,6.1163,6.1181,6.1181,6.0953,6.7548,6.7371,6.6883,6.732,6.827,6.8032,6.7636,6.7219,6.7265,6.7436,6.7742,6.8729,6.8467,6.7542,6.9126,6.8871,6.7382,6.7841,6.7663,6.6821,6.6382,6.5588,6.4505,6.3729,6.2758,6.1584,6.0768,6.036,6.023,6.0334,6.0648,6.1066,6.1092,6.104,6.0883,6.0439,5.9934,5.9545,6.0936,6.1207,6.0237,6.1554,6.284,6.3773,6.3218,6.3822,6.5841,6.5292,6.5167,6.5732,6.5905,6.5877,6.5621,6.5233,6.5277,6.5825,6.5959,6.6197,6.6596,6.6752,6.6374,6.5447,6.5201,6.4881,6.4253,6.3142,6.2707,6.336,6.3674,6.3725,6.3756,6.4198,6.4742,6.4661,6.4305,6.3947,6.3805,6.2794,6.2396,6.2918,6.2737,6.2818,6.3777,6.369,6.3443,6.3664,6.3383,6.2483,6.1587,6.173,6.2585,6.3455,6.3961,6.3859,6.3891,6.3085,6.2588,6.2865,6.2153,6.1877,6.2025,6.2052,6.2022,6.2018,6.2007,6.1906,6.1984,6.1958,6.1932,6.188,6.1853,6.1932,6.1906,6.1906,6.173,6.6251,6.5764,6.5686,6.5352,6.5074,6.5006,6.5,6.4932,6.5162,6.5295,6.5464,6.6512,6.6552,6.5947,6.6679,6.7132,6.713,6.5841,6.5008,6.4551,6.2983,6.2166,6.2191,6.1975,6.1637,6.1184,6.1006,6.0648,6.0256,6.0726,6.104,6.1092,6.1092,6.083,6.036,6.0256,5.996,5.9395,5.9573,5.9338,5.8832,6.0062,6.0859,6.0995,6.2175,6.2889,6.3366,6.4274,6.4899,6.5033,6.5578,6.5951,6.5862,6.5338,6.5293,6.5937,6.6012,6.6387,6.7216,6.6853,6.6549,6.6663,6.6011,6.5693,6.5529,6.4663,6.4554,6.5277,6.6053,6.5932,6.6034,6.4973,6.4234,6.3949,6.2908,6.2192,6.2708,6.2101,6.2292,6.4253,6.2498,6.1869,6.2641,6.2119,6.1468,6.1927,6.2193,6.2174,6.1921,6.1906,6.2022,6.2286,6.2278,6.2344,6.2347,6.2193,6.2114,6.2171,6.2055,6.1932,6.1984,6.201,6.201,6.201,6.201,6.201,6.201,6.201,6.201,6.201,6.201,6.201,6.201,6.201,6.188,6.5717,6.5482,6.5065,6.4767,6.4554,6.4908,6.4869,6.4543,6.4651,6.4259,6.3598,6.4291,6.4693,6.491,6.6395,6.6243,6.4671,6.468,6.4066,6.3031,6.2194,6.1868,6.1841,6.1482,6.124,6.1084,6.0752,6.0439,6.036,6.083,6.1092,6.1092,6.1092,6.0961,6.0726,6.0386,6.0091,5.9882,5.9882,5.9751,5.95,5.9396,5.9777,6.0465,6.0389,6.1131,6.2542,6.2547,6.2745,6.3549,6.3948,6.4502,6.5302,6.5084,6.544,6.6413,6.5969,6.5888,6.6465,6.6227,6.5609,6.4518,6.4958,6.5064,6.4574,6.4164,6.4403,6.5271,6.4714,6.4051,6.3944,6.3567,6.342,6.3481,6.2778,6.2308,6.2698,6.1765,6.1428,6.189,6.1238,6.0979,6.1615,6.1658,6.155,6.1644,6.1861,6.1984,6.201,6.201,6.201,6.201,6.201,6.201,6.201,6.201,6.201,6.201,6.201,6.201,6.201,6.201,6.201,6.201,6.201,6.201,6.201,6.201,6.201,6.201,6.201,6.201,6.201,6.201,6.201,6.452,6.4465,6.3999,6.3816,6.3844,6.4355,6.4282,6.3844,6.3816,6.3218,6.24,6.2713,6.3163,6.3856,6.5334,6.4626,6.2768,6.3481,6.318,6.1831,6.1756,6.1756,6.1704,6.1327,6.1092,6.104,6.0674,6.0465,6.0491,6.0857,6.1092,6.1092,6.1092,6.1013,6.083,6.0386,6.0203,6.0203,6.0203,6.0203,6.0073,5.9393,5.9457,6.0311,5.9492,5.9986,6.1931,6.1435,6.1572,6.2626,6.3046,6.3728,6.4695,6.4776,6.5258,6.6118,6.5611,6.5232,6.5443,6.5443,6.4795,6.3476,6.4176,6.4458,6.3952,6.3588,6.3817,6.4386,6.298,6.2089,6.2936,6.2827,6.2887,6.3167,6.246,6.1957,6.1958,6.1262,6.0822,6.052,6.0849,6.0849,6.1293,6.1697,6.1977,6.1958,6.1984,6.201,6.201,6.201,6.201,6.201,6.201,6.201,6.201,6.201,6.201,6.201,6.201,6.201,6.201,6.201,6.201,6.201,6.201,6.201,6.201,6.201,6.201,6.201,6.201,6.201,6.201,6.201,6.201,6.2145,6.2194,6.2156,6.2227,6.2149,6.2242,6.2205,6.2278,6.2208,6.2085,6.2033,6.2093,6.2108,6.2186,6.2529,6.2246,6.2067,6.219,6.1935,6.1275,6.1222,6.117,6.1144,6.1118,6.1118,6.117,6.1118,6.1066,6.1066,6.1118,6.1092,6.1118,6.1144,6.0857,6.0465,6.036,6.023,6.0334,6.0352,6.0282,6.0256,6.0177,6.018,6.0325,6.0135,6.0166,6.0518,6.1613,6.2294,6.2382,6.3484,6.4306,6.4471,6.4521,6.4584,6.4663,6.4589,6.4521,6.4499,6.4505,6.4341,6.4239,6.4184,6.4414,6.4012,6.3311,6.2952,6.3044,6.1915,6.1999,6.3906,6.3124,6.2547,6.2371,6.1229,6.0577,6.0485,6.1054,6.1077,6.1136,6.145,6.173,6.1913,6.1965,6.201,6.201,6.201,6.201,6.201,6.201,6.201,6.201,6.201,6.201,6.201,6.201,6.201,6.201,6.201,6.201,6.201,6.201,6.201,6.201,6.201,6.201,6.201,6.201,6.201,6.201,6.201,6.201,6.201,6.201,6.201,6.201,6.201,6.201,6.201,6.201,6.201,6.201,6.201,6.201,6.201,6.201,6.201,6.201,6.201,6.201,6.201,6.201,6.201,6.1861,6.1659,6.1678,6.1678,6.1659,6.1659,6.1678,6.1659,6.1659,6.1659,6.1659,6.1678,6.1659,6.1659,6.1685,6.1573,6.1372,6.1319,6.1364,6.1346,6.1364,6.1346,6.1312,6.1364,6.1364,6.1312,6.0595,6.0203,6.0203,6.0722,6.0985,6.0985,6.1506,6.2163,6.3112,6.4002,6.4481,6.4395,6.3667,6.3164,6.3147,6.3147,6.271,6.1924,6.2639,6.2973,6.2418,6.1967,6.1909,6.211,6.1967,6.2216,6.2449,6.1906,6.1288,6.1415,6.1127,6.0909,6.1267,6.1573,6.1659,6.1704,6.1887,6.201,6.201,6.201,6.201,6.201,6.201,6.201,6.201,6.201,6.201,6.201,6.201,6.201,6.201,6.201,6.201,6.201,6.201,6.201,6.201,6.201,6.201,6.201,6.201,6.2063,6.2089,6.2246,6.2193,6.2167,6.2167,6.2272,6.201,6.2246,6.2193,6.201,6.201,6.201,6.201,6.201,6.201,6.201,6.201,6.201,6.201,6.201,6.201,6.201,6.201,6.201,6.201,6.201,6.201,6.201,6.201,6.201,6.201,6.201,6.201,6.201,6.201,6.201,6.201,6.201,6.201,6.201,6.201,6.201,6.201,6.201,6.201,6.201,6.201,6.201,6.201,6.201,6.201,6.201,6.1906,6.1189,6.0778,6.0778,6.0771,6.0771,6.0797,6.0778,6.1248,6.2247,6.3185,6.3688,6.3582,6.2803,6.2265,6.2265,6.2247,6.1858,6.0936,6.1667,6.198,6.1457,6.1398,6.1607,6.1906,6.201,6.201,6.188,6.1278,6.0953,6.1319,6.1398,6.1529,6.1913,6.1984,6.1984,6.1984,6.1984,6.201,6.201,6.201,6.201,6.201,6.201,6.201,6.201,6.201,6.201,6.201,6.201,6.201,6.201,6.201,6.201,6.201,6.201,6.201,6.201,6.201,6.2037,6.201,6.2063,6.2122,6.2227,6.241,6.2462,6.2481,6.2717,6.29,6.2743,6.2619,6.2645,6.201,6.201,6.201,6.201,6.201,6.201,6.201,6.201,6.201,6.201,6.201,6.201,6.201,6.201,6.201,6.201,6.201,6.201,6.201,6.201,6.201,6.201,6.201,6.201,6.201,6.201,6.2037,6.2044,6.207,6.2148,6.2193,6.2089,6.2167,6.2246,6.2089,6.2193,6.2115,6.2167,6.2193,6.2115,6.2037,6.2141,6.2115,6.2037,6.1939,6.1887,6.1932,6.1906,6.1835,6.188,6.1906,6.1984,6.2022,6.2208,6.2119,6.22,6.2044,6.2007,6.2044,6.2048,6.2025,6.182,6.1981,6.2014,6.191,6.1906,6.1939,6.1984,6.201,6.201,6.201,6.1906,6.1853,6.1965,6.1906,6.1913,6.1984,6.201,6.201,6.201,6.201,6.201,6.201,6.201,6.201,6.201,6.201,6.201,6.201,6.201,6.201,6.201,6.201,6.201,6.201,6.201,6.201,6.201,6.201,6.201,6.201,6.201,6.2122,6.2148,6.2507,6.2567,6.2828,6.3011,6.322,6.3273,6.3456,6.343,6.3299,6.3194,6.3351,6.201,6.201,6.201,6.201,6.201,6.201,6.201,6.201,6.201,6.201,6.201,6.201,6.201,6.201,6.201,6.201,6.201,6.201,6.201,6.2037,6.2037,6.2037,6.2037,6.2037,6.201,6.2089,6.2365,6.2548,6.2626,6.2959,6.3168,6.3168,6.3142,6.3168,6.3116,6.3168,6.3168,6.3168,6.3168,6.2966,6.2652,6.2959,6.2802,6.2122,6.2339,6.2391,6.2037,6.201,6.201,6.201,6.201,6.201,6.201,6.201,6.201,6.201,6.201,6.201,6.201,6.201,6.201,6.201,6.201,6.201,6.201,6.201,6.201,6.201,6.201,6.201,6.201,6.201,6.2037,6.201,6.201,6.201,6.201,6.201,6.201,6.201,6.201,6.201,6.201,6.201,6.201,6.201,6.201,6.201,6.201,6.201,6.201,6.201,6.201,6.201,6.201,6.201,6.201,6.201,6.201,6.201,6.201,6.2037,6.2148,6.2469,6.2802,6.3142,6.3403,6.3639,6.3874,6.3822,6.377,6.3743,6.3717,6.3796,6.3979,6.201,6.201,6.201,6.201,6.201,6.201,6.201,6.201,6.201,6.201,6.201,6.201,6.2122,6.2279,6.2305,6.2436,6.2593,6.2619,6.2638,6.2567,6.2358,6.241,6.2593,6.2619,6.2619,6.2671,6.2966,6.3149,6.3175,6.3508,6.3691,6.3691,6.3691,6.3665,6.3691,6.3691,6.3691,6.3691,6.3665,6.3489,6.328,6.3508,6.3351,6.2776,6.2966,6.294,6.2664,6.2619,6.241,6.2089,6.201,6.201,6.201,6.201,6.201,6.201,6.201,6.201,6.201,6.201,6.201,6.201,6.201,6.201,6.201,6.201,6.201,6.201,6.201,6.201,6.2037,6.2227,6.226,6.2287,6.2122,6.2037,6.201,6.201,6.201,6.201,6.201,6.201,6.201,6.201,6.201,6.201,6.201,6.201,6.201,6.201,6.2037,6.2037,6.201,6.201,6.201,6.201,6.201,6.201,6.201,6.201,6.201,6.2037,6.2096,6.2783,6.3201,6.3724,6.4038,6.4325,6.4554,6.4345,6.4214,6.4423,6.458,6.4502,6.4606,6.2089,6.2089,6.2115,6.2193,6.2193,6.2193,6.2246,6.2167,6.2167,6.222,6.2193,6.2272,6.2462,6.279,6.2888,6.3097,6.3587,6.356,6.3587,6.3489,6.3234,6.3156,6.3456,6.3482,6.3482,6.356,6.3665,6.3743,6.3743,6.3881,6.3796,6.3926,6.3979,6.3848,6.3979,6.3848,6.3926,6.3953,6.39,6.3874,6.377,6.3848,6.3743,6.3613,6.3691,6.3691,6.3534,6.3508,6.3116,6.2298,6.2246,6.2272,6.2167,6.2115,6.222,6.2272,6.2141,6.222,6.2167,6.2298,6.2272,6.2272,6.2298,6.207,6.2272,6.2324,6.2324,6.2298,6.2272,6.222,6.2305,6.2574,6.2816,6.279,6.2541,6.2298,6.2167,6.2193,6.2298,6.2227,6.2141,6.2141,6.2272,6.2246,6.2246,6.2246,6.2272,6.2324,6.2324,6.2403,6.2193,6.222,6.235,6.2403,6.2533,6.2332,6.2384,6.2638,6.2533,6.2429,6.2429,6.2436,6.2645,6.3254,6.3731,6.4254,6.4619,6.4874,6.5077,6.4998,6.5077,6.5364,6.5312,6.5103,6.5025,6.2862,6.322,6.3247,6.3247,6.3266,6.3247,6.3247,6.3247,6.324,6.3168,6.322,6.3266,6.3273,6.3456,6.3482,6.356,6.3743,6.3743,6.3933,6.4227,6.4149,6.3881,6.3743,6.3717,6.3743,6.3796,6.4142,6.428,6.4332,6.4665,6.4894,6.4946,6.4868,6.4894,6.4972,6.4894,6.4946,6.4946,6.4946,6.4711,6.4404,6.4717,6.4502,6.3796,6.409,6.409,6.377,6.3691,6.3613,6.3299,6.3247,6.3247,6.3168,6.3168,6.3142,6.3142,6.3194,6.322,6.322,6.3194,6.322,6.3247,6.3142,6.3266,6.3247,6.3247,6.3247,6.3247,6.3266,6.322,6.3266,6.3377,6.3482,6.3437,6.3351,6.322,6.3168,6.3247,6.3247,6.3247,6.3194,6.3168,6.3142,6.3161,6.3161,6.3142,6.3142,6.3116,6.3011,6.3037,6.2959,6.3011,6.309,6.3064,6.2992,6.2764,6.2816,6.3273,6.3273,6.3116,6.3201,6.3332,6.3679,6.4201,6.4482,6.4926,6.5083,6.526,6.5391,6.5417,6.5417,6.5417,6.5417,6.5286,6.526,6.3384,6.3691,6.3691,6.3691,6.3691,6.3691,6.3691,6.3691,6.3691,6.3691,6.3691,6.3691,6.3822,6.4038,6.4038,6.4214,6.4397,6.4423,6.4606,6.4822,6.4855,6.4717,6.4502,6.4423,6.4423,6.4423,6.4717,6.4874,6.4926,6.524,6.5391,6.5364,6.5417,6.5417,6.5338,6.5417,6.5417,6.5391,6.5391,6.5208,6.4953,6.5188,6.5077,6.4554,6.4743,6.4691,6.443,6.4423,6.4214,6.3822,6.3691,6.3691,6.3691,6.3691,6.3691,6.3691,6.3691,6.3691,6.3691,6.3691,6.3691,6.3691,6.3691,6.3691,6.3665,6.3691,6.3691,6.3665,6.3691,6.3691,6.3743,6.3881,6.4162,6.4397,6.4423,6.4214,6.3796,6.3639,6.3691,6.3691,6.3691,6.3691,6.3717,6.3717,6.3717,6.3665,6.3587,6.3613,6.3613,6.3717,6.3743,6.3691,6.3587,6.3508,6.3482,6.3306,6.328,6.3691,6.3979,6.3803,6.3829,6.3992,6.4227,6.4593,6.5083,6.5417,6.5417,6.5417,6.5417,6.5417,6.5417,6.5417,6.5417,6.5417,6.5417,6.3822,6.3874,6.3855,6.3874,6.3926,6.39,6.4005,6.3926,6.3979,6.3979,6.3979,6.3926,6.4247,6.4619,6.4619,6.4874,6.5338,6.5234,6.5286,6.5338,6.5338,6.526,6.5234,6.5181,6.5208,6.5234,6.5364,6.5364,6.5312,6.5391,6.5417,6.5417,6.5417,6.5417,6.5417,6.5417,6.5417,6.5417,6.5417,6.5391,6.5312,6.5364,6.5312,6.526,6.5234,6.5312,6.526,6.526,6.4894,6.3926,6.3893,6.3979,6.3953,6.3926,6.3926,6.4005,6.4057,6.4031,6.3926,6.4031,6.3953,6.4005,6.3979,6.3874,6.4005,6.4057,6.4083,6.4083,6.39,6.4031,6.4083,6.4378,6.4743,6.5103,6.5286,6.4868,6.4188,6.3874,6.3874,6.3874,6.39,6.3874,6.3874,6.3874,6.3926,6.4319,6.4266,6.4266,6.4292,6.4319,6.4266,6.4162,6.4031,6.3855,6.3874,6.3855,6.3926,6.4109,6.4456,6.4508,6.4325,6.443,6.4541,6.4828,6.5214,6.5391,6.5417,6.5417,6.5417,6.5417,6.5417,6.5417,6.5417,6.5417,6.5417,6.4593,6.5051,6.5025,6.5025,6.5051,6.5051,6.5025,6.4998,6.4998,6.4946,6.4998,6.4998,6.5077,6.5162,6.5162,6.5312,6.5391,6.5417,6.5417,6.5417,6.5417,6.5417,6.5417,6.5417,6.5417,6.5417,6.5417,6.5417,6.5417,6.5417,6.5417,6.5417,6.5417,6.5417,6.5417,6.5417,6.5417,6.5417,6.5417,6.5417,6.5417,6.5417,6.5417,6.5417,6.5417,6.5417,6.5417,6.5417,6.5286,6.5103,6.4972,6.4894,6.4894,6.4946,6.492,6.492,6.4946,6.4998,6.4998,6.4946,6.5025,6.492,6.4868,6.5025,6.5025,6.4972,6.4998,6.5025,6.5025,6.492,6.492,6.5083,6.5214,6.5364,6.5391,6.5312,6.5077,6.4998,6.4946,6.4946,6.4946,6.5025,6.4979,6.492,6.492,6.4998,6.4972,6.4998,6.4946,6.4868,6.4789,6.4658,6.4508,6.4404,6.4528,6.4502,6.4502,6.4554,6.4822,6.5031,6.4848,6.4822,6.4953,6.5083,6.5292,6.5391,6.5417,6.5417,6.5417,6.5417,6.5417,6.5417,6.5417,6.5417,6.5417,6.5109,6.5391,6.5417,6.5417,6.5417,6.5417,6.5417,6.5417,6.5417,6.5417,6.5417,6.5417,6.5417,6.5417,6.5417,6.5391,6.5417,6.5417,6.5417,6.5417,6.5417,6.5417,6.5417,6.5417,6.5417,6.5417,6.5417,6.5417,6.5417,6.5417,6.5417,6.5417,6.5417,6.5417,6.5417,6.5417,6.5417,6.5417,6.5417,6.5417,6.5417,6.5417,6.5417,6.5417,6.5417,6.5417,6.5417,6.5417,6.5417,6.5417,6.5417,6.5417,6.5417,6.5417,6.5417,6.5417,6.5417,6.5417,6.5391,6.5417,6.5364,6.5417,6.5417,6.5417,6.5417,6.5417,6.5417,6.5417,6.5391,6.5391,6.5417,6.5391,6.5417,6.5417,6.5417,6.5417,6.5417,6.5417,6.5417,6.5417,6.5338,6.5338,6.5391,6.5417,6.5391,6.5181,6.5181,6.5208,6.5234,6.5181,6.5234,6.5155,6.5031,6.5005,6.5155,6.5155,6.5031,6.5077,6.5181,6.5266,6.5208,6.526,6.5338,6.5391,6.5391,6.5391,6.5417,6.5417,6.5417,6.5417,6.5417,6.5417,6.5417,6.5417,6.5417,6.5417,6.5417,6.5417,6.5417,6.5417,6.5417,6.5417,6.5417,6.5417,6.5417,6.5417,6.5417,6.5417,6.5417,6.5417,6.5417,6.5417,6.5417,6.5417,6.5417,6.5417,6.5417,6.5417,6.5417,6.5417,6.5417,6.5417,6.5417,6.5417,6.5417,6.5417,6.5417,6.5417,6.5417,6.5417,6.5417,6.5417,6.5417,6.5417,6.5417,6.5417,6.5417,6.5417,6.5417,6.5417,6.5417,6.5417,6.5417,6.5417,6.5417,6.5417,6.5417,6.5417,6.5417,6.5417,6.5417,6.5417,6.5417,6.5417,6.5417,6.5417,6.5417,6.5417,6.5417,6.5417,6.5417,6.5417,6.5417,6.5417,6.5417,6.5417,6.5417,6.5417,6.5417,6.5417,6.5417,6.5417,6.5417,6.5417,6.5417,6.5417,6.5417,6.5417,6.5417,6.5417,6.5417,6.5417,6.5417,6.5417,6.5417,6.5417,6.5417,6.524,6.5188,6.5312,6.5364,6.5312,6.5338,6.5417,6.5417,6.5417,6.5417,6.5417,6.5417,6.5391,6.5417,6.5417,6.5417,6.5417,6.5417,6.5417,6.5417,6.5417,6.5417,6.5417,6.5417,6.5417,6.5417,6.5417,6.5417,6.5417,6.5417,6.5417,6.5417,6.5417,6.5417,6.5417,6.5417,6.5417,6.5417,6.5417,6.5417,6.5417,6.5417,6.5417,6.5417,6.5417,6.5417,6.5417,6.5417,6.5417,6.5417,6.5417,6.5417,6.5417,6.5417,6.5417,6.5417,6.5417,6.5417,6.5417,6.5417,6.5417,6.5417,6.5417,6.5417,6.5417,6.5417,6.5417,6.5417,6.5417,6.5417,6.5417,6.5417,6.5417,6.5417,6.5417,6.5417,6.5417,6.5417,6.5417,6.5417,6.5417,6.5417,6.5417,6.5417,6.5417,6.5417,6.5417,6.5417,6.5417,6.5417,6.5417,6.5417,6.5417,6.5417,6.5417,6.5417,6.5417,6.5417,6.5417,6.5417,6.5417,6.5417,6.5417,6.5417,6.5417,6.5417,6.5417,6.5417,6.5417,6.5417,6.5417,6.5417,6.5417,6.5417,6.5417,6.5391,6.5364,6.5391,6.5391,6.5364,6.5364,6.5417,6.5417,6.5417,6.5417,6.5417,6.5417,6.5417,6.5417,6.5417,6.5417,6.5417,6.5417,6.5417,6.5417,6.5417,6.5417,6.5417,6.5417,6.5417,6.5417,6.5417,6.5417,6.5417,6.5417,6.5417,6.5417,6.5417,6.5417,6.5417,6.5417,6.5417,6.5417,6.5417,6.5417,6.5417,6.5417,6.5417,6.5417,6.5417,6.5417,6.5417,6.5417,6.5417,6.5417,6.5417,6.5417,6.5417,6.5417,6.5417,6.5417,6.5417,6.5417,6.5417,6.5417,6.5417,6.5417,6.5417,6.5417,6.5417,6.5417,6.5417,6.5417,6.5417,6.5417,6.5417,6.5417,6.5417,6.5417,6.5417,6.5417,6.5417,6.5417,6.5417,6.5417,6.5417,6.5417,6.5417,6.5417,6.5417,6.5417,6.5417,6.5417,6.5417,6.5417,6.5417,6.5417,6.5417,6.5417,6.5417,6.5417,6.5417,6.5417,6.5417,6.5417,6.5417,6.5417,6.5417,6.5417,6.5417,6.5417,6.5417,6.5417,6.5417,6.5417,6.5417,6.5417,6.5417,6.5417,6.5417,6.5417,6.5417,6.5417,6.5417,6.5417,6.5417,6.5417,6.5417,6.5417,6.5417,6.5417,6.5417,6.5417,6.5417,6.5417,6.5417,6.5417,6.5417,6.5417,6.5417,6.5417,6.5417,6.5417,6.5417,6.5417,6.5417,6.5417,6.5417,6.5417,6.5417,6.5417,6.5417,6.5417,6.5417,6.5417,6.5417,6.5417,6.5417,6.5417,6.5417,6.5417,6.5417,6.5417,6.5417,6.5417,6.5417,6.5417,6.5417,6.5417,6.5417,6.5417,6.5417,6.5417,6.5417,6.5417,6.5417,6.5417,6.5417,6.5417,6.5417,6.5417,6.5417,6.5417,6.5417,6.5417,6.5417,6.5417,6.5417,6.5417,6.5417,6.5417,6.5417,6.5417,6.5417,6.5417,6.5417,6.5417,6.5417,6.5417,6.5417,6.5417,6.5417,6.5417,6.5417,6.5417,6.5417,6.5417,6.5417,6.5417,6.5417,6.5417,6.5417,6.5417,6.5417,6.5417,6.5417,6.5417,6.5417,6.5417,6.5417,6.5417,6.5417,6.5417,6.5417,6.5417,6.5417,6.5417,6.5417,6.5417,6.5417,6.5417,6.5417,6.5417,6.5417,6.5417,6.5417,6.5417,6.5417,6.5417,6.5417,6.5417,6.5417,6.5417,6.5417,6.5417,6.5417,6.5417,6.5417,6.5417,6.5417,6.5417,6.5417,6.5417,6.5417,6.5417,6.5417,6.5417,6.5417,6.5417,6.5417,6.5417,6.5417,6.5417,6.5417,6.5417,6.5417,6.5417,6.5417,6.5417,6.5417,6.5417,6.5417,6.5417,6.5417,6.5417,6.5417,6.5417,6.5417,6.5417,6.5417,6.5417,6.5417,6.5417,6.5417,6.5417,6.5417,6.5417,6.5417,6.5417,6.5417,6.5417,6.5417,6.5417,6.5417,6.5417,6.5417,6.5417,6.5417,6.5417,6.5417,6.5417,6.5417,6.5417,6.5417,6.5417,6.5417,6.5417,6.5417,6.5417,6.5417,6.5417,6.5417,6.5417,6.5417,6.5417,6.5417,6.5417,6.5417,6.5417,6.5417,6.5417,6.5417,6.5417,6.5417,6.5417,6.5417,6.5417,6.5417,6.5417,6.5417,6.5417,6.5417,6.5417,6.5417,6.5417,6.5417,6.5417,6.5417,6.5417,6.5417,6.5417,6.5417,6.5417,6.5417,6.5417,6.5417,6.5417,6.5417,6.5417,6.5417,6.5417,6.5417,6.5417,6.5417,6.5417,6.5417,6.5417,6.5417,6.5417,6.5417,6.5417,6.5417,6.5417,6.5417,6.5417,6.5417,6.5417,6.5417,6.5417,6.5417,6.5417,6.5417,6.5417,6.5417,6.5417,6.5417,6.5417,6.5417,6.5417,6.5417,6.5417,6.5417,6.5417,6.5417,6.5417,6.5417,6.5417,6.5417,6.5417,6.5417,6.5417,6.5417,6.5417,6.5417,6.5417,6.5417,6.5417,6.5417,6.5417,6.5417,6.5417,6.5417,6.5417,6.5417,6.5417,6.5417,6.5417,6.5417,6.5417,6.5417,6.5417,6.5417,6.5417,6.5417,6.5417,6.5417,6.5417,6.5417,6.5417,6.5417,6.5417,6.5417,6.5417,6.5417,6.5417,6.5417,6.5417,6.5417,6.5417,6.5417,6.5417,6.5417,6.5417,6.5417,6.5417,6.5417,6.5417,6.5417,6.5417,6.5417,6.5417,6.5417,6.5417,6.5417,6.5417,6.5417,6.5417,6.5417,6.5417,6.5417,6.5417,6.5417,6.5417,6.5417,6.5417,6.5417,6.5417,6.5417,6.5417,6.5417,6.5417,6.5417,6.5417,6.5417,6.5417,6.5417,6.5417,6.5417,6.5417,6.5417,6.5417,6.5417,6.5417,6.5417,6.5417,6.5417,6.5417,6.5417,6.5417,6.5417,6.5417,6.5417,6.5417,6.5417,6.5417,6.5417,6.5417,6.5417,6.5417,6.5417,6.5417,6.5417,6.5417,6.5417,6.5417,6.5417,6.5417,6.5417,6.5417,6.5417,6.5417,6.5417,6.5417,6.5417,6.5417,6.5417,6.5417,6.5417,6.5417,6.5417,6.5417,6.5417,6.5417,6.5417,6.5417,6.5417,6.5417,6.5417,6.5417,6.5417,6.5417,6.5417,6.5417,6.5417,6.5417,6.5417,6.5417,6.5417,6.5417,6.5417,6.5417,6.5417,6.5417,6.5417,6.5417,6.5417,6.5417,6.5417,6.5417,6.5417,6.5417,6.5417,6.5417,6.5417,6.5417,6.5417,6.5417,6.5417,6.5417,6.5417,6.5417,6.5417,6.5417,6.5417,6.5417,6.5417,6.5417,6.5417,6.5417,6.5417,6.5417,6.5417,6.5417,6.5417,6.5417,6.5417,6.5417,6.5417,6.5417,6.5417,6.5417,6.5417,6.5417,6.5417,6.5417,6.5417,6.5417,6.5417,6.5417,6.5417,6.5417,6.5417,6.5417,6.5417,6.5417,6.5417,6.5417,6.5417,6.5417,6.5417,6.5417,6.5417,6.5417,6.5417,6.5417,6.5417,6.5417,6.5417,6.5417,6.5417,6.5417,6.5397,6.5417,6.5417,6.5417,6.5417,6.5417,6.5417,6.5417,6.5417,6.5417,6.5417,6.5417,6.5417,6.5417,6.5417,6.5417,6.5417,6.5417,6.5417,6.5417,6.5417,6.5417,6.5417,6.5417,6.5417,6.5417,6.5417,6.5417,6.5417,6.5417,6.5417,6.5417,6.5417,6.5417,6.5417,6.5417,6.5417,6.5417,6.5417,6.5417,6.5417,6.5417,6.5417,6.5417,6.5417,6.5417,6.5417,6.5417,6.5417,6.5417,6.5417,6.5417,6.5417,6.5417,6.5417,6.5417,6.5417,6.5417,6.5417,6.5417,6.5417,6.5417,6.5417,6.5417,6.5417,6.5417,6.5417,6.5417,6.5417,6.5417,6.5417,6.5417,6.5417,6.5417,6.5417,6.5417,6.5417,6.5417,6.5417,6.5417,6.5417,6.5417,6.5417,6.5417,6.5417,6.5417,6.5417,6.5417,6.5417,6.5417,6.5417,6.5417,6.5417,6.5417,6.5417,6.5417,6.5417,6.5417,6.5417,6.5417,6.5417,6.5417,6.5417,6.5417,6.5417,6.5417,6.5417,6.5417,6.5417,6.5417,6.5417,6.5417,6.5417,6.5417,6.5357,6.5298,6.5357,6.5417,6.5417,6.5417,6.5417,6.5417,6.5417,6.5417,6.5417,6.5417,6.5417,6.5417,6.5417,6.5417,6.5417,6.5417,6.5417,6.5417,6.5417,6.5417,6.5417,6.5417,6.5417,6.5417,6.5417,6.5417,6.5417,6.5417,6.5417,6.5417,6.5417,6.5417,6.5417,6.5417,6.5417,6.5417,6.5417,6.5417,6.5417,6.5417,6.5417,6.5417,6.5417,6.5417,6.5417,6.5417,6.5417,6.5417,6.5417,6.5417,6.5417,6.5417,6.5417,6.5417,6.5417,6.5417,6.5417,6.5417,6.5417,6.5417,6.5417,6.5417,6.5417,6.5417,6.5417,6.5417,6.5417,6.5417,6.5417,6.5417,6.5417,6.5417,6.5417,6.5417,6.5417,6.5417,6.5417,6.5417,6.5417,6.5417,6.5417,6.5417,6.5417,6.5417,6.5417,6.5417,6.5417,6.5417,6.5417,6.5417,6.5417,6.5417,6.5417,6.5417,6.5417,6.5417,6.5417,6.5417,6.5417,6.5417,6.5417,6.5417,6.5417,6.5417,6.5417,6.5495,6.56,6.56,6.5469,6.5417,6.5417,6.5417,6.5417,6.5337,6.5238,6.5298,6.5417,6.5417,6.5417,6.5417,6.5417,6.5417,6.5417,6.5417,6.5417,6.5417,6.5417,6.5417,6.5417,6.5417,6.5417,6.5417,6.5417,6.5417,6.5417,6.5417,6.5417,6.5417,6.5417,6.5417,6.5417,6.5417,6.5417,6.5417,6.5417,6.5417,6.5417,6.5417,6.5417,6.5417,6.5417,6.5417,6.5417,6.5417,6.5417,6.5417,6.5417,6.5417,6.5417,6.5417,6.5417,6.5417,6.5417,6.5417,6.5417,6.5417,6.5417,6.5417,6.5417,6.5417,6.5417,6.5417,6.5417,6.5417,6.5417,6.5417,6.5417,6.5417,6.5417,6.5417,6.5417,6.5417,6.5417,6.5417,6.5417,6.5417,6.5417,6.5417,6.5417,6.5417,6.5417,6.5417,6.5417,6.5417,6.5417,6.5417,6.5417,6.5417,6.5443,6.5443,6.5495,6.5469,6.5417,6.5417,6.5417,6.5417,6.5417,6.5417,6.5417,6.5417,6.5417,6.5469,6.5495,6.5417,6.5417,6.5417,6.5417,6.5495,6.5652,6.5809,6.5887,6.5887,6.5972,6.6129,6.5835,6.5469,6.5495,6.5547,6.5371,6.5292,6.5298,6.5417,6.5417,6.5417,6.5443,6.5469,6.5417,6.5417,6.5521,6.5547,6.5547,6.56,6.5574,6.5547,6.5574,6.5678,6.5704,6.5652,6.5547,6.5495,6.5547,6.5443,6.5417,6.5417,6.5417,6.5417,6.5417,6.5417,6.5417,6.5417,6.5417,6.5417,6.5417,6.5417,6.5417,6.5417,6.5417,6.5417,6.5417,6.5417,6.5417,6.5417,6.5417,6.5417,6.5417,6.5417,6.5417,6.5417,6.5417,6.5417,6.5417,6.5417,6.5417,6.5417,6.5417,6.5417,6.5417,6.5417,6.5417,6.5443,6.5417,6.5469,6.5417,6.5417,6.5417,6.5417,6.5417,6.5417,6.5417,6.5495,6.5475,6.5469,6.5495,6.56,6.5652,6.5704,6.5711,6.5763,6.5809,6.5887,6.594,6.5652,6.5469,6.5469,6.5495,6.5574,6.5547,6.5443,6.5443,6.5521,6.573,6.5835,6.5887,6.5913,6.5913,6.5913,6.5652,6.5574,6.5469,6.5574,6.5783,6.5913,6.607,6.6201,6.6286,6.6384,6.6489,6.673,6.6997,6.6394,6.5798,6.5717,6.5678,6.5501,6.5428,6.5517,6.5417,6.5443,6.5835,6.5992,6.592,6.5528,6.5626,6.6018,6.6358,6.6515,6.6541,6.6541,6.6541,6.6541,6.6489,6.6442,6.6436,6.607,6.5992,6.5966,6.5678,6.5443,6.5443,6.5547,6.5469,6.5417,6.5417,6.5443,6.5417,6.5417,6.5417,6.5417,6.5417,6.5417,6.5417,6.5417,6.5417,6.5417,6.5417,6.5417,6.5417,6.5417,6.5417,6.5417,6.5417,6.5417,6.5417,6.5417,6.5417,6.5417,6.5417,6.5443,6.5443,6.5469,6.5469,6.5443,6.5443,6.5626,6.5835,6.5992,6.5783,6.5626,6.5521,6.5521,6.5417,6.5417,6.5417,6.5547,6.5835,6.594,6.6018,6.6384,6.6567,6.6599,6.6652,6.6625,6.6652,6.6625,6.6652,6.6698,6.6541,6.6416,6.639,6.6201,6.6175,6.6181,6.6155,6.6044,6.607,6.6436,6.6672,6.6652,6.6678,6.6599,6.6495,6.6259,6.6227,6.628,6.6436,6.6625,6.6704,6.6551,6.6635,6.6632,6.6884,6.7116,6.7116,6.703,6.6611,6.6201,6.6224,6.6189,6.6111,6.6013,6.5977,6.5704,6.5783,6.6332,6.6593,6.6515,6.6149,6.6253,6.6593,6.6959,6.7116,6.709,6.709,6.709,6.709,6.7116,6.7116,6.7064,6.6776,6.6593,6.6541,6.6227,6.6129,6.605,6.594,6.5966,6.5783,6.5678,6.5678,6.5417,6.5417,6.5417,6.5417,6.5417,6.5417,6.5417,6.5417,6.5417,6.5417,6.5417,6.5417,6.5417,6.5417,6.5417,6.5417,6.5417,6.5417,6.5417,6.5417,6.5417,6.5443,6.5443,6.5547,6.5626,6.573,6.5789,6.5913,6.6044,6.6227,6.6489,6.6593,6.639,6.6155,6.5998,6.5998,6.5972,6.6123,6.6076,6.6181,6.6384,6.6515,6.6652,6.707,6.7148,6.72,6.7174,6.7148,6.7122,6.7096,6.7096,6.7168,6.72,6.72,6.718,6.7044,6.6861,6.6913,6.6965,6.6808,6.6672,6.6985,6.7273,6.7227,6.7174,6.7017,6.6965,6.6887,6.6933,6.709,6.7113,6.709,6.6833,6.6586,6.6803,6.6985,6.7136,6.723,6.7178,6.7018,6.6821,6.6826,6.6935,6.6872,6.6731,6.648,6.6254,6.6332,6.641,6.6907,6.7122,6.7122,6.7122,6.7148,6.7142,6.7174,6.7247,6.7221,6.7305,6.7357,6.7273,6.7247,6.7299,6.7299,6.72,6.7168,6.709,6.6907,6.6939,6.6913,6.6887,6.6593,6.639,6.628,6.6097,6.5574,6.573,6.5704,6.5626,6.5757,6.5757,6.5757,6.573,6.5626,6.5495,6.5417,6.5417,6.5417,6.5417,6.5495,6.5547,6.56,6.5652,6.5704,6.573,6.5678,6.5626,6.56,6.5887,6.6123,6.6332,6.6672,6.6887,6.6985,6.6965,6.7096,6.7122,6.7232,6.7128,6.716,6.7154,6.6939,6.6756,6.6724,6.6808,6.6985,6.707,6.7206,6.7285,6.7383,6.7383,6.7383,6.7383,6.7357,6.7357,6.7357,6.741,6.7436,6.7462,6.7514,6.7462,6.7546,6.7624,6.7677,6.7645,6.7514,6.7383,6.7619,6.7592,6.7467,6.7337,6.7337,6.7494,6.7449,6.7544,6.7203,6.7084,6.6801,6.6713,6.6966,6.7161,6.7312,6.7347,6.733,6.7319,6.7288,6.7288,6.7083,6.705,6.6789,6.6438,6.621,6.6881,6.6933,6.7488,6.7749,6.7822,6.8147,6.8095,6.7822,6.8121,6.8304,6.8283,6.8283,6.8199,6.8304,6.8309,6.8278,6.8121,6.7958,6.7775,6.7665,6.7436,6.72,6.7148,6.72,6.6991,6.6913,6.6855,6.675,6.6646,6.6567,6.6521,6.6646,6.6442,6.6495,6.6495,6.6573,6.6097,6.5704,6.5574,6.5574,6.5547,6.5547,6.573,6.594,6.6044,6.6175,6.6384,6.6489,6.6489,6.6541,6.6593,6.6776,6.6802,6.6881,6.7038,6.7064,6.7142,6.7227,6.7619,6.7723,6.7833,6.81,6.8205,6.7729,6.741,6.7221,6.7247,6.7383,6.7592,6.7697,6.7807,6.7886,6.7964,6.8016,6.8016,6.799,6.799,6.799,6.799,6.799,6.8016,6.799,6.8042,6.8121,6.8205,6.8309,6.8335,6.8262,6.8231,6.8074,6.8016,6.799,6.8016,6.7917,6.8106,6.8314,6.8133,6.7967,6.7489,6.7182,6.7097,6.7078,6.719,6.7187,6.712,6.7277,6.7463,6.7349,6.701,6.6861,6.6708,6.6798,6.6793,6.6437,6.6335,6.7456,6.7514,6.8089,6.8304,6.8356,6.8649,6.8617,6.8408,6.8675,6.8785,6.8785,6.8758,6.8785,6.8753,6.8706,6.8727,6.8701,6.846,6.8304,6.8199,6.7886,6.7912,6.7781,6.7703,6.7671,6.7566,6.7383,6.7279,6.7227,6.7122,6.707,6.7038,6.7122,6.7122,6.7044,6.6959,6.6724,6.6358,6.6149,6.6076,6.6024,6.6044,6.6332,6.6515,6.6619,6.6855,6.709,6.7168,6.7142,6.7116,6.7116,6.7247,6.741,6.7619,6.7781,6.7859,6.7886,6.8016,6.8251,6.8304,6.8492,6.8701,6.8785,6.844,6.8147,6.7938,6.7912,6.7964,6.8168,6.835,6.846,6.8591,6.8649,6.8732,6.8732,6.8732,6.8732,6.8732,6.8732,6.8706,6.8706,6.868,6.8732,6.8785,6.8738,6.8612,6.8435,6.8289,6.8388,6.8461,6.845,6.8492,6.857,6.8602,6.8743,6.8597,6.8262,6.787,6.7445,6.7208,6.7265,6.7005,6.6759,6.6763,6.6835,6.6946,6.6988,6.6775,6.6498,6.6412,6.639,6.6439,6.6517,6.6402,6.6419,6.8063,6.8089,6.857,6.8753,6.8785,6.8805,6.8779,6.8785,6.8805,6.8785,6.8785,6.8785,6.8785,6.8785,6.8785,6.8785,6.8805,6.8701,6.8649,6.8779,6.8596,6.8518,6.8544,6.8727,6.833,6.8141,6.8011,6.788,6.7462,6.7441,6.752,6.7247,6.7357,6.7488,6.754,6.7514,6.7436,6.7337,6.718,6.7128,6.6991,6.7017,6.7142,6.7168,6.7195,6.7247,6.7279,6.7279,6.7227,6.7273,6.7357,6.7645,6.8011,6.8382,6.8596,6.8649,6.8544,6.857,6.8623,6.8649,6.8701,6.8758,6.8785,6.8701,6.8518,6.844,6.8387,6.8387,6.8565,6.8591,6.8649,6.8675,6.8753,6.8785,6.8785,6.8785,6.8785,6.8764,6.8701,6.868,6.8576,6.8555,6.8366,6.8324,6.8256,6.8429,6.8387,6.8156,6.8198,6.8387,6.845,6.8513,6.8471,6.8387,6.8366,6.8219,6.8072,6.7756,6.729,6.6946,6.6775,6.6498,6.6155,6.6305,6.6498,6.6348,6.6283,6.6219,6.6262,6.6219,6.6197,6.6133,6.6155,6.6219,6.6283,6.8596,6.8617,6.8753,6.8785,6.8785,6.8785,6.8785,6.8785,6.8785,6.8785,6.8785,6.8785,6.8785,6.8785,6.8785,6.8785,6.8785,6.8785,6.8785,6.8785,6.8785,6.8785,6.8785,6.8785,6.8675,6.8675,6.8591,6.846,6.8257,6.8257,6.8335,6.8335,6.8283,6.8225,6.8225,6.8205,6.8205,6.8178,6.8152,6.7807,6.7357,6.7253,6.7247,6.7587,6.7796,6.7964,6.8095,6.8309,6.8335,6.8387,6.8408,6.8513,6.8596,6.8753,6.8805,6.8785,6.8785,6.8785,6.8785,6.8785,6.8785,6.8785,6.8785,6.8785,6.8758,6.8785,6.8785,6.8785,6.8785,6.8785,6.8785,6.8785,6.8785,6.8785,6.8743,6.8743,6.8743,6.8659,6.8576,6.8471,6.8392,6.8198,6.7988,6.7857,6.7815,6.7772,6.7751,6.7646,6.7625,6.773,6.7667,6.773,6.7794,6.7772,6.7861,6.7798,6.765,6.7396,6.6946,6.6626,6.6348,6.6219,6.6112,6.6112,6.6155,6.6112,6.6112,6.6112,6.6133,6.6112,6.6112,6.6112,6.6112,6.6155,6.6133,6.8785,6.8785,6.8785,6.8785,6.8785,6.8785,6.8785,6.8785,6.8785,6.8785,6.8785,6.8785,6.8785,6.8785,6.8785,6.8785,6.8785,6.8785,6.8785,6.8785,6.8785,6.8785,6.8785,6.8785,6.8758,6.8805,6.8805,6.8758,6.8785,6.8758,6.8732,6.8785,6.8785,6.8785,6.8785,6.8785,6.8785,6.8758,6.8785,6.8387,6.7802,6.7859,6.7964,6.8324,6.8408,6.857,6.8623,6.8785,6.8785,6.8758,6.8727,6.8727,6.8753,6.8779,6.8785,6.8785,6.8785,6.8785,6.8764,6.8743,6.8722,6.8722,6.8764,6.8764,6.8785,6.8785,6.8785,6.8785,6.8785,6.8785,6.8785,6.8785,6.8785,6.8785,6.8534,6.8366,6.8219,6.8025,6.7983,6.7946,6.7883,6.7861,6.7688,6.7667,6.7603,6.754,6.7434,6.7201,6.718,6.7116,6.7031,6.7052,6.718,6.7413,6.7603,6.7434,6.7137,6.6882,6.6626,6.6433,6.6219,6.6155,6.6112,6.6112,6.6112,6.6112,6.6112,6.6112,6.6112,6.6112,6.6112,6.6112,6.6112,6.6112,6.6112,6.8785,6.8785,6.8785,6.8785,6.8785,6.8785,6.8785,6.8785,6.8785,6.8785,6.8785,6.8785,6.8785,6.8785,6.8785,6.8785,6.8785,6.8785,6.8785,6.8785,6.8785,6.8785,6.8785,6.8785,6.8785,6.8785,6.8785,6.8785,6.8785,6.8785,6.8785,6.8785,6.8785,6.8785,6.8785,6.8785,6.8785,6.8785,6.8785,6.8785,6.8732,6.8785,6.8727,6.8753,6.8785,6.8785,6.8785,6.8785,6.8785,6.8743,6.8701,6.8638,6.8555,6.8513,6.8445,6.8445,6.8429,6.845,6.8513,6.845,6.8513,6.8555,6.8638,6.8638,6.8617,6.8617,6.8597,6.8617,6.8617,6.868,6.868,6.8597,6.8597,6.8555,6.8219,6.7967,6.7756,6.754,6.7498,6.7455,6.7413,6.7413,6.7307,6.7307,6.7286,6.7243,6.7116,6.6856,6.669,6.6626,6.654,6.6604,6.6754,6.701,6.7201,6.7073,6.6711,6.6583,6.639,6.6219,6.6112,6.6112,6.6112,6.6112,6.6112,6.6112,6.6112,6.6112,6.6112,6.6112,6.6112,6.6112,6.6112,6.6112,6.6112,6.8785,6.8785,6.8785,6.8811,6.8811,6.8811,6.8785,6.8785,6.8811,6.8785,6.891,6.8811,6.8785,6.8811,6.8785,6.8785,6.8785,6.8785,6.8785,6.8785,6.8785,6.8785,6.891,6.9093,6.8858,6.891,6.8988,6.8837,6.9145,6.9014,6.8837,6.891,6.8837,6.8832,6.8832,6.8832,6.8785,6.8805,6.8884,6.891,6.8884,6.8837,6.8785,6.8785,6.8785,6.8785,6.8785,6.8785,6.8785,6.8701,6.8539,6.8413,6.8261,6.8093,6.7941,6.7962,6.7941,6.792,6.7941,6.7941,6.7983,6.7941,6.7962,6.792,6.7899,6.7899,6.7899,6.792,6.8009,6.8198,6.8198,6.7967,6.7878,6.7815,6.7603,6.754,6.7413,6.7307,6.7265,6.7095,6.6946,6.6775,6.654,6.654,6.654,6.6519,6.654,6.6348,6.6369,6.6219,6.6112,6.624,6.639,6.6283,6.6369,6.6519,6.6326,6.624,6.6197,6.6133,6.6112,6.6112,6.6112,6.6112,6.6112,6.6112,6.6112,6.6112,6.6112,6.6112,6.6112,6.6112,6.6112,6.6112,6.6112]},{"header":{"parameterUnit":"m.s-1","parameterCategory":1,"la1":31.0,"la2":29.5877,"lo1":-88.7671,"lo2":-86.6584,"dx":0.0162,"dy":0.0185,"nx":115,"ny":88,"refTime":"2022-11-17T06:00:00:Z","depth":0,"parameterNumber":3,"parameterNumberName":"V-component_of_WINDS"},"data":[0.0,0.0,0.0,0.0,0.0,0.0,0.0,0.0,0.0,0.0,0.0,0.0,0.0,0.0,0.0,0.0,0.0,0.0,0.0,0.0,0.0,0.0,0.0,0.0,0.0,0.0,0.0,0.0,0.0,0.0,0.0,0.0,0.0,0.0,0.0,0.0,0.0,0.0,0.0,0.0,0.0,0.0,0.0,0.0,0.0,0.0,0.0,0.0,0.0,0.0,0.0,0.0,0.0,0.0,0.0,0.0,0.0,0.0,0.0,0.0,0.0,0.0,0.0,0.0,0.0,0.0,0.0,0.0,0.0,0.0,0.0,0.0,0.0,0.0,0.0,0.0,0.0,0.0,0.0,0.0,0.0,0.0,0.0,0.0,0.0,0.0,0.0,0.0,0.0,0.0,0.0,0.0,0.0,0.0,0.0,0.0,0.0,0.0,0.0,0.0,0.0,0.0,0.0,0.0,0.0,0.0,0.0,0.0,0.0,0.0,0.0,0.0,0.0,0.0,0.0,0.0,0.0,0.0,0.0,0.0,0.0,0.0,0.0,0.0,0.0,0.0,0.0,0.0,0.0,0.0,0.0,0.0,0.0,0.0,0.0,0.0,0.0,0.0,0.0,0.0,0.0,0.0,0.0,0.0,0.0,0.0,0.0,0.0,0.0,0.0,0.0,0.0,0.0,0.0,0.0,0.0,0.0,0.0,0.0,0.0,0.0,0.0,0.0,0.0,0.0,0.0,0.0,0.0,0.0,0.0,0.0,0.0,0.0,0.0,0.0,0.0,0.0,0.0,0.0,0.0,0.0,0.0,0.0,0.0,0.0,0.0,0.0,0.0,0.0,0.0,0.0,0.0,0.0,0.0,0.0,0.0,0.0,0.0,0.0,0.0,0.0,0.0,0.0,0.0,0.0,0.0,0.0,0.0,0.0,0.0,0.0,0.0,0.0,0.0,0.0,0.0,0.0,0.0,0.0,0.0,0.0,0.0,0.0,0.0,0.0,0.0,0.0,0.0,0.0,0.0,0.0,0.0,0.0,0.0,0.0,0.0,0.0,0.0,0.0,0.0,0.0,0.0,0.0,0.0,0.0,0.0,0.0,0.0,0.0,0.0,0.0,0.0,0.0,0.0,0.0,0.0,0.0,0.0,0.0,0.0,0.0,0.0,0.0,0.0,0.0,0.0,0.0,0.0,0.0,0.0,0.0,0.0,0.0,0.0,0.0,0.0,0.0,0.0,0.0,0.0,0.0,0.0,0.0,0.0,0.0,0.0,0.0,0.0,0.0,0.0,0.0,0.0,0.0,0.0,0.0,0.0,0.0,0.0,0.0,0.0,0.0,0.0,0.0,0.0,0.0,0.0,0.0,0.0,0.0,0.0,0.0,0.0,0.0,0.0,0.0,0.0,0.0,0.0,0.0,0.0,0.0,0.0,0.0,0.0,0.0,0.0,0.0,0.0,0.0,0.0,0.0,0.0,0.0,0.0,0.0,0.0,0.0,0.0,0.0,0.0,0.0,0.0,0.0,0.0,0.0,0.0,0.0,0.0,0.0,0.0,0.0,0.0,0.0,0.0,0.0,0.0,0.0,0.0,0.0,0.0,0.0,0.0,0.0,0.0,0.0,0.0,0.0,0.0,0.0,0.0,0.0,0.0,0.0,0.0,0.0,0.0,0.0,0.0,0.0,0.0,0.0,0.0,0.0,0.0,0.0,0.0,0.0,0.0,0.0,0.0,0.0,0.0,0.0,0.0,0.0,0.0,0.0,0.0,0.0,0.0,0.0,0.0,0.0,0.0,0.0,0.0,0.0,0.0,0.0,0.0,0.0,0.0,0.0,0.0,0.0,0.0,0.0,0.0,0.0,0.0,0.0,0.0,0.0,0.0,0.0,0.0,0.0,0.0,0.0,0.0,0.0,0.0,0.0,0.0,0.0,0.0,0.0,0.0,0.0,0.0,0.0,0.0,0.0,0.0,0.0,0.0,0.0,0.0,0.0,0.0,0.0,0.0,0.0,0.0,0.0,0.0,0.0,0.0,0.0,0.0,0.0,0.0,0.0,0.0,0.0,0.0,0.0,0.0,0.0,0.0,0.0,0.0,0.0,0.0,0.0,0.0,0.0,0.0,0.0,0.0,0.0,0.0,0.0,0.0,0.0,0.0,0.0,0.0,0.0,0.0,0.0,0.0,0.0,0.0,0.0,0.0,0.0,0.0,0.0,0.0,0.0,0.0,0.0,0.0,0.0,0.0,0.0,0.0,0.0,0.0,0.0,0.0,0.0,0.0,0.0,0.0,0.0,0.0,0.0,0.0,0.0,0.0,0.0,0.0,0.0,0.0,0.0,0.0,0.0,0.0,0.0,0.0,0.0,0.0,0.0,0.0,0.0,0.0,0.0,0.0,0.0,0.0,0.0,0.0,0.0,0.0,0.0,0.0,0.0,0.0,0.0,0.0,0.0,0.0,0.0,0.0,0.0,0.0,0.0,0.0,0.0,0.0,0.0,0.0,0.0,0.0,0.0,0.0,0.0,0.0,0.0,0.0,0.0,0.0,0.0,0.0,0.0,0.0,0.0,0.0,0.0,0.0,0.0,0.0,0.0,0.0,0.0,0.0,0.0,0.0,0.0,0.0,0.0,0.0,0.0,0.0,0.0,0.0,0.0,0.0,0.0,0.0,0.0,0.0,0.0,0.0,0.0,0.0,0.0,0.0,0.0,0.0,0.0,0.0,0.0,0.0,0.0,0.0,0.0,0.0,0.0,0.0,0.0,0.0,0.0,0.0,0.0,0.0,0.0,0.0,0.0,0.0,0.0,0.0,0.0,0.0,0.0,0.0,0.0,0.0,0.0,0.0,0.0,0.0,0.0,0.0,0.0,0.0,0.0,0.0,0.0,0.0,0.0,0.0,0.0,0.0,0.0,0.0,0.0,0.0,0.0,0.0,0.0,0.0,0.0,0.0,0.0,0.0,0.0,0.0,0.0,0.0,0.0,0.0,0.0,0.0,0.0,0.0,0.0,0.0,0.0,0.0,0.0,0.0,0.0,0.0,0.0,0.0,0.0,0.0,0.0,0.0,0.0,0.0,0.0,0.0,0.0,0.0,0.0,0.0,0.0,0.0,0.0,0.0,0.0,0.0,0.0,0.0,0.0,0.0,0.0,0.0,0.0,0.0,0.0,0.0,0.0,0.0,0.0,0.0,0.0,0.0,0.0,0.0,0.0,0.0,0.0,0.0,0.0,0.0,0.0,0.0,0.0,0.0,0.0,0.0,0.0,0.0,0.0,0.0,0.0,0.0,0.0,0.0,0.0,0.0,0.0,0.0,0.0,0.0,0.0,0.0,0.0,0.0,0.0,0.0,0.0,0.0,0.0,0.0,0.0,0.0,0.0,0.0,0.0,0.0,0.0,0.0,0.0,0.0,0.0,0.0,0.0,0.0,0.0,0.0,0.0,0.0,0.0,0.0,0.0,0.0,0.0,0.0,0.0,0.0,0.0,0.0,0.0,0.0,0.0,0.0,0.0,0.0,0.0,0.0,0.0,0.0,0.0,0.0,0.0,0.0,0.0,0.0,0.0,0.0,0.0,0.0,0.0,0.0,0.0,0.0,0.0,0.0,0.0,0.0,0.0,0.0,0.0,0.0,0.0,0.0,0.0,0.0,0.0,0.0,0.0,0.0,0.0,0.0,0.0,0.0,0.0,0.0,0.0,0.0,0.0,0.0,0.0,0.0,0.0,0.0,0.0,0.0,0.0,0.0,0.0,0.0,0.0,0.0,0.0,0.0,0.0,0.0,0.0,0.0,0.0,0.0,0.0,0.0,0.0,0.0,0.0,0.0,0.0,0.0,0.0,0.0,0.0,0.0,0.0,0.0,0.0,0.0,0.0,0.0,0.0,0.0,0.0,0.0,0.0,0.0,0.0,0.0,0.0,0.0,0.0,0.0,0.0,0.0,0.0,0.0,0.0,0.0,0.0,0.0,0.0,0.0,0.0,0.0,0.0,0.0,0.0,0.0,0.0,0.0,0.0,0.0,0.0,0.0,0.0,0.0,0.0,0.0,0.0,0.0,0.0,0.0,0.0,0.0,0.0,0.0,0.0,0.0,0.0,0.0,0.0,0.0,0.0,0.0,0.0,0.0,0.0,0.0,0.0,0.0,0.0,0.0,0.0,0.0,0.0,0.0,0.0,0.0,0.0,0.0,0.0,0.0,0.0,0.0,0.0,0.0,0.0,0.0,0.0,0.0,0.0,0.0,0.0,0.0,0.0,0.0,1.2079,0.0,0.0,0.0,1.2079,0.0,0.0,0.0,0.0,0.0,0.0,0.0,0.0,0.0,0.0,0.0,0.0,0.0,0.0,0.0,0.0,0.0,0.0,0.0,0.0,0.0,0.0,0.0,0.0,0.0,0.0,0.0,0.0,0.0,0.0,0.0,0.0,0.0,0.0,0.0,0.0,0.0,0.0,0.0,0.0,0.0,0.0,0.0,0.0,0.0,0.0,0.0,0.0,0.0,0.0,0.0,0.0,0.0,0.0,0.0,0.0,0.0,0.0,0.0,0.0,0.0,0.0,0.0,0.0,0.0,0.0,0.0,0.0,0.0,0.0,0.0,0.0,0.0,0.0,0.0,0.0,0.0,0.0,0.0,0.0,0.0,0.0,0.0,0.0,0.0,0.0,0.0,0.0,0.0,0.0,0.0,0.0,0.0,0.0,0.0,0.0,0.0,0.0,0.0,0.0,0.0,0.0,0.0,0.0,0.0,0.0,0.0,0.0,0.0,0.0,1.2079,1.2079,1.2079,1.2079,1.2079,0.0,0.0,0.0,0.0,0.0,0.0,0.0,0.0,0.0,0.0,0.0,0.0,0.0,0.0,0.0,0.0,0.0,0.0,0.0,0.0,0.0,0.0,0.0,0.0,0.0,0.0,0.0,0.0,0.0,0.0,0.0,0.0,0.0,0.0,0.0,0.0,0.0,0.0,0.0,0.0,0.0,0.0,0.0,0.0,0.0,0.0,0.0,0.0,0.0,0.0,0.0,0.0,0.0,0.0,0.0,0.0,0.0,0.0,0.0,0.0,0.0,0.0,0.0,0.0,0.0,0.0,0.0,0.0,0.0,0.0,0.0,0.0,0.0,0.0,0.0,0.0,0.0,0.0,0.0,0.0,0.0,0.0,0.0,0.0,0.0,0.0,0.0,0.0,0.0,0.0,0.0,0.0,0.0,0.0,0.0,0.0,0.0,0.0,0.0,0.0,0.0,0.0,0.0,0.0,0.0,0.0,0.0,0.0,0.0,0.0,0.0,0.0,1.2079,1.2079,1.2079,0.0,0.0,0.0,0.0,0.0,0.0,0.0,0.0,0.0,0.0,0.0,0.0,0.0,0.0,0.0,0.0,0.0,0.0,0.0,0.0,0.0,0.0,0.0,0.0,0.0,0.0,0.0,0.0,0.0,0.0,0.0,0.0,0.0,0.0,0.0,0.0,0.0,0.0,0.0,0.0,0.0,0.0,0.0,0.0,0.0,0.0,0.0,0.0,0.0,0.0,0.0,0.0,0.0,0.0,0.0,0.0,0.0,0.0,0.0,0.0,0.0,0.0,0.0,0.0,0.0,0.0,0.0,0.0,0.0,0.0,0.0,0.0,0.0,0.0,0.0,0.0,0.0,0.0,0.0,0.0,0.0,0.0,0.0,0.0,0.0,0.0,0.0,0.0,0.0,0.0,0.0,0.0,0.0,0.0,0.0,0.0,0.0,0.0,0.0,0.0,0.0,0.0,0.0,0.0,0.0,0.0,0.0,0.0,0.0,0.0,1.2079,1.2079,1.2079,0.0,1.2079,0.0,0.0,0.0,0.0,0.0,0.0,0.0,0.0,0.0,0.0,0.0,0.0,0.0,0.0,0.0,0.0,0.0,0.0,0.0,0.0,0.0,0.0,0.0,0.0,0.0,0.0,0.0,0.0,0.0,0.0,0.0,0.0,0.0,0.0,0.0,0.0,0.0,0.0,0.0,0.0,0.0,0.0,0.0,0.0,0.0,0.0,0.0,0.0,0.0,0.0,0.0,0.0,0.0,0.0,0.0,0.0,0.0,0.0,0.0,0.0,0.0,0.0,0.0,0.0,0.0,0.0,0.0,0.0,0.0,0.0,0.0,0.0,0.0,0.0,0.0,0.0,0.0,0.0,0.0,0.0,0.0,0.0,0.0,0.0,0.0,0.0,0.0,0.0,0.0,0.0,0.0,0.0,0.0,0.0,0.0,0.0,0.0,0.0,0.0,0.0,0.0,0.0,0.0,0.0,0.0,0.0,0.0,0.0,0.0,0.0,1.2079,1.2079,1.2079,1.2079,0.0,0.0,0.0,0.0,0.0,0.0,0.0,0.0,0.0,0.0,0.0,0.0,0.0,0.0,0.0,0.0,0.0,0.0,0.0,0.0,0.0,0.0,0.0,0.0,0.0,0.0,0.0,0.0,0.0,0.0,0.0,0.0,0.0,0.0,0.0,0.0,0.0,0.0,0.0,0.0,0.0,0.0,0.0,0.0,0.0,0.0,0.0,0.0,0.0,0.0,0.0,0.0,0.0,0.0,0.0,0.0,0.0,0.0,0.0,0.0,0.0,0.0,0.0,0.0,0.0,0.0,0.0,0.0,0.0,0.0,0.0,0.0,0.0,0.0,0.0,0.0,0.0,0.0,0.0,0.0,0.0,0.0,0.0,0.0,0.0,0.0,0.0,0.0,0.0,0.0,0.0,0.0,0.0,0.0,0.0,0.0,0.0,0.0,0.0,0.0,0.0,0.0,0.0,0.0,0.0,0.0,0.0,0.0,0.0,0.0,1.2079,1.2079,1.2079,1.2079,1.2079,1.2079,0.0,0.0,0.0,0.0,0.0,0.0,0.0,0.0,0.0,0.0,0.0,0.0,0.0,0.0,0.0,0.0,0.0,0.0,0.0,0.0,0.0,0.0,0.0,0.0,0.0,0.0,0.0,0.0,0.0,0.0,0.0,0.0,0.0,0.0,0.0,0.0,0.0,0.0,0.0,0.0,0.0,0.0,0.0,0.0,0.0,0.0,0.0,0.0,0.0,0.0,0.0,0.0,0.0,0.0,0.0,0.0,0.0,0.0,0.0,0.0,0.0,0.0,0.0,0.0,0.0,0.0,0.0,0.0,0.0,0.0,0.0,0.0,0.0,0.0,0.0,0.0,0.0,0.0,0.0,0.0,0.0,0.0,0.0,0.0,0.0,0.0,0.0,0.0,0.0,0.0,0.0,0.0,0.0,0.0,0.0,0.0,0.0,0.0,0.0,0.0,0.0,0.0,0.0,0.0,0.0,0.0,0.0,0.0,1.2104,1.2104,1.2104,1.2091,1.2098,1.2098,0.0,0.0,0.0,0.0,0.0,0.0,0.0,0.0,0.0,0.0,0.0,0.0,0.0,0.0,0.0,0.0,0.0,0.0,0.0,0.0,0.0,0.0,0.0,0.0,0.0,0.0,0.0,0.0,0.0,0.0,0.0,0.0,0.0,0.0,0.0,0.0,0.0,0.0,0.0,0.0,0.0,0.0,0.0,0.0,0.0,0.0,0.0,0.0,0.0,0.0,0.0,0.0,0.0,0.0,0.0,0.0,0.0,0.0,0.0,0.0,0.0,0.0,0.0,0.0,0.0,0.0,0.0,0.0,0.0,0.0,0.0,0.0,0.0,0.0,0.0,0.0,0.0,0.0,0.0,0.0,0.0,0.0,0.0,0.0,0.0,0.0,0.0,0.0,0.0,0.0,0.0,0.0,0.0,0.0,0.0,0.0,0.0,0.0,0.0,0.0,0.0,0.0,0.0,0.0,0.0,0.0,0.0,0.0,0.0,1.2484,1.2747,1.2747,1.2496,1.2484,1.2367,0.0,0.0,0.0,0.0,0.0,0.0,0.0,0.0,0.0,0.0,0.0,0.0,0.0,0.0,0.0,0.0,0.0,0.0,0.0,0.0,0.0,0.0,0.0,0.0,0.0,0.0,0.0,0.0,0.0,0.0,0.0,0.0,0.0,0.0,0.0,0.0,0.0,0.0,0.0,0.0,0.0,0.0,0.0,0.0,0.0,0.0,0.0,0.0,0.0,0.0,0.0,0.0,0.0,0.0,0.0,0.0,0.0,0.0,0.0,0.0,0.0,0.0,0.0,0.0,0.0,0.0,0.0,0.0,0.0,0.0,0.0,0.0,0.0,0.0,0.0,0.0,0.0,0.0,0.0,0.0,0.0,0.0,0.0,0.0,0.0,0.0,0.0,0.0,0.0,0.0,0.0,0.0,0.0,0.0,0.0,0.0,0.0,0.0,0.0,0.0,0.0,0.0,0.0,0.0,0.0,0.0,0.0,0.0,0.0,1.2875,1.3169,1.3174,1.2919,1.29,1.271,0.0,0.0,0.0,0.0,0.0,0.0,0.0,0.0,0.0,0.0,0.0,0.0,0.0,0.0,0.0,0.0,0.0,0.0,0.0,0.0,0.0,0.0,0.0,0.0,0.0,0.0,0.0,0.0,0.0,0.0,0.0,0.0,0.0,0.0,0.0,0.0,0.0,0.0,0.0,0.0,0.0,0.0,0.0,0.0,0.0,0.0,0.0,0.0,0.0,0.0,0.0,0.0,0.0,0.0,0.0,0.0,0.0,0.0,0.0,0.0,0.0,0.0,0.0,0.0,0.0,0.0,0.0,0.0,0.0,0.0,0.0,0.0,0.0,0.0,0.0,0.0,0.0,0.0,0.0,0.0,0.0,0.0,0.0,0.0,0.0,0.0,0.0,0.0,0.0,0.0,0.0,0.0,0.0,0.0,0.0,0.0,0.0,0.0,0.0,0.0,0.0,0.0,0.0,0.0,0.0,0.0,0.0,0.0,1.293,1.3309,1.3364,1.3419,1.3328,1.3339,1.3126,0.0,0.0,0.0,0.0,0.0,0.0,0.0,0.0,0.0,0.0,0.0,0.0,0.0,0.0,0.0,0.0,0.0,0.0,0.0,0.0,0.0,0.0,0.0,0.0,0.0,0.0,0.0,0.0,0.0,0.0,0.0,0.0,0.0,0.0,0.0,0.0,0.0,0.0,0.0,0.0,0.0,0.0,0.0,0.0,0.0,0.0,0.0,0.0,0.0,0.0,0.0,0.0,0.0,0.0,0.0,0.0,0.0,0.0,0.0,0.0,0.0,0.0,0.0,0.0,0.0,0.0,0.0,0.0,0.0,0.0,0.0,0.0,0.0,0.0,0.0,0.0,0.0,0.0,0.0,0.0,0.0,0.0,0.0,0.0,0.0,0.0,0.0,0.0,0.0,0.0,0.0,0.0,0.0,0.0,0.0,0.0,0.0,0.0,0.0,0.0,0.0,0.0,0.0,0.0,0.0,0.0,0.0,0.0,0.0,1.4157,1.481,1.4954,1.4557,1.426,1.3802,0.0,0.0,0.0,0.0,0.0,0.0,0.0,0.0,0.0,0.0,0.0,0.0,0.0,0.0,0.0,0.0,0.0,0.0,0.0,0.0,0.0,0.0,0.0,0.0,0.0,0.0,0.0,0.0,0.0,0.0,0.0,0.0,0.0,0.0,0.0,0.0,0.0,0.0,0.0,0.0,0.0,0.0,0.0,0.0,0.0,0.0,0.0,0.0,0.0,0.0,0.0,0.0,0.0,0.0,0.0,0.0,0.0,0.0,0.0,0.0,0.0,0.0,0.0,0.0,0.0,0.0,0.0,0.0,0.0,0.0,0.0,0.0,0.0,0.0,0.0,0.0,0.0,0.0,0.0,0.0,0.0,0.0,0.0,0.0,0.0,0.0,0.0,0.0,0.0,0.0,0.0,0.0,0.0,0.0,0.0,0.0,0.0,0.0,0.0,0.0,0.0,0.0,0.0,0.0,0.0,0.0,0.0,0.0,0.0,1.6346,1.6659,1.6641,1.6264,1.5838,1.5137,1.4129,0.0,0.0,0.0,0.0,0.0,0.0,0.0,0.0,0.0,0.0,0.0,0.0,0.0,0.0,0.0,0.0,0.0,0.0,0.0,0.0,0.0,0.0,0.0,0.0,0.0,0.0,0.0,0.0,0.0,0.0,0.0,0.0,0.0,0.0,0.0,0.0,0.0,0.0,0.0,0.0,0.0,0.0,0.0,0.0,0.0,0.0,0.0,0.0,0.0,0.0,0.0,0.0,0.0,0.0,0.0,0.0,0.0,0.0,0.0,0.0,0.0,0.0,0.0,0.0,0.0,0.0,0.0,0.0,0.0,0.0,0.0,0.0,0.0,0.0,0.0,0.0,0.0,0.0,0.0,0.0,0.0,0.0,0.0,0.0,0.0,0.0,0.0,0.0,0.0,0.0,0.0,0.0,0.0,0.0,0.0,0.0,0.0,0.0,0.0,0.0,0.0,0.0,0.0,0.0,0.0,0.0,0.0,0.0,1.9554,1.8868,1.8486,1.8327,1.7806,1.6903,0.0,0.0,0.0,0.0,0.0,0.0,0.0,0.0,0.0,0.0,0.0,0.0,0.0,0.0,0.0,0.0,0.0,0.0,0.0,0.0,0.0,0.0,0.0,0.0,0.0,0.0,0.0,0.0,0.0,0.0,0.0,0.0,0.0,0.0,0.0,0.0,0.0,0.0,0.0,0.0,0.0,0.0,0.0,0.0,0.0,0.0,0.0,0.0,0.0,0.0,0.0,0.0,0.0,0.0,0.0,0.0,0.0,0.0,0.0,0.0,0.0,0.0,0.0,0.0,0.0,0.0,0.0,0.0,0.0,0.0,0.0,0.0,0.0,0.0,0.0,0.0,0.0,0.0,0.0,0.0,0.0,0.0,0.0,0.0,0.0,0.0,0.0,0.0,0.0,0.0,0.0,0.0,0.0,0.0,0.0,0.0,0.0,0.0,0.0,0.0,0.0,0.0,0.0,0.0,0.0,0.0,0.0,0.0,0.0,2.1418,2.2037,2.1618,2.0097,1.8882,1.7685,0.0,0.0,0.0,0.0,0.0,0.0,0.0,0.0,0.0,0.0,0.0,0.0,0.0,0.0,0.0,0.0,0.0,0.0,0.0,0.0,0.0,0.0,0.0,0.0,0.0,0.0,0.0,0.0,0.0,0.0,0.0,0.0,0.0,0.0,0.0,0.0,0.0,0.0,0.0,0.0,0.0,0.0,0.0,0.0,0.0,0.0,0.0,0.0,0.0,0.0,0.0,0.0,0.0,0.0,0.0,0.0,0.0,0.0,0.0,0.0,0.0,0.0,0.0,0.0,0.0,0.0,0.0,0.0,0.0,0.0,0.0,0.0,0.0,0.0,0.0,0.0,0.0,0.0,0.0,0.0,0.0,0.0,0.0,0.0,0.0,0.0,0.0,0.0,0.0,0.0,0.0,0.0,0.0,0.0,0.0,0.0,0.0,0.0,0.0,0.0,0.0,0.0,0.0,0.0,0.0,0.0,0.0,0.0,2.1986,2.341,2.4431,2.4207,2.26,2.0848,1.9172,0.0,0.0,0.0,0.0,0.0,0.0,0.0,0.0,0.0,0.0,0.0,0.0,0.0,0.0,0.0,0.0,0.0,0.0,0.0,0.0,0.0,0.0,0.0,0.0,0.0,0.0,0.0,0.0,0.0,0.0,0.0,0.0,0.0,0.0,0.0,0.0,0.0,0.0,0.0,0.0,0.0,0.0,0.0,0.0,0.0,0.0,0.0,0.0,0.0,0.0,0.0,0.0,0.0,0.0,0.0,0.0,0.0,0.0,0.0,0.0,0.0,0.0,0.0,0.0,0.0,0.0,0.0,0.0,0.0,0.0,0.0,0.0,0.0,0.0,0.0,0.0,0.0,0.0,0.0,0.0,0.0,0.0,0.0,0.0,0.0,0.0,0.0,0.0,0.0,0.0,0.0,0.0,0.0,0.0,0.0,0.0,0.0,0.0,0.0,0.0,0.0,0.0,0.0,0.0,0.0,0.0,0.0,0.0,2.4001,2.5281,2.625,2.6279,2.5295,2.3258,2.1045,0.0,0.0,0.0,0.0,0.0,0.0,0.0,0.0,0.0,0.0,0.0,0.0,0.0,0.0,0.0,0.0,0.0,0.0,0.0,0.0,0.0,0.0,0.0,0.0,0.0,0.0,0.0,0.0,0.0,0.0,0.0,0.0,0.0,0.0,0.0,0.0,0.0,0.0,0.0,0.0,0.0,0.0,0.0,0.0,0.0,0.0,0.0,0.0,0.0,0.0,0.0,0.0,0.0,0.0,0.0,0.0,0.0,0.0,0.0,0.0,0.0,0.0,0.0,0.0,0.0,0.0,0.0,0.0,0.0,0.0,0.0,0.0,0.0,0.0,0.0,0.0,0.0,0.0,0.0,0.0,0.0,0.0,0.0,0.0,0.0,0.0,0.0,0.0,0.0,0.0,0.0,0.0,0.0,0.0,0.0,0.0,0.0,0.0,0.0,0.0,0.0,0.0,0.0,0.0,0.0,0.0,0.0,0.0,2.5559,2.6712,2.7324,2.7352,2.6759,2.4784,2.2592,0.0,0.0,0.0,0.0,0.0,0.0,0.0,0.0,0.0,0.0,0.0,0.0,0.0,0.0,0.0,0.0,0.0,0.0,0.0,0.0,0.0,0.0,0.0,0.0,0.0,0.0,0.0,0.0,0.0,0.0,0.0,0.0,0.0,0.0,0.0,0.0,0.0,0.0,0.0,0.0,0.0,0.0,0.0,0.0,0.0,0.0,0.0,0.0,1.3297,0.0,0.0,0.0,0.0,0.0,0.0,0.0,0.0,0.0,0.0,0.0,0.0,0.0,0.0,0.0,0.0,0.0,0.0,0.0,0.0,0.0,0.0,0.0,0.0,0.0,0.0,0.0,0.0,0.0,0.0,0.0,0.0,0.0,0.0,0.0,0.0,0.0,0.0,0.0,0.0,0.0,0.0,0.0,0.0,0.0,0.0,0.0,0.0,0.0,0.0,0.0,0.0,0.0,0.0,0.0,0.0,0.0,0.0,0.0,2.7585,2.8589,2.9354,2.9279,2.8301,2.7208,2.5051,0.0,0.0,0.0,0.0,0.0,0.0,0.0,0.0,0.0,0.0,0.0,0.0,0.0,0.0,0.0,0.0,0.0,0.0,0.0,0.0,0.0,0.0,0.0,0.0,0.0,0.0,0.0,0.0,0.0,0.0,0.0,0.0,0.0,0.0,0.0,0.0,0.0,0.0,0.0,0.0,0.0,0.0,0.0,0.0,0.0,0.0,0.0,0.0,0.0,0.0,0.0,0.0,0.0,0.0,0.0,0.0,0.0,0.0,0.0,0.0,0.0,0.0,0.0,0.0,0.0,0.0,0.0,0.0,0.0,0.0,0.0,0.0,0.0,0.0,0.0,0.0,0.0,0.0,0.0,0.0,0.0,0.0,0.0,0.0,0.0,0.0,0.0,0.0,0.0,0.0,0.0,0.0,0.0,0.0,0.0,0.0,0.0,0.0,0.0,0.0,0.0,0.0,0.0,0.0,0.0,0.0,0.0,2.7887,2.9684,3.0537,3.1503,3.1362,2.9998,2.9738,2.7704,2.3703,0.0,0.0,0.0,0.0,0.0,0.0,0.0,0.0,0.0,0.0,0.0,0.0,0.0,0.0,0.0,0.0,0.0,0.0,0.0,0.0,0.0,0.0,0.0,0.0,0.0,0.0,0.0,0.0,0.0,0.0,0.0,0.0,0.0,0.0,0.0,0.0,0.0,0.0,1.3504,1.4588,0.0,0.0,0.0,0.0,0.0,0.0,0.0,0.0,1.6227,0.0,0.0,0.0,0.0,0.0,0.0,0.0,0.0,0.0,0.0,0.0,0.0,0.0,0.0,0.0,0.0,0.0,0.0,0.0,0.0,0.0,0.0,0.0,0.0,0.0,0.0,0.0,0.0,0.0,0.0,0.0,0.0,0.0,0.0,0.0,0.0,0.0,0.0,0.0,0.0,0.0,0.0,0.0,0.0,0.0,0.0,0.0,0.0,0.0,0.0,0.0,0.0,0.0,0.0,0.0,0.0,2.6849,2.9689,3.1443,3.2039,3.265,3.2632,3.1925,3.1092,2.9567,2.7248,0.0,0.0,0.0,0.0,0.0,0.0,0.0,0.0,0.0,0.0,0.0,0.0,0.0,0.0,0.0,0.0,0.0,0.0,0.0,0.0,0.0,0.0,0.0,0.0,0.0,0.0,0.0,0.0,0.0,0.0,0.0,0.0,0.0,0.0,0.0,0.0,0.0,0.0,0.0,1.6496,1.7363,0.0,0.0,0.0,0.0,0.0,0.0,0.0,0.0,1.7842,0.0,0.0,0.0,0.0,0.0,0.0,0.0,0.0,0.0,0.0,0.0,0.0,0.0,0.0,0.0,0.0,0.0,0.0,0.0,0.0,0.0,0.0,0.0,0.0,0.0,0.0,0.0,0.0,0.0,0.0,0.0,0.0,0.0,0.0,0.0,0.0,0.0,0.0,0.0,0.0,0.0,0.0,0.0,0.0,0.0,0.0,0.0,0.0,0.0,0.0,0.0,0.0,0.0,0.0,0.0,2.8512,3.1143,3.3018,3.4041,3.4595,3.4347,3.3264,3.2253,3.0451,0.0,0.0,0.0,0.0,0.0,0.0,0.0,0.0,0.0,0.0,0.0,0.0,0.0,0.0,0.0,0.0,0.0,0.0,0.0,0.0,0.0,0.0,0.0,0.0,0.0,0.0,0.0,0.0,0.0,0.0,0.0,0.0,0.0,0.0,0.0,0.0,0.0,0.0,0.0,0.0,1.7343,1.8599,1.9093,0.0,0.0,0.0,0.0,0.0,0.0,2.0346,2.0266,0.0,0.0,0.0,0.0,0.0,0.0,0.0,0.0,0.0,0.0,0.0,0.0,0.0,0.0,0.0,0.0,0.0,0.0,0.0,0.0,0.0,0.0,0.0,0.0,0.0,0.0,0.0,0.0,0.0,0.0,0.0,0.0,0.0,0.0,0.0,0.0,0.0,0.0,0.0,0.0,0.0,0.0,0.0,0.0,0.0,0.0,0.0,0.0,0.0,0.0,0.0,0.0,0.0,0.0,0.0,2.9836,3.2424,3.4402,3.5725,3.6278,3.5845,3.4378,3.3248,3.1146,0.0,0.0,0.0,0.0,0.0,0.0,0.0,0.0,0.0,0.0,0.0,0.0,0.0,0.0,0.0,0.0,0.0,0.0,0.0,0.0,0.0,0.0,0.0,0.0,0.0,0.0,0.0,0.0,0.0,0.0,0.0,0.0,0.0,0.0,0.0,0.0,0.0,0.0,0.0,0.0,0.0,2.0082,2.1426,2.1467,0.0,0.0,0.0,0.0,2.2267,2.2991,0.0,0.0,0.0,0.0,0.0,0.0,0.0,0.0,0.0,0.0,0.0,0.0,0.0,0.0,0.0,0.0,0.0,0.0,0.0,0.0,0.0,0.0,0.0,0.0,0.0,0.0,0.0,0.0,0.0,0.0,0.0,0.0,0.0,0.0,0.0,0.0,0.0,0.0,0.0,0.0,0.0,0.0,0.0,0.0,0.0,0.0,0.0,0.0,0.0,0.0,0.0,0.0,0.0,0.0,0.0,0.0,3.0427,3.3672,3.5653,3.6278,3.6843,3.6579,3.5436,3.3982,3.212,0.0,0.0,0.0,0.0,0.0,0.0,0.0,0.0,0.0,0.0,0.0,0.0,0.0,0.0,0.0,0.0,0.0,0.0,0.0,0.0,0.0,0.0,0.0,0.0,0.0,0.0,0.0,0.0,0.0,0.0,0.0,0.0,0.0,0.0,0.0,0.0,0.0,0.0,0.0,0.0,0.0,2.2797,2.3627,2.4409,2.5092,0.0,0.0,2.5765,2.5324,2.5976,0.0,0.0,0.0,0.0,0.0,0.0,0.0,0.0,0.0,0.0,0.0,0.0,0.0,0.0,0.0,0.0,0.0,0.0,0.0,0.0,0.0,0.0,0.0,0.0,0.0,0.0,0.0,0.0,0.0,0.0,0.0,0.0,0.0,0.0,0.0,0.0,0.0,0.0,0.0,0.0,0.0,0.0,0.0,0.0,0.0,0.0,0.0,0.0,0.0,0.0,0.0,0.0,0.0,0.0,0.0,2.9656,3.2877,3.4988,3.6771,3.8166,3.8455,3.7902,3.6544,3.4979,3.302,0.0,0.0,0.0,0.0,0.0,0.0,0.0,0.0,0.0,0.0,0.0,0.0,0.0,0.0,0.0,0.0,0.0,0.0,0.0,0.0,0.0,0.0,0.0,0.0,0.0,0.0,0.0,0.0,0.0,0.0,0.0,0.0,0.0,0.0,0.0,0.0,0.0,0.0,0.0,0.0,0.0,0.0,2.521,2.6325,0.0,0.0,0.0,2.8288,2.7479,0.0,0.0,0.0,0.0,0.0,0.0,0.0,0.0,0.0,0.0,0.0,0.0,0.0,0.0,0.0,0.0,0.0,0.0,0.0,0.0,0.0,0.0,0.0,0.0,0.0,0.0,0.0,0.0,0.0,0.0,0.0,0.0,0.0,0.0,0.0,0.0,0.0,0.0,0.0,0.0,0.0,0.0,0.0,0.0,0.0,0.0,0.0,0.0,0.0,0.0,0.0,0.0,0.0,0.0,0.0,0.0,0.0,3.4727,3.6109,3.7781,3.9691,3.9681,3.9018,3.7843,3.6109,0.0,0.0,0.0,0.0,0.0,0.0,0.0,0.0,0.0,0.0,0.0,0.0,0.0,0.0,0.0,0.0,0.0,0.0,0.0,0.0,0.0,0.0,0.0,0.0,0.0,0.0,0.0,1.2607,0.0,0.0,0.0,0.0,0.0,0.0,0.0,0.0,0.0,0.0,0.0,0.0,0.0,0.0,2.5434,2.7426,2.8499,2.9454,0.0,0.0,3.0445,2.9811,3.0686,3.0616,0.0,0.0,0.0,0.0,0.0,0.0,0.0,0.0,0.0,0.0,0.0,0.0,0.0,0.0,0.0,0.0,0.0,0.0,0.0,0.0,0.0,0.0,0.0,0.0,0.0,0.0,0.0,0.0,0.0,0.0,0.0,0.0,0.0,0.0,0.0,0.0,0.0,0.0,0.0,0.0,0.0,0.0,0.0,0.0,0.0,0.0,0.0,0.0,0.0,0.0,0.0,0.0,0.0,0.0,0.0,3.4751,3.6843,3.8685,4.0258,3.985,3.9547,3.9417,3.7383,3.5304,0.0,0.0,0.0,0.0,0.0,0.0,0.0,0.0,0.0,0.0,0.0,0.0,0.0,0.0,0.0,0.0,0.0,0.0,0.0,0.0,0.0,0.0,0.0,0.0,0.0,0.0,0.0,0.0,0.0,0.0,0.0,0.0,0.0,0.0,0.0,0.0,0.0,0.0,0.0,0.0,0.0,2.8549,3.0936,3.1419,3.2261,0.0,3.2863,3.2006,3.2839,3.2666,3.216,3.1446,0.0,0.0,0.0,0.0,0.0,0.0,0.0,0.0,0.0,0.0,0.0,0.0,0.0,0.0,0.0,0.0,0.0,0.0,0.0,0.0,0.0,0.0,0.0,0.0,0.0,0.0,0.0,0.0,0.0,0.0,0.0,0.0,0.0,0.0,0.0,0.0,0.0,0.0,0.0,0.0,0.0,0.0,0.0,0.0,0.0,0.0,0.0,0.0,0.0,0.0,0.0,0.0,0.0,3.3007,3.623,3.807,3.9936,4.1764,4.1682,4.1259,4.0595,3.8839,3.6879,0.0,0.0,0.0,0.0,0.0,0.0,0.0,0.0,0.0,0.0,0.0,0.0,0.0,0.0,0.0,0.0,0.0,0.0,0.0,0.0,0.0,0.0,0.0,0.0,0.0,0.0,0.0,0.0,1.8205,1.8842,1.9675,0.0,0.0,0.0,0.0,0.0,0.0,0.0,0.0,0.0,0.0,3.0388,3.189,3.3281,0.0,0.0,3.4626,3.4159,3.4198,3.433,3.403,3.2874,3.1454,0.0,0.0,0.0,0.0,0.0,0.0,0.0,0.0,0.0,0.0,0.0,0.0,0.0,0.0,0.0,0.0,0.0,0.0,0.0,0.0,0.0,0.0,0.0,0.0,0.0,0.0,0.0,0.0,0.0,0.0,0.0,0.0,0.0,0.0,0.0,0.0,0.0,0.0,0.0,0.0,0.0,0.0,0.0,0.0,0.0,0.0,0.0,0.0,0.0,0.0,0.0,0.0,3.3909,3.741,3.9176,4.1028,4.2967,4.2862,4.2501,4.1884,4.0196,3.8417,0.0,0.0,0.0,0.0,0.0,0.0,0.0,0.0,0.0,0.0,0.0,0.0,0.0,0.0,0.0,0.0,0.0,0.0,0.0,0.0,0.0,0.0,0.0,0.0,0.0,0.0,0.0,0.0,2.0727,2.1434,2.1552,0.0,0.0,0.0,0.0,0.0,0.0,0.0,0.0,0.0,0.0,3.2311,3.3452,3.4869,3.5893,3.6061,3.5941,3.5688,3.5328,3.546,3.522,3.4174,0.0,0.0,0.0,0.0,0.0,0.0,0.0,0.0,0.0,0.0,0.0,0.0,0.0,0.0,0.0,0.0,0.0,0.0,0.0,0.0,0.0,0.0,0.0,0.0,0.0,0.0,0.0,0.0,0.0,0.0,1.8185,0.0,0.0,0.0,0.0,0.0,0.0,0.0,0.0,0.0,0.0,0.0,0.0,0.0,0.0,0.0,0.0,0.0,0.0,0.0,0.0,0.0,0.0,3.4835,3.7963,4.0118,4.1932,4.3457,4.3054,4.3015,4.337,4.1461,3.985,3.8706,0.0,0.0,0.0,0.0,0.0,0.0,0.0,0.0,0.0,0.0,0.0,0.0,0.0,0.0,0.0,0.0,0.0,0.0,0.0,0.0,0.0,0.0,0.0,0.0,0.0,0.0,2.131,2.3372,2.4393,0.0,0.0,0.0,0.0,0.0,0.0,0.0,0.0,0.0,0.0,3.2771,3.4522,3.6059,3.6361,3.6603,3.7084,3.6723,3.6386,3.6362,3.5941,3.5617,0.0,0.0,0.0,0.0,0.0,0.0,0.0,0.0,0.0,0.0,0.0,0.0,0.0,0.0,0.0,0.0,0.0,0.0,0.0,0.0,0.0,0.0,0.0,0.0,0.0,0.0,0.0,2.2611,2.2476,0.0,0.0,0.0,0.0,0.0,0.0,0.0,0.0,0.0,0.0,0.0,3.2206,3.2485,0.0,0.0,0.0,0.0,0.0,0.0,0.0,0.0,0.0,0.0,0.0,0.0,3.605,3.9503,4.1345,4.3183,4.5004,4.4596,4.4235,4.4027,4.2702,4.0994,3.885,0.0,0.0,0.0,0.0,0.0,0.0,0.0,0.0,0.0,0.0,0.0,0.0,0.0,0.0,0.0,0.0,0.0,0.0,0.0,0.0,0.0,0.0,0.0,0.0,0.0,2.4117,0.0,0.0,0.0,0.0,0.0,0.0,0.0,0.0,0.0,0.0,0.0,3.1519,3.3399,3.476,3.5917,3.6795,3.7241,3.753,0.0,0.0,0.0,0.0,0.0,0.0,0.0,0.0,0.0,0.0,0.0,0.0,0.0,0.0,3.1229,2.9134,2.9206,2.9567,2.9556,0.0,0.0,0.0,0.0,0.0,0.0,0.0,0.0,0.0,0.0,0.0,0.0,0.0,0.0,2.7355,0.0,2.6072,0.0,0.0,0.0,0.0,0.0,0.0,0.0,0.0,3.4414,3.5304,3.647,3.6457,3.6289,0.0,3.5629,3.4583,0.0,0.0,0.0,0.0,0.0,0.0,0.0,0.0,3.7552,4.0874,4.251,4.4154,4.5798,4.5565,4.5189,4.4845,4.3673,4.1884,3.9427,3.7156,3.4871,0.0,0.0,0.0,0.0,0.0,0.0,0.0,0.0,0.0,0.0,0.0,0.0,0.0,0.0,0.0,0.0,0.0,0.0,0.0,0.0,0.0,0.0,0.0,2.7257,0.0,0.0,0.0,0.0,0.0,0.0,0.0,0.0,0.0,3.1638,3.2647,3.3946,3.5701,3.6507,3.7156,3.7685,0.0,0.0,0.0,0.0,0.0,0.0,0.0,3.8516,3.8334,3.8166,3.7974,3.7781,3.6903,3.5977,3.5328,0.0,0.0,3.2287,3.2478,3.3091,3.3091,3.3524,3.4102,3.4835,3.5232,3.5689,0.0,0.0,0.0,0.0,0.0,0.0,0.0,0.0,3.2946,3.3093,0.0,3.1507,0.0,0.0,0.0,0.0,0.0,3.2202,0.0,0.0,3.7156,3.8214,3.9667,3.9739,3.9729,3.9715,3.9705,3.9643,3.9331,3.4523,0.0,0.0,0.0,0.0,0.0,0.0,3.942,4.2067,4.3634,4.4917,4.5974,4.599,4.5942,4.583,4.4379,4.2639,4.0595,3.8987,3.6892,3.427,3.2154,0.0,0.0,0.0,0.0,0.0,0.0,0.0,0.0,0.0,0.0,0.0,0.0,0.0,0.0,0.0,0.0,0.0,0.0,0.0,0.0,2.8579,0.0,0.0,0.0,0.0,0.0,0.0,0.0,0.0,0.0,0.0,3.4871,3.4955,3.5688,3.7795,0.0,0.0,0.0,0.0,3.9643,3.9667,3.9681,3.9681,3.9705,3.9715,3.9922,4.0427,0.0,0.0,3.9018,3.8922,3.886,3.8874,3.885,3.8091,3.5592,3.6254,3.718,3.7265,3.765,3.8457,3.943,3.9551,3.9888,3.6747,0.0,0.0,0.0,0.0,3.427,3.5112,3.5653,3.6351,3.6771,3.6903,3.5473,0.0,0.0,0.0,0.0,0.0,0.0,3.7867,4.0369,4.0936,4.1822,4.2946,4.297,4.2754,4.2384,4.2399,4.2206,4.1812,4.0359,3.8567,3.6447,0.0,0.0,0.0,0.0,4.1196,4.4091,4.5413,4.6711,4.8147,4.7433,4.6663,4.5902,4.5085,4.4196,4.321,4.1317,3.9393,3.7491,3.5027,0.0,0.0,0.0,0.0,0.0,0.0,0.0,0.0,0.0,0.0,0.0,0.0,0.0,0.0,0.0,0.0,0.0,0.0,0.0,3.2204,3.2616,3.267,0.0,0.0,0.0,0.0,0.0,0.0,0.0,0.0,0.0,3.8599,3.8115,3.8166,0.0,0.0,4.0359,4.0475,4.0657,4.0874,4.1259,4.1307,0.0,4.1827,4.2158,4.2432,4.2591,4.2495,4.223,4.1716,4.1345,4.097,4.0609,4.1139,4.1355,4.0696,3.9874,3.9671,3.997,4.0465,4.1273,4.2442,4.2576,4.274,4.0355,3.76,3.6975,3.6625,3.6649,3.7805,3.8719,3.943,3.9743,4.008,4.0282,3.8912,3.8203,3.795,3.7311,0.0,0.0,0.0,4.0994,4.2952,4.3673,4.4467,4.5229,4.5453,4.5413,4.5092,4.5077,4.4964,4.4651,4.4651,4.3592,4.1451,0.0,0.0,4.0403,4.1615,4.3469,4.5876,4.7036,4.814,4.93,4.8561,4.7617,4.6583,4.6231,4.559,4.4637,4.3039,4.1403,3.9788,3.7383,3.5124,0.0,0.0,0.0,0.0,0.0,0.0,0.0,0.0,0.0,0.0,0.0,2.3232,2.5044,0.0,0.0,0.0,3.1721,3.3897,3.5893,3.54,0.0,0.0,0.0,0.0,0.0,0.0,0.0,3.7071,3.842,3.9791,4.1177,4.1326,4.1302,4.1355,4.1788,4.211,4.211,0.0,4.2856,4.3192,4.3409,4.3665,4.3977,4.4443,4.4836,4.5053,4.4884,4.4611,4.4122,4.3592,4.318,4.3098,4.3506,4.4059,4.4406,4.3798,4.3136,4.2843,4.3168,4.3894,4.4931,4.5029,4.5252,4.3144,4.2173,4.0715,4.0306,4.0657,4.1235,4.2053,4.2958,4.303,4.3054,4.2958,4.1956,4.122,4.0701,4.0715,0.0,4.2317,4.2813,4.3601,4.4637,4.5638,4.6375,4.6904,4.7425,4.769,4.769,4.7738,4.7762,4.7738,4.7762,4.7473,4.6904,4.4649,4.3349,4.3198,4.4596,4.607,4.7499,4.8585,4.9339,4.9794,4.9479,4.8819,4.7749,4.7669,4.693,4.5428,4.4376,4.309,4.1471,3.9434,3.7348,3.5208,0.0,0.0,0.0,0.0,0.0,0.0,0.0,0.0,0.0,0.0,0.0,0.0,0.0,0.0,0.0,3.5052,0.0,3.8096,3.7241,0.0,0.0,0.0,3.6326,3.741,3.8035,3.8781,3.9801,0.0,0.0,4.291,4.4395,4.4836,4.3463,4.3601,4.3802,4.3818,4.4652,4.5325,4.5421,4.583,4.6166,4.6375,4.6759,4.7185,4.7497,4.7257,4.6704,4.6207,4.5693,4.5522,4.5812,4.5947,4.6221,4.7043,4.7436,4.7472,4.5804,4.5845,4.636,4.6956,4.7256,4.7572,4.5197,4.4932,4.4572,4.3577,4.2356,4.361,4.4331,4.4572,4.498,4.5149,4.5101,4.4476,4.3883,4.3379,4.3363,4.3955,4.498,4.5116,4.5958,4.7329,4.7617,4.8019,4.8548,4.9078,4.9335,4.9383,4.9751,4.9926,4.9926,4.995,4.9662,4.9167,4.9216,4.8119,4.5926,4.6944,4.8101,4.928,5.0331,5.0882,5.0854,5.1049,5.0639,4.9586,4.917,4.8599,4.7775,4.6501,4.5061,4.3468,4.19,4.008,3.7947,3.6218,0.0,0.0,0.0,0.0,0.0,0.0,0.0,0.0,0.0,2.9268,3.1384,0.0,3.3585,0.0,3.6531,3.8228,3.9657,3.885,0.0,0.0,3.8706,3.908,4.0114,4.1081,4.1899,4.2519,4.3859,4.49,4.514,4.6559,4.7586,4.7578,4.6968,4.6559,4.6559,4.6735,4.7233,4.7971,4.8252,4.8644,4.9342,4.9662,4.9631,4.9366,4.8902,4.844,4.8241,4.7733,4.7524,4.7864,4.824,4.8584,4.8813,4.9264,4.9485,4.9073,4.8779,4.8829,4.956,4.9576,4.9675,4.6883,4.6883,4.6961,4.6295,4.5292,4.5654,4.5926,4.6206,4.6495,4.6752,4.6928,4.6399,4.6134,4.607,4.607,4.6519,4.7329,4.7569,4.8163,4.9029,4.9511,4.9895,5.0184,5.0713,5.0954,5.0972,5.1445,5.168,5.168,5.1816,5.209,5.2446,5.2954,5.2693,5.1638,5.072,5.0538,5.1097,5.209,5.2561,5.2438,5.2263,5.1757,5.0945,5.0396,4.988,4.9338,4.8338,4.7083,4.5575,4.432,4.2615,4.0331,3.8719,3.7108,0.0,0.0,0.0,0.0,0.0,0.0,0.0,0.0,0.0,0.0,0.0,3.6313,3.7624,3.8551,3.9513,4.0657,4.021,4.0162,4.0946,4.1018,4.1523,4.2793,4.3673,4.4386,4.486,4.611,4.6992,4.7016,4.8363,4.9487,4.9782,4.9727,4.9445,4.9053,4.9263,4.9718,5.0116,5.0651,5.1176,5.1815,5.1787,5.1636,5.1457,5.1041,5.069,5.0587,5.0157,4.9883,5.0228,5.0534,5.0783,5.0943,5.1391,5.1763,5.1849,5.2294,5.211,5.0786,5.0435,5.0687,4.8416,4.8324,4.8445,4.8462,4.8315,4.7473,4.7329,4.7714,4.773,4.7954,4.8363,4.7978,4.8067,4.85,4.8555,4.8909,4.9438,4.9889,5.0154,5.0256,5.1171,5.1586,5.1628,5.2205,5.264,5.2896,5.3327,5.3667,5.3968,5.4232,5.5005,5.6294,5.6382,5.7016,5.8059,5.5387,5.3701,5.3215,5.3871,5.4166,5.4091,5.3353,5.271,5.2167,5.1625,5.1099,5.054,4.9988,4.9026,4.7694,4.6702,4.5123,4.2769,4.1215,3.9861,0.0,3.7171,0.0,0.0,0.0,0.0,0.0,0.0,0.0,0.0,3.753,3.9021,4.0489,4.0595,4.0836,4.1451,4.1499,4.1932,4.2958,4.3102,4.3713,4.5205,4.5806,4.6351,4.6944,4.7932,4.8575,4.8669,4.9937,5.0881,5.1139,5.1808,5.1995,5.1476,5.1726,5.1931,5.1784,5.2779,5.3402,5.35,5.3326,5.3229,5.3389,5.3074,5.2893,5.2756,5.2632,5.2578,5.2925,5.3236,5.3459,5.3638,5.4097,5.4394,5.4506,5.5709,5.5577,5.2472,5.1926,5.215,5.0108,4.9569,4.9478,4.923,4.8957,4.9198,4.9102,4.8789,4.8813,4.8837,4.8974,4.9294,4.9528,4.9624,5.0046,5.0527,5.1032,5.1153,5.1435,5.1844,5.2061,5.2157,5.2205,5.3082,5.4377,5.5933,5.6592,5.7855,5.97,5.9511,5.9672,6.0208,6.0545,6.066,6.0651,0.0,0.0,0.0,5.5647,5.5092,5.4688,5.4791,5.4616,5.4084,5.3491,0.0,5.2405,5.1617,5.0628,4.9479,4.8961,0.0,0.0,0.0,0.0,0.0,0.0,0.0,0.0,0.0,0.0,0.0,4.019,3.9465,3.8922,3.9898,4.0898,4.1634,4.1692,4.2077,4.2976,4.3057,4.349,4.4524,4.4668,4.5293,4.6807,4.7136,4.7569,4.8548,4.9438,5.0063,5.0285,5.1154,5.2083,5.2817,5.3217,5.3589,5.4139,5.3393,5.2907,5.3199,5.4047,5.466,5.4684,5.4617,5.453,5.4156,5.4002,5.3991,5.4099,5.4881,5.5529,5.5977,5.6931,5.7682,5.7705,5.7869,5.7845,5.7976,5.8301,5.7926,5.6008,5.6564,5.749,5.2252,0.0,5.1649,5.1317,0.0,5.1256,5.1125,5.0665,5.0401,5.0449,5.0689,5.0954,5.1074,5.1098,5.1363,5.1796,5.2301,5.2524,5.2932,5.3437,5.3721,5.4248,5.5047,5.5726,5.7026,5.8797,5.9469,6.0438,6.1541,6.1604,6.2109,6.296,6.3179,6.3543,6.4032,6.3743,6.2211,5.9378,5.812,5.7185,5.6578,5.5804,5.5282,5.4981,5.4429,0.0,0.0,0.0,0.0,0.0,0.0,0.0,0.0,0.0,0.0,4.4689,4.4108,4.3621,4.3159,4.312,4.3346,4.3866,4.3673,4.2856,4.1307,4.1682,4.2293,4.3072,4.3385,4.373,4.422,4.4748,4.5389,4.6182,4.6519,4.7136,4.8098,4.8524,4.9005,4.9775,5.0517,5.1059,5.1453,5.2248,5.2926,5.3577,5.4651,5.5674,5.6253,5.5236,5.4383,5.4794,5.4856,5.5127,5.5552,5.6095,5.654,5.6711,5.7377,5.7887,5.8179,5.8806,5.9384,5.961,6.0249,6.0712,6.0668,6.0668,6.0695,6.0798,6.129,6.156,6.0743,5.9849,5.9237,5.4408,5.4158,5.3825,5.3402,5.2985,5.2985,5.2835,5.2598,0.0,0.0,0.0,5.2397,5.2494,5.259,5.2662,5.298,5.3541,5.4264,5.4813,5.5193,5.5988,5.7053,5.833,5.8778,5.9867,6.155,6.2193,6.2708,6.3123,6.3396,6.4156,6.5318,6.542,6.604,6.707,6.604,6.4492,6.2571,6.0703,5.9448,5.8771,5.692,5.593,5.593,5.5149,5.4748,5.473,5.4629,5.4054,5.2857,5.2672,5.1718,4.9752,4.9305,4.8608,4.7522,4.7321,4.7158,4.6843,4.6858,4.6728,4.6471,4.6375,4.5437,4.3367,4.3391,4.3818,4.4676,4.5205,4.5565,4.5662,4.6463,4.7209,4.7714,4.8171,4.8669,4.9311,5.0039,5.0593,5.103,5.1981,5.263,5.2974,5.3945,5.4655,5.512,5.6774,5.8152,5.86,5.7812,5.7084,5.7418,5.732,5.6806,5.7291,5.8104,5.8942,5.9746,6.0836,6.1893,6.2371,6.2717,6.2902,6.2683,6.305,6.328,6.33,6.3318,6.3276,6.3258,6.4246,6.508,6.4826,6.2638,6.1058,5.5916,5.4936,5.4705,5.4126,5.334,5.334,5.3549,5.3833,5.2689,5.2247,5.2344,5.2782,5.3215,5.363,5.4063,5.4568,5.5183,5.6931,5.7606,5.7462,5.919,6.0148,6.0392,6.0909,6.2319,6.439,6.4719,6.5869,6.7598,6.7513,6.7758,6.812,6.8234,6.8289,6.8487,6.8318,6.7543,6.6128,6.2935,6.0957,6.0286,5.8798,5.7995,5.7916,5.6234,5.5282,5.5282,5.4873,5.4486,5.43,5.3788,5.3117,5.2388,5.1592,5.0893,5.0297,5.0333,5.0361,5.0376,5.0467,4.9976,4.8775,4.8236,4.7064,4.5013,4.5629,4.6206,4.6375,4.6848,4.7353,4.7802,4.7978,4.8315,4.8806,4.8974,4.939,5.0475,5.1731,5.2481,5.2373,5.4793,5.6106,5.5616,5.6821,5.8289,5.9501,6.0075,6.0835,6.1618,6.1389,6.1238,6.1505,6.154,6.1505,6.1158,6.1637,6.1831,6.2036,6.2328,6.2785,6.3012,6.3858,6.4506,6.4428,6.5357,6.6063,6.6168,6.6264,6.613,6.6091,6.6432,6.6557,6.6582,6.5848,6.5594,5.6674,5.6116,5.5721,5.5543,5.5466,5.4992,5.469,5.4586,5.4016,5.3642,5.3464,5.3766,5.4522,5.5471,5.5185,5.6415,5.8773,5.8811,5.945,6.0609,6.1505,6.2398,6.3217,6.3341,6.4403,6.6202,6.6185,6.6723,6.767,6.7616,6.7807,6.826,6.8305,6.8334,6.826,6.7957,6.7318,6.634,6.4342,6.2809,6.1801,6.0362,5.9227,5.8453,5.821,5.7434,5.5915,5.6349,5.6165,5.5067,5.478,5.4272,5.356,5.3321,5.2924,5.2258,5.227,5.2242,5.2083,5.1936,5.1294,5.0064,4.9734,4.9102,4.781,4.7617,4.769,4.7971,4.826,4.8452,4.8741,4.927,4.9686,4.9926,5.116,5.2287,5.3041,5.4344,5.5383,5.5764,5.7033,5.8083,5.8287,5.9262,6.0271,6.1393,6.2491,6.3937,6.5185,6.5512,6.4788,6.3004,6.2489,6.2489,6.2587,6.3234,6.3726,6.4152,6.491,6.5474,6.5814,6.6543,6.6793,6.694,6.7514,6.7861,6.7928,6.7911,6.7928,6.7928,6.7928,6.7928,6.7911,6.7911,6.7696,5.8525,5.8371,5.798,5.8071,5.8405,5.772,5.71,5.6685,5.663,5.6366,5.6059,5.5655,5.6346,5.7814,5.7205,5.8724,6.1474,6.1084,6.1629,6.3169,6.3686,6.4559,6.5641,6.5526,6.6134,6.7281,6.7231,6.7074,6.6928,6.7044,6.7393,6.7857,6.7887,6.7828,6.7654,6.7161,6.6564,6.5915,6.5274,6.4428,6.3303,6.1857,6.0551,5.9567,6.0156,5.9515,5.7392,5.7957,5.7686,5.6203,5.5638,5.5064,5.4395,5.4495,5.4381,5.3901,5.3861,5.3755,5.3509,5.3126,5.2472,5.1565,5.1372,5.1148,5.0682,5.0197,4.974,4.9669,4.9775,4.99,5.0177,5.1066,5.17,5.1925,5.3839,5.5283,5.5863,5.7288,5.8409,5.8994,5.9698,6.063,6.1154,6.1807,6.2618,6.356,6.51,6.6822,6.7913,6.8521,6.7261,6.5139,6.3926,6.4138,6.3996,6.49,6.581,6.6355,6.7236,6.786,6.8359,6.8651,6.8731,6.8577,6.8639,6.8678,6.8765,6.8736,6.8707,6.8649,6.862,6.8707,6.8678,6.8678,6.8521,6.3145,6.275,6.2436,6.239,6.1888,6.179,6.1683,6.1585,6.1398,6.1256,6.0846,5.8877,5.9009,6.0728,6.1201,6.192,6.3012,6.4525,6.4867,6.4551,6.6081,6.6957,6.7094,6.7081,6.7339,6.7803,6.7754,6.7393,6.6957,6.748,6.7828,6.7887,6.7887,6.7596,6.7074,6.6957,6.6593,6.5893,6.5837,6.547,6.4769,6.3361,6.2542,6.2409,6.1233,6.05,6.0,5.9026,5.8339,5.8013,5.6443,5.5401,5.5265,5.4856,5.4787,5.5175,5.5207,5.5245,5.5285,5.4865,5.4373,5.3923,5.3425,5.3197,5.3213,5.3959,5.354,5.2156,5.1868,5.2211,5.2585,5.3768,5.471,5.5102,5.658,5.7711,5.8476,6.0135,6.1114,6.0312,6.3012,6.4877,6.4023,6.4855,6.606,6.67,6.7465,6.8224,6.8507,6.8678,6.8731,6.8122,6.8076,6.7962,6.7854,6.8207,6.812,6.8332,6.8543,6.8707,6.8765,6.8794,6.8794,6.8794,6.8794,6.8794,6.8794,6.8794,6.8794,6.8794,6.8794,6.8794,6.8794,6.8794,6.8649,6.3532,6.327,6.297,6.2716,6.2543,6.2852,6.278,6.2499,6.2331,6.2735,6.346,6.2869,6.2849,6.313,6.2766,6.3831,6.6026,6.5963,6.6342,6.7004,6.7835,6.8186,6.8157,6.7797,6.7753,6.7841,6.7509,6.7161,6.7074,6.7596,6.7887,6.7887,6.7887,6.7741,6.748,6.7103,6.6738,6.6506,6.6506,6.636,6.6009,6.4783,6.3684,6.2922,6.3049,6.2275,6.0859,6.0798,6.0593,5.9749,5.8919,5.8078,5.7237,5.6952,5.6543,5.6005,5.6467,5.6741,5.6548,5.6345,5.6407,5.6768,5.5786,5.5662,5.6942,5.752,5.7545,5.7273,5.6069,5.5342,5.5585,5.6487,5.7354,5.8042,5.9542,6.093,6.1815,6.3404,6.438,6.437,6.5526,6.6511,6.6509,6.7214,6.7947,6.8388,6.8666,6.8765,6.8794,6.8794,6.8794,6.8794,6.8794,6.8794,6.8794,6.8794,6.8794,6.8794,6.8794,6.8794,6.8794,6.8794,6.8794,6.8794,6.8794,6.8794,6.8794,6.8794,6.8794,6.8794,6.8794,6.8794,6.8794,6.8794,6.8794,6.4802,6.4747,6.4384,6.4235,6.4263,6.4636,6.4598,6.4263,6.4235,6.4824,6.5828,6.6338,6.6234,6.5621,6.4872,6.6015,6.8051,6.7225,6.7347,6.8482,6.855,6.855,6.8492,6.8148,6.7887,6.7828,6.7422,6.719,6.7219,6.7625,6.7887,6.7887,6.7887,6.7799,6.7596,6.7103,6.6899,6.6899,6.6899,6.6899,6.6754,6.5999,6.4992,6.4147,6.496,6.4504,6.2474,6.2962,6.2828,6.1778,6.1349,6.0641,5.9607,5.9519,5.9049,5.8143,5.8656,5.8961,5.8668,5.8668,5.892,5.9484,5.8613,5.871,6.0062,6.0673,6.1225,6.1704,6.0687,5.9697,5.8689,5.949,6.0333,6.1,6.2665,6.4088,6.4792,6.6091,6.6813,6.714,6.7211,6.758,6.8073,6.8446,6.8719,6.8736,6.8765,6.8794,6.8794,6.8794,6.8794,6.8794,6.8794,6.8794,6.8794,6.8794,6.8794,6.8794,6.8794,6.8794,6.8794,6.8794,6.8794,6.8794,6.8794,6.8794,6.8794,6.8794,6.8794,6.8794,6.8794,6.8794,6.8794,6.8794,6.8794,6.8567,6.847,6.8504,6.8282,6.8458,6.8373,6.8407,6.8076,6.8299,6.8463,6.8405,6.8509,6.8601,6.8424,6.8164,6.8528,6.8743,6.8579,6.8335,6.809,6.8032,6.7974,6.7945,6.7916,6.7916,6.7974,6.7916,6.7857,6.7857,6.7916,6.7887,6.7916,6.7945,6.7625,6.719,6.7074,6.6928,6.7044,6.7028,6.6986,6.6957,6.687,6.6763,6.6632,6.675,6.6565,6.6298,6.5282,6.4578,6.4493,6.3242,6.2406,6.2292,6.224,6.2062,6.2036,6.2169,6.224,6.215,6.2088,6.2201,6.2307,6.2083,6.2238,6.2596,6.3415,6.3991,6.4119,6.4995,6.4482,6.2425,6.2884,6.3787,6.434,6.5696,6.6508,6.6698,6.7289,6.7795,6.7899,6.8247,6.8521,6.8724,6.8782,6.8794,6.8794,6.8794,6.8794,6.8794,6.8794,6.8794,6.8794,6.8794,6.8794,6.8794,6.8794,6.8794,6.8794,6.8794,6.8794,6.8794,6.8794,6.8794,6.8794,6.8794,6.8794,6.8794,6.8794,6.8794,6.8794,6.8794,6.8794,6.8794,6.8794,6.8794,6.8794,6.8794,6.8794,6.8794,6.8794,6.8794,6.8794,6.8794,6.8794,6.8794,6.8794,6.8794,6.8794,6.8794,6.8794,6.8794,6.8794,6.8794,6.8666,6.8479,6.8463,6.8463,6.8479,6.8479,6.8463,6.8479,6.8479,6.8479,6.8479,6.8463,6.8479,6.8479,6.8509,6.8347,6.816,6.8102,6.8114,6.8131,6.8114,6.8131,6.8056,6.8114,6.8114,6.8056,6.7335,6.6899,6.6899,6.6376,6.6081,6.6081,6.5597,6.4866,6.3943,6.2997,6.2507,6.2594,6.339,6.3892,6.3909,6.3909,6.4338,6.5148,6.4406,6.4573,6.5703,6.6342,6.6717,6.7116,6.7514,6.7231,6.664,6.6132,6.612,6.6694,6.7222,6.7683,6.8044,6.8347,6.8479,6.8492,6.8695,6.8794,6.8794,6.8794,6.8794,6.8794,6.8794,6.8794,6.8794,6.8794,6.8794,6.8794,6.8794,6.8794,6.8794,6.8794,6.8794,6.8794,6.8794,6.8794,6.8794,6.8794,6.8794,6.8794,6.8794,6.8852,6.8881,6.9055,6.8997,6.8968,6.8968,6.9084,6.8794,6.9055,6.8997,6.8794,6.8794,6.8794,6.8794,6.8794,6.8794,6.8794,6.8794,6.8794,6.8794,6.8794,6.8794,6.8794,6.8794,6.8794,6.8794,6.8794,6.8794,6.8794,6.8794,6.8794,6.8794,6.8794,6.8794,6.8794,6.8794,6.8794,6.8794,6.8794,6.8794,6.8794,6.8794,6.8794,6.8794,6.8794,6.8794,6.8794,6.8794,6.8794,6.8794,6.8794,6.8794,6.8794,6.8678,6.7957,6.7538,6.7538,6.7492,6.7492,6.7522,6.7538,6.706,6.6026,6.5074,6.4527,6.4631,6.5497,6.6009,6.6009,6.6026,6.6444,6.7343,6.6674,6.6757,6.8031,6.8189,6.8421,6.8678,6.8794,6.8794,6.8649,6.7982,6.7696,6.8102,6.8189,6.8334,6.8724,6.8765,6.8765,6.8765,6.8765,6.8794,6.8794,6.8794,6.8794,6.8794,6.8794,6.8794,6.8794,6.8794,6.8794,6.8794,6.8794,6.8794,6.8794,6.8794,6.8794,6.8794,6.8794,6.8794,6.8794,6.8794,6.8823,6.8794,6.8852,6.8956,6.9072,6.9275,6.9333,6.9316,6.9577,6.9781,6.9606,6.9507,6.9536,6.8794,6.8794,6.8794,6.8794,6.8794,6.8794,6.8794,6.8794,6.8794,6.8794,6.8794,6.8794,6.8794,6.8794,6.8794,6.8794,6.8794,6.8794,6.8794,6.8794,6.8794,6.8794,6.8794,6.8794,6.8794,6.8794,6.8823,6.8869,6.8898,6.8985,6.8997,6.8881,6.8968,6.9055,6.8881,6.8997,6.891,6.8968,6.8997,6.891,6.8823,6.8939,6.891,6.8823,6.8753,6.8695,6.8707,6.8678,6.8637,6.8649,6.8678,6.8765,6.8468,6.8299,6.8538,6.8253,6.8606,6.8639,6.8606,6.8497,6.8359,6.8545,6.861,6.8422,6.8569,6.8678,6.8753,6.8765,6.8794,6.8794,6.8794,6.8678,6.862,6.8782,6.8678,6.8724,6.8765,6.8794,6.8794,6.8794,6.8794,6.8794,6.8794,6.8794,6.8794,6.8794,6.8794,6.8794,6.8794,6.8794,6.8794,6.8794,6.8794,6.8794,6.8794,6.8794,6.8794,6.8794,6.8794,6.8794,6.8794,6.8794,6.8956,6.8985,6.9345,6.9449,6.974,6.9943,7.0175,7.0233,7.0436,7.0407,7.0262,7.0146,7.032,6.8794,6.8794,6.8794,6.8794,6.8794,6.8794,6.8794,6.8794,6.8794,6.8794,6.8794,6.8794,6.8794,6.8794,6.8794,6.8794,6.8794,6.8794,6.8794,6.8823,6.8823,6.8823,6.8823,6.8823,6.8794,6.8881,6.9263,6.9466,6.9554,6.9885,7.0117,7.0117,7.0088,7.0117,7.0059,7.0117,7.0117,7.0117,7.0117,6.9931,6.9583,6.9885,6.9711,6.8956,6.9234,6.9292,6.8823,6.8794,6.8794,6.8794,6.8794,6.8794,6.8794,6.8794,6.8794,6.8794,6.8794,6.8794,6.8794,6.8794,6.8794,6.8794,6.8794,6.8794,6.8794,6.8794,6.8794,6.8794,6.8794,6.8794,6.8794,6.8794,6.8823,6.8794,6.8794,6.8794,6.8794,6.8794,6.8794,6.8794,6.8794,6.8794,6.8794,6.8794,6.8794,6.8794,6.8794,6.8794,6.8794,6.8794,6.8794,6.8794,6.8794,6.8794,6.8794,6.8794,6.8794,6.8794,6.8794,6.8794,6.8794,6.8823,6.8985,6.9379,6.9711,7.0088,7.0378,7.0639,7.0901,7.0842,7.0784,7.0755,7.0726,7.0813,7.1017,6.8794,6.8794,6.8794,6.8794,6.8794,6.8794,6.8794,6.8794,6.8794,6.8794,6.8794,6.8794,6.8956,6.913,6.9159,6.9304,6.9478,6.9507,6.949,6.9449,6.9217,6.9275,6.9478,6.9507,6.9507,6.9565,6.9931,7.0134,7.0163,7.0494,7.0697,7.0697,7.0697,7.0668,7.0697,7.0697,7.0697,7.0697,7.0668,7.0512,7.0279,7.0494,7.032,6.9682,6.9931,6.9902,6.9519,6.9507,6.9275,6.8881,6.8794,6.8794,6.8794,6.8794,6.8794,6.8794,6.8794,6.8794,6.8794,6.8794,6.8794,6.8794,6.8794,6.8794,6.8794,6.8794,6.8794,6.8794,6.8794,6.8794,6.8823,6.9072,6.9147,6.9176,6.8956,6.8823,6.8794,6.8794,6.8794,6.8794,6.8794,6.8794,6.8794,6.8794,6.8794,6.8794,6.8794,6.8794,6.8794,6.8794,6.8823,6.8823,6.8794,6.8794,6.8794,6.8794,6.8794,6.8794,6.8794,6.8794,6.8794,6.8823,6.8927,6.9728,7.0192,7.0773,7.1121,7.144,7.1655,7.1423,7.1278,7.151,7.1684,7.1597,7.1713,6.8881,6.8881,6.891,6.8997,6.8997,6.8997,6.9055,6.8968,6.8968,6.9026,6.8997,6.9084,6.9333,6.9774,6.9844,7.0076,7.0581,7.0552,7.0581,7.0512,7.0267,7.018,7.0436,7.0465,7.0465,7.0552,7.0668,7.0755,7.0755,7.0947,7.0813,7.0959,7.1017,7.0871,7.1017,7.0871,7.0959,7.0988,7.093,7.0901,7.0784,7.0871,7.0755,7.061,7.0697,7.0697,7.0523,7.0494,7.0059,6.9113,6.9055,6.9084,6.8968,6.891,6.9026,6.9084,6.8939,6.9026,6.8968,6.9113,6.9084,6.9084,6.9113,6.8898,6.9084,6.9142,6.9142,6.9113,6.9084,6.9026,6.9159,6.9495,6.9803,6.9774,6.942,6.9113,6.8968,6.8997,6.9113,6.9072,6.8939,6.8939,6.9084,6.9055,6.9055,6.9055,6.9084,6.9142,6.9142,6.9229,6.8997,6.9026,6.9171,6.9229,6.9374,6.9188,6.9246,6.949,6.9374,6.9258,6.9258,6.9304,6.9536,7.025,7.0819,7.14,7.1806,7.205,7.2236,7.2148,7.2236,7.2555,7.2497,7.2265,7.2177,6.9815,7.0175,7.0204,7.0204,7.0187,7.0204,7.0204,7.0204,7.0158,7.0117,7.0175,7.0187,7.0233,7.0436,7.0465,7.0552,7.0755,7.0755,7.1005,7.1371,7.1284,7.0947,7.0755,7.0726,7.0755,7.0813,7.1237,7.1429,7.1487,7.1818,7.2032,7.209,7.2003,7.2032,7.2119,7.2032,7.209,7.209,7.209,7.1829,7.1528,7.1876,7.1597,7.0813,7.1179,7.1179,7.0784,7.0697,7.061,7.0262,7.0204,7.0204,7.0117,7.0117,7.0088,7.0088,7.0146,7.0175,7.0175,7.0146,7.0175,7.0204,7.0088,7.0187,7.0204,7.0204,7.0204,7.0204,7.0187,7.0175,7.0187,7.0349,7.0465,7.0453,7.032,7.0175,7.0117,7.0204,7.0204,7.0204,7.0146,7.0117,7.0088,7.0071,7.0071,7.0088,7.0088,7.0059,6.9943,6.9972,6.9885,6.9943,7.003,7.0001,6.996,6.9745,6.9803,7.0233,7.0233,7.0059,7.0192,7.0337,7.0761,7.1342,7.1615,7.2108,7.2282,7.2439,7.2584,7.2613,7.2613,7.2613,7.2613,7.2468,7.2439,7.0395,7.0697,7.0697,7.0697,7.0697,7.0697,7.0697,7.0697,7.0697,7.0697,7.0697,7.0697,7.0842,7.1121,7.1121,7.1278,7.1481,7.151,7.1713,7.1992,7.2068,7.1876,7.1597,7.151,7.151,7.151,7.1876,7.205,7.2108,7.2456,7.2584,7.2555,7.2613,7.2613,7.2526,7.2613,7.2613,7.2584,7.2584,7.2381,7.2137,7.2398,7.2236,7.1655,7.1905,7.1847,7.1557,7.151,7.1278,7.0842,7.0697,7.0697,7.0697,7.0697,7.0697,7.0697,7.0697,7.0697,7.0697,7.0697,7.0697,7.0697,7.0697,7.0697,7.0668,7.0697,7.0697,7.0668,7.0697,7.0697,7.0755,7.0947,7.122,7.1481,7.151,7.1278,7.0813,7.0639,7.0697,7.0697,7.0697,7.0697,7.0726,7.0726,7.0726,7.0668,7.0581,7.061,7.061,7.0726,7.0755,7.0697,7.0581,7.0494,7.0465,7.0308,7.0279,7.0697,7.1017,7.086,7.0889,7.111,7.1371,7.1777,7.2282,7.2613,7.2613,7.2613,7.2613,7.2613,7.2613,7.2613,7.2613,7.2613,7.2613,7.0842,7.0901,7.0918,7.0901,7.0959,7.093,7.1046,7.0959,7.1017,7.1017,7.1017,7.0959,7.1353,7.1806,7.1806,7.205,7.2526,7.241,7.2468,7.2526,7.2526,7.2439,7.241,7.2352,7.2381,7.241,7.2555,7.2555,7.2497,7.2584,7.2613,7.2613,7.2613,7.2613,7.2613,7.2613,7.2613,7.2613,7.2613,7.2584,7.2497,7.2555,7.2497,7.2439,7.241,7.2497,7.2439,7.2439,7.2032,7.0959,7.0883,7.1017,7.0988,7.0959,7.0959,7.1046,7.1104,7.1075,7.0959,7.1075,7.0988,7.1046,7.1017,7.0901,7.1046,7.1104,7.1133,7.1133,7.093,7.1075,7.1133,7.1498,7.1905,7.2265,7.2468,7.2003,7.1249,7.0901,7.0901,7.0901,7.093,7.0901,7.0901,7.0901,7.0959,7.1394,7.1336,7.1336,7.1365,7.1394,7.1336,7.122,7.1075,7.0918,7.0901,7.0918,7.0959,7.1162,7.1586,7.1644,7.144,7.1557,7.1719,7.2039,7.2427,7.2584,7.2613,7.2613,7.2613,7.2613,7.2613,7.2613,7.2613,7.2613,7.2613,7.1777,7.2206,7.2177,7.2177,7.2206,7.2206,7.2177,7.2148,7.2148,7.209,7.2148,7.2148,7.2236,7.2369,7.2369,7.2497,7.2584,7.2613,7.2613,7.2613,7.2613,7.2613,7.2613,7.2613,7.2613,7.2613,7.2613,7.2613,7.2613,7.2613,7.2613,7.2613,7.2613,7.2613,7.2613,7.2613,7.2613,7.2613,7.2613,7.2613,7.2613,7.2613,7.2613,7.2613,7.2613,7.2613,7.2613,7.2613,7.2468,7.2265,7.2119,7.2032,7.2032,7.209,7.2061,7.2061,7.209,7.2148,7.2148,7.209,7.2177,7.2061,7.2003,7.2177,7.2177,7.2119,7.2148,7.2177,7.2177,7.2061,7.2061,7.2282,7.2427,7.2555,7.2584,7.2497,7.2236,7.2148,7.209,7.209,7.209,7.2177,7.2166,7.2061,7.2061,7.2148,7.2119,7.2148,7.209,7.2003,7.1916,7.1771,7.1644,7.1528,7.1626,7.1597,7.1597,7.1655,7.1992,7.2224,7.2021,7.1992,7.2137,7.2282,7.2515,7.2584,7.2613,7.2613,7.2613,7.2613,7.2613,7.2613,7.2613,7.2613,7.2613,7.2311,7.2584,7.2613,7.2613,7.2613,7.2613,7.2613,7.2613,7.2613,7.2613,7.2613,7.2613,7.2613,7.2613,7.2613,7.2584,7.2613,7.2613,7.2613,7.2613,7.2613,7.2613,7.2613,7.2613,7.2613,7.2613,7.2613,7.2613,7.2613,7.2613,7.2613,7.2613,7.2613,7.2613,7.2613,7.2613,7.2613,7.2613,7.2613,7.2613,7.2613,7.2613,7.2613,7.2613,7.2613,7.2613,7.2613,7.2613,7.2613,7.2613,7.2613,7.2613,7.2613,7.2613,7.2613,7.2613,7.2613,7.2613,7.2584,7.2613,7.2555,7.2613,7.2613,7.2613,7.2613,7.2613,7.2613,7.2613,7.2584,7.2584,7.2613,7.2584,7.2613,7.2613,7.2613,7.2613,7.2613,7.2613,7.2613,7.2613,7.2526,7.2526,7.2584,7.2613,7.2584,7.2352,7.2352,7.2381,7.241,7.2352,7.241,7.2323,7.2224,7.2195,7.2323,7.2323,7.2224,7.2236,7.2352,7.2485,7.2381,7.2439,7.2526,7.2584,7.2584,7.2584,7.2613,7.2613,7.2613,7.2613,7.2613,7.2613,7.2613,7.2613,7.2613,7.2613,7.2613,7.2613,7.2613,7.2613,7.2613,7.2613,7.2613,7.2613,7.2613,7.2613,7.2613,7.2613,7.2613,7.2613,7.2613,7.2613,7.2613,7.2613,7.2613,7.2613,7.2613,7.2613,7.2613,7.2613,7.2613,7.2613,7.2613,7.2613,7.2613,7.2613,7.2613,7.2613,7.2613,7.2613,7.2613,7.2613,7.2613,7.2613,7.2613,7.2613,7.2613,7.2613,7.2613,7.2613,7.2613,7.2613,7.2613,7.2613,7.2613,7.2613,7.2613,7.2613,7.2613,7.2613,7.2613,7.2613,7.2613,7.2613,7.2613,7.2613,7.2613,7.2613,7.2613,7.2613,7.2613,7.2613,7.2613,7.2613,7.2613,7.2613,7.2613,7.2613,7.2613,7.2613,7.2613,7.2613,7.2613,7.2613,7.2613,7.2613,7.2613,7.2613,7.2613,7.2613,7.2613,7.2613,7.2613,7.2613,7.2613,7.2613,7.2613,7.2456,7.2398,7.2497,7.2555,7.2497,7.2526,7.2613,7.2613,7.2613,7.2613,7.2613,7.2613,7.2584,7.2613,7.2613,7.2613,7.2613,7.2613,7.2613,7.2613,7.2613,7.2613,7.2613,7.2613,7.2613,7.2613,7.2613,7.2613,7.2613,7.2613,7.2613,7.2613,7.2613,7.2613,7.2613,7.2613,7.2613,7.2613,7.2613,7.2613,7.2613,7.2613,7.2613,7.2613,7.2613,7.2613,7.2613,7.2613,7.2613,7.2613,7.2613,7.2613,7.2613,7.2613,7.2613,7.2613,7.2613,7.2613,7.2613,7.2613,7.2613,7.2613,7.2613,7.2613,7.2613,7.2613,7.2613,7.2613,7.2613,7.2613,7.2613,7.2613,7.2613,7.2613,7.2613,7.2613,7.2613,7.2613,7.2613,7.2613,7.2613,7.2613,7.2613,7.2613,7.2613,7.2613,7.2613,7.2613,7.2613,7.2613,7.2613,7.2613,7.2613,7.2613,7.2613,7.2613,7.2613,7.2613,7.2613,7.2613,7.2613,7.2613,7.2613,7.2613,7.2613,7.2613,7.2613,7.2613,7.2613,7.2613,7.2613,7.2613,7.2613,7.2613,7.2613,7.2584,7.2555,7.2584,7.2584,7.2555,7.2555,7.2613,7.2613,7.2613,7.2613,7.2613,7.2613,7.2613,7.2613,7.2613,7.2613,7.2613,7.2613,7.2613,7.2613,7.2613,7.2613,7.2613,7.2613,7.2613,7.2613,7.2613,7.2613,7.2613,7.2613,7.2613,7.2613,7.2613,7.2613,7.2613,7.2613,7.2613,7.2613,7.2613,7.2613,7.2613,7.2613,7.2613,7.2613,7.2613,7.2613,7.2613,7.2613,7.2613,7.2613,7.2613,7.2613,7.2613,7.2613,7.2613,7.2613,7.2613,7.2613,7.2613,7.2613,7.2613,7.2613,7.2613,7.2613,7.2613,7.2613,7.2613,7.2613,7.2613,7.2613,7.2613,7.2613,7.2613,7.2613,7.2613,7.2613,7.2613,7.2613,7.2613,7.2613,7.2613,7.2613,7.2613,7.2613,7.2613,7.2613,7.2613,7.2613,7.2613,7.2613,7.2613,7.2613,7.2613,7.2613,7.2613,7.2613,7.2613,7.2613,7.2613,7.2613,7.2613,7.2613,7.2613,7.2613,7.2613,7.2613,7.2613,7.2613,7.2613,7.2613,7.2613,7.2613,7.2613,7.2613,7.2613,7.2613,7.2613,7.2613,7.2613,7.2613,7.2613,7.2613,7.2613,7.2613,7.2613,7.2613,7.2613,7.2613,7.2613,7.2613,7.2613,7.2613,7.2613,7.2613,7.2613,7.2613,7.2613,7.2613,7.2613,7.2613,7.2613,7.2613,7.2613,7.2613,7.2613,7.2613,7.2613,7.2613,7.2613,7.2613,7.2613,7.2613,7.2613,7.2613,7.2613,7.2613,7.2613,7.2613,7.2613,7.2613,7.2613,7.2613,7.2613,7.2613,7.2613,7.2613,7.2613,7.2613,7.2613,7.2613,7.2613,7.2613,7.2613,7.2613,7.2613,7.2613,7.2613,7.2613,7.2613,7.2613,7.2613,7.2613,7.2613,7.2613,7.2613,7.2613,7.2613,7.2613,7.2613,7.2613,7.2613,7.2613,7.2613,7.2613,7.2613,7.2613,7.2613,7.2613,7.2613,7.2613,7.2613,7.2613,7.2613,7.2613,7.2613,7.2613,7.2613,7.2613,7.2613,7.2613,7.2613,7.2613,7.2613,7.2613,7.2613,7.2613,7.2613,7.2613,7.2613,7.2613,7.2613,7.2613,7.2613,7.2613,7.2613,7.2613,7.2613,7.2613,7.2613,7.2613,7.2613,7.2613,7.2613,7.2613,7.2613,7.2613,7.2613,7.2613,7.2613,7.2613,7.2613,7.2613,7.2613,7.2613,7.2613,7.2613,7.2613,7.2613,7.2613,7.2613,7.2613,7.2613,7.2613,7.2613,7.2613,7.2613,7.2613,7.2613,7.2613,7.2613,7.2613,7.2613,7.2613,7.2613,7.2613,7.2613,7.2613,7.2613,7.2613,7.2613,7.2613,7.2613,7.2613,7.2613,7.2613,7.2613,7.2613,7.2613,7.2613,7.2613,7.2613,7.2613,7.2613,7.2613,7.2613,7.2613,7.2613,7.2613,7.2613,7.2613,7.2613,7.2613,7.2613,7.2613,7.2613,7.2613,7.2613,7.2613,7.2613,7.2613,7.2613,7.2613,7.2613,7.2613,7.2613,7.2613,7.2613,7.2613,7.2613,7.2613,7.2613,7.2613,7.2613,7.2613,7.2613,7.2613,7.2613,7.2613,7.2613,7.2613,7.2613,7.2613,7.2613,7.2613,7.2613,7.2613,7.2613,7.2613,7.2613,7.2613,7.2613,7.2613,7.2613,7.2613,7.2613,7.2613,7.2613,7.2613,7.2613,7.2613,7.2613,7.2613,7.2613,7.2613,7.2613,7.2613,7.2613,7.2613,7.2613,7.2613,7.2613,7.2613,7.2613,7.2613,7.2613,7.2613,7.2613,7.2613,7.2613,7.2613,7.2613,7.2613,7.2613,7.2613,7.2613,7.2613,7.2613,7.2613,7.2613,7.2613,7.2613,7.2613,7.2613,7.2613,7.2613,7.2613,7.2613,7.2613,7.2613,7.2613,7.2613,7.2613,7.2613,7.2613,7.2613,7.2613,7.2613,7.2613,7.2613,7.2613,7.2613,7.2613,7.2613,7.2613,7.2613,7.2613,7.2613,7.2613,7.2613,7.2613,7.2613,7.2613,7.2613,7.2613,7.2613,7.2613,7.2613,7.2613,7.2613,7.2613,7.2613,7.2613,7.2613,7.2613,7.2613,7.2613,7.2613,7.2613,7.2613,7.2613,7.2613,7.2613,7.2613,7.2613,7.2613,7.2613,7.2613,7.2613,7.2613,7.2613,7.2613,7.2613,7.2613,7.2613,7.2613,7.2613,7.2613,7.2613,7.2613,7.2613,7.2613,7.2613,7.2613,7.2613,7.2613,7.2613,7.2613,7.2613,7.2613,7.2613,7.2613,7.2613,7.2613,7.2613,7.2613,7.2613,7.2613,7.2613,7.2613,7.2613,7.2613,7.2613,7.2613,7.2613,7.2613,7.2613,7.2613,7.2613,7.2613,7.2613,7.2613,7.2613,7.2613,7.2613,7.2613,7.2613,7.2613,7.2613,7.2613,7.2613,7.2613,7.2613,7.2613,7.2613,7.2613,7.2613,7.2613,7.2613,7.2613,7.2613,7.2613,7.2613,7.2613,7.2613,7.2613,7.2613,7.2613,7.2613,7.2613,7.2613,7.2613,7.2613,7.2613,7.2613,7.2613,7.2613,7.2613,7.2613,7.2613,7.2613,7.2613,7.2613,7.2613,7.2613,7.2613,7.2613,7.2613,7.2613,7.2613,7.2613,7.2613,7.2613,7.2613,7.2613,7.2613,7.2613,7.2613,7.2613,7.2613,7.2613,7.2613,7.2613,7.2613,7.2613,7.2613,7.2613,7.2613,7.2613,7.2613,7.2613,7.2613,7.2613,7.2613,7.2613,7.2613,7.2613,7.2613,7.2613,7.2613,7.2613,7.2613,7.2613,7.2613,7.2613,7.2613,7.2613,7.2613,7.2613,7.2613,7.2613,7.2613,7.2613,7.2613,7.2613,7.2613,7.2613,7.2613,7.2613,7.2613,7.2613,7.2613,7.2613,7.2613,7.2613,7.2613,7.2613,7.2613,7.2613,7.2613,7.2613,7.2613,7.2613,7.2613,7.2613,7.2613,7.2613,7.2613,7.2613,7.2613,7.2613,7.2613,7.2613,7.2613,7.2613,7.2613,7.2613,7.2631,7.2613,7.2613,7.2613,7.2613,7.2613,7.2613,7.2613,7.2613,7.2613,7.2613,7.2613,7.2613,7.2613,7.2613,7.2613,7.2613,7.2613,7.2613,7.2613,7.2613,7.2613,7.2613,7.2613,7.2613,7.2613,7.2613,7.2613,7.2613,7.2613,7.2613,7.2613,7.2613,7.2613,7.2613,7.2613,7.2613,7.2613,7.2613,7.2613,7.2613,7.2613,7.2613,7.2613,7.2613,7.2613,7.2613,7.2613,7.2613,7.2613,7.2613,7.2613,7.2613,7.2613,7.2613,7.2613,7.2613,7.2613,7.2613,7.2613,7.2613,7.2613,7.2613,7.2613,7.2613,7.2613,7.2613,7.2613,7.2613,7.2613,7.2613,7.2613,7.2613,7.2613,7.2613,7.2613,7.2613,7.2613,7.2613,7.2613,7.2613,7.2613,7.2613,7.2613,7.2613,7.2613,7.2613,7.2613,7.2613,7.2613,7.2613,7.2613,7.2613,7.2613,7.2613,7.2613,7.2613,7.2613,7.2613,7.2613,7.2613,7.2613,7.2613,7.2613,7.2613,7.2613,7.2613,7.2613,7.2613,7.2613,7.2613,7.2613,7.2613,7.2613,7.2666,7.272,7.2666,7.2613,7.2613,7.2613,7.2613,7.2613,7.2613,7.2613,7.2613,7.2613,7.2613,7.2613,7.2613,7.2613,7.2613,7.2613,7.2613,7.2613,7.2613,7.2613,7.2613,7.2613,7.2613,7.2613,7.2613,7.2613,7.2613,7.2613,7.2613,7.2613,7.2613,7.2613,7.2613,7.2613,7.2613,7.2613,7.2613,7.2613,7.2613,7.2613,7.2613,7.2613,7.2613,7.2613,7.2613,7.2613,7.2613,7.2613,7.2613,7.2613,7.2613,7.2613,7.2613,7.2613,7.2613,7.2613,7.2613,7.2613,7.2613,7.2613,7.2613,7.2613,7.2613,7.2613,7.2613,7.2613,7.2613,7.2613,7.2613,7.2613,7.2613,7.2613,7.2613,7.2613,7.2613,7.2613,7.2613,7.2613,7.2613,7.2613,7.2613,7.2613,7.2613,7.2613,7.2613,7.2613,7.2613,7.2613,7.2613,7.2613,7.2613,7.2613,7.2613,7.2613,7.2613,7.2613,7.2613,7.2613,7.2613,7.2613,7.2613,7.2613,7.2613,7.2613,7.2613,7.27,7.2816,7.2816,7.2671,7.2613,7.2613,7.2613,7.2613,7.2684,7.2773,7.272,7.2613,7.2613,7.2613,7.2613,7.2613,7.2613,7.2613,7.2613,7.2613,7.2613,7.2613,7.2613,7.2613,7.2613,7.2613,7.2613,7.2613,7.2613,7.2613,7.2613,7.2613,7.2613,7.2613,7.2613,7.2613,7.2613,7.2613,7.2613,7.2613,7.2613,7.2613,7.2613,7.2613,7.2613,7.2613,7.2613,7.2613,7.2613,7.2613,7.2613,7.2613,7.2613,7.2613,7.2613,7.2613,7.2613,7.2613,7.2613,7.2613,7.2613,7.2613,7.2613,7.2613,7.2613,7.2613,7.2613,7.2613,7.2613,7.2613,7.2613,7.2613,7.2613,7.2613,7.2613,7.2613,7.2613,7.2613,7.2613,7.2613,7.2613,7.2613,7.2613,7.2613,7.2613,7.2613,7.2613,7.2613,7.2613,7.2613,7.2613,7.2613,7.2613,7.2642,7.2642,7.27,7.2671,7.2613,7.2613,7.2613,7.2613,7.2613,7.2613,7.2613,7.2613,7.2613,7.2671,7.27,7.2613,7.2613,7.2613,7.2613,7.27,7.2874,7.3048,7.3135,7.3135,7.3269,7.3443,7.3077,7.2671,7.27,7.2758,7.2602,7.2673,7.272,7.2613,7.2613,7.2613,7.2642,7.2671,7.2613,7.2613,7.2729,7.2758,7.2758,7.2816,7.2787,7.2758,7.2787,7.2903,7.2932,7.2874,7.2758,7.27,7.2758,7.2642,7.2613,7.2613,7.2613,7.2613,7.2613,7.2613,7.2613,7.2613,7.2613,7.2613,7.2613,7.2613,7.2613,7.2613,7.2613,7.2613,7.2613,7.2613,7.2613,7.2613,7.2613,7.2613,7.2613,7.2613,7.2613,7.2613,7.2613,7.2613,7.2613,7.2613,7.2613,7.2613,7.2613,7.2613,7.2613,7.2613,7.2613,7.2642,7.2613,7.2671,7.2613,7.2613,7.2613,7.2613,7.2613,7.2613,7.2613,7.27,7.2718,7.2671,7.27,7.2816,7.2874,7.2932,7.2979,7.3037,7.3048,7.3135,7.3193,7.2874,7.2671,7.2671,7.27,7.2787,7.2758,7.2642,7.2642,7.2729,7.2961,7.3077,7.3135,7.3164,7.3164,7.3164,7.2874,7.2787,7.2671,7.2787,7.3019,7.3164,7.3338,7.3483,7.3618,7.3687,7.3803,7.4111,7.4449,7.394,7.3478,7.3026,7.2903,7.2747,7.2865,7.3205,7.2613,7.2642,7.3077,7.3251,7.3211,7.2776,7.2845,7.328,7.3658,7.3832,7.3861,7.3861,7.3861,7.3861,7.3803,7.3792,7.3745,7.3338,7.3251,7.3222,7.2903,7.2642,7.2642,7.2758,7.2671,7.2613,7.2613,7.2642,7.2613,7.2613,7.2613,7.2613,7.2613,7.2613,7.2613,7.2613,7.2613,7.2613,7.2613,7.2613,7.2613,7.2613,7.2613,7.2613,7.2613,7.2613,7.2613,7.2613,7.2613,7.2613,7.2613,7.2642,7.2642,7.2671,7.2671,7.2642,7.2642,7.2845,7.3077,7.3251,7.3019,7.2845,7.2729,7.2729,7.2613,7.2613,7.2613,7.2758,7.3077,7.3193,7.328,7.3687,7.389,7.3966,7.4024,7.3995,7.4024,7.3995,7.4024,7.4035,7.3861,7.3763,7.3734,7.3483,7.3454,7.3501,7.3472,7.3309,7.3338,7.3745,7.4006,7.4024,7.4053,7.3966,7.385,7.3589,7.3512,7.3571,7.3745,7.3995,7.4082,7.4115,7.4249,7.4409,7.4445,7.4499,7.4867,7.5101,7.4795,7.4375,7.4198,7.3915,7.3827,7.4124,7.4574,7.2932,7.3019,7.3629,7.3919,7.3832,7.3425,7.3541,7.3919,7.4325,7.4499,7.447,7.447,7.447,7.447,7.4499,7.4499,7.4441,7.4122,7.3919,7.3861,7.3512,7.3443,7.3356,7.3193,7.3222,7.3019,7.2903,7.2903,7.2613,7.2613,7.2613,7.2613,7.2613,7.2613,7.2613,7.2613,7.2613,7.2613,7.2613,7.2613,7.2613,7.2613,7.2613,7.2613,7.2613,7.2613,7.2613,7.2613,7.2613,7.2642,7.2642,7.2758,7.2845,7.2961,7.3066,7.3164,7.3309,7.3512,7.3803,7.3919,7.3734,7.3472,7.3298,7.3298,7.3269,7.3396,7.3385,7.3501,7.3687,7.3832,7.4024,7.4488,7.4576,7.4634,7.4605,7.4576,7.4547,7.4518,7.4518,7.4557,7.4634,7.4634,7.4652,7.4459,7.4256,7.4314,7.4372,7.4198,7.4006,7.4354,7.4673,7.4663,7.4605,7.443,7.4372,7.4285,7.4296,7.447,7.466,7.4838,7.4963,7.4973,7.5094,7.5298,7.5634,7.5864,7.5806,7.5791,7.5861,7.5908,7.5864,7.5503,7.5054,7.5224,7.5631,7.3629,7.3716,7.4267,7.4547,7.4547,7.4547,7.4576,7.4528,7.4605,7.4644,7.4615,7.475,7.4808,7.4673,7.4644,7.4702,7.4702,7.4634,7.4557,7.447,7.4267,7.4343,7.4314,7.4285,7.3919,7.3734,7.3571,7.3367,7.2787,7.2961,7.2932,7.2845,7.299,7.299,7.299,7.2961,7.2845,7.27,7.2613,7.2613,7.2613,7.2613,7.27,7.2758,7.2816,7.2874,7.2932,7.2961,7.2903,7.2845,7.2816,7.3135,7.3396,7.3629,7.4006,7.4285,7.4354,7.4372,7.4518,7.4547,7.471,7.4594,7.467,7.4623,7.4343,7.414,7.4064,7.4198,7.4354,7.4488,7.4681,7.4768,7.4837,7.4837,7.4837,7.4837,7.4808,7.4808,7.4808,7.4866,7.4895,7.4924,7.4982,7.4924,7.5058,7.5146,7.5204,7.5127,7.4982,7.4837,7.5098,7.5069,7.4971,7.4826,7.4826,7.5,7.5198,7.5428,7.5418,7.5576,7.567,7.5904,7.615,7.6498,7.7093,7.7218,7.6817,7.6931,7.7321,7.7321,7.7085,7.6751,7.6201,7.6093,7.6291,7.4238,7.4296,7.4953,7.5243,7.5283,7.5726,7.5668,7.5283,7.5697,7.5901,7.5919,7.5919,7.5784,7.5901,7.5948,7.5871,7.5697,7.5475,7.5272,7.5109,7.4895,7.4634,7.4576,7.4634,7.4401,7.4314,7.4209,7.4093,7.3977,7.389,7.3879,7.3977,7.3792,7.385,7.385,7.3937,7.3367,7.2932,7.2787,7.2787,7.2758,7.2758,7.2961,7.3193,7.3309,7.3454,7.3687,7.3803,7.3803,7.3861,7.3919,7.4122,7.4151,7.4238,7.4412,7.4441,7.4528,7.4663,7.5098,7.5214,7.5378,7.5716,7.5832,7.5262,7.4866,7.4615,7.4644,7.4837,7.5069,7.5185,7.5349,7.5436,7.5523,7.5581,7.5581,7.5552,7.5552,7.5552,7.5552,7.5552,7.5581,7.5552,7.561,7.5697,7.5832,7.5948,7.5977,7.5938,7.5861,7.5687,7.5581,7.5552,7.5581,7.5513,7.5763,7.5996,7.6211,7.6359,7.6366,7.648,7.6762,7.7037,7.7251,7.746,7.7725,7.7692,7.7479,7.7733,7.8026,7.8154,7.7976,7.7694,7.7388,7.7231,7.7113,7.4876,7.4982,7.5621,7.5901,7.5959,7.6326,7.6249,7.6017,7.6355,7.6519,7.6519,7.649,7.6519,7.6442,7.6432,7.6413,7.6384,7.6075,7.5901,7.5784,7.5436,7.5465,7.532,7.5233,7.5156,7.504,7.4837,7.4721,7.4663,7.4547,7.4488,7.4412,7.4547,7.4547,7.4459,7.4325,7.4064,7.3658,7.3425,7.3385,7.3327,7.3309,7.3629,7.3832,7.3948,7.4209,7.447,7.4557,7.4528,7.4499,7.4499,7.4644,7.4866,7.5098,7.532,7.5407,7.5436,7.5581,7.5842,7.5901,7.6151,7.6384,7.6519,7.6093,7.5726,7.5494,7.5465,7.5523,7.5708,7.5911,7.6075,7.622,7.6326,7.6461,7.6461,7.6461,7.6461,7.6461,7.6461,7.6432,7.6432,7.6403,7.6461,7.6519,7.6508,7.6411,7.6465,7.6595,7.6454,7.6284,7.6189,7.6151,7.6239,7.6315,7.6556,7.6687,7.6776,7.6967,7.7288,7.7442,7.7807,7.7978,7.8035,7.8083,7.8124,7.8081,7.8045,7.8227,7.8463,7.8536,7.8554,7.8308,7.8139,7.8134,7.8068,7.5592,7.5621,7.6239,7.6442,7.6519,7.65,7.6471,7.6519,7.65,7.6519,7.6519,7.6519,7.6519,7.6519,7.6519,7.6519,7.65,7.6384,7.6326,7.6471,7.6268,7.6181,7.621,7.6413,7.593,7.5679,7.5534,7.5388,7.4924,7.4942,7.5029,7.4644,7.4808,7.4953,7.5011,7.4982,7.4895,7.4826,7.4652,7.4594,7.4401,7.443,7.4528,7.4557,7.4586,7.4644,7.4721,7.4721,7.4663,7.4673,7.4808,7.5127,7.5534,7.5988,7.6268,7.6326,7.621,7.6239,7.6297,7.6326,7.6384,7.649,7.6519,7.6384,7.6181,7.6093,7.6035,7.6035,7.6191,7.622,7.6326,7.6355,7.6442,7.6519,7.6519,7.6519,7.6519,7.6538,7.6594,7.6612,7.6706,7.6725,7.6893,7.693,7.6938,7.6837,7.6874,7.7079,7.7042,7.6874,7.6818,7.6762,7.6799,7.6874,7.6893,7.7023,7.7153,7.7431,7.7836,7.8081,7.8227,7.8463,7.8753,7.8626,7.8463,7.859,7.8644,7.8698,7.8662,7.8698,7.8717,7.8771,7.8753,7.8698,7.8644,7.6268,7.6249,7.6442,7.6519,7.6519,7.6519,7.6519,7.6519,7.6519,7.6519,7.6519,7.6519,7.6519,7.6519,7.6519,7.6519,7.6519,7.6519,7.6519,7.6519,7.6519,7.6519,7.6519,7.6519,7.6355,7.6355,7.622,7.6075,7.589,7.589,7.5977,7.5977,7.5919,7.5813,7.5813,7.5832,7.5832,7.5803,7.5774,7.5349,7.4808,7.4692,7.4644,7.5022,7.5254,7.5523,7.5668,7.5948,7.5977,7.6035,7.6017,7.6133,7.6268,7.6442,7.65,7.6519,7.6519,7.6519,7.6519,7.6519,7.6519,7.6519,7.6519,7.6519,7.649,7.6519,7.6519,7.6519,7.6519,7.6519,7.6519,7.6519,7.6519,7.6519,7.6556,7.6556,7.6556,7.6631,7.6706,7.6799,7.6922,7.7042,7.7227,7.7291,7.7328,7.7365,7.7383,7.7475,7.7494,7.7402,7.7457,7.7402,7.7346,7.7365,7.7339,7.7394,7.7523,7.7744,7.8081,7.8354,7.859,7.8698,7.8789,7.8789,7.8753,7.8789,7.8789,7.8789,7.8771,7.8789,7.8789,7.8789,7.8789,7.8753,7.8771,7.6519,7.6519,7.6519,7.6519,7.6519,7.6519,7.6519,7.6519,7.6519,7.6519,7.6519,7.6519,7.6519,7.6519,7.6519,7.6519,7.6519,7.6519,7.6519,7.6519,7.6519,7.6519,7.6519,7.6519,7.649,7.65,7.65,7.649,7.6519,7.649,7.6461,7.6519,7.6519,7.6519,7.6519,7.6519,7.6519,7.649,7.6519,7.6035,7.5301,7.5407,7.5523,7.5882,7.6017,7.6239,7.6297,7.6519,7.6519,7.649,7.6413,7.6413,7.6442,7.6471,7.6519,7.6519,7.6519,7.6519,7.6538,7.6556,7.6575,7.6575,7.6538,7.6538,7.6519,7.6519,7.6519,7.6519,7.6519,7.6519,7.6519,7.6519,7.6519,7.6519,7.6743,7.6893,7.7023,7.7142,7.718,7.7265,7.732,7.7339,7.7439,7.7457,7.7512,7.7568,7.766,7.7862,7.788,7.7935,7.8008,7.799,7.788,7.7678,7.7512,7.766,7.7917,7.8136,7.8354,7.8518,7.8698,7.8753,7.8789,7.8789,7.8789,7.8789,7.8789,7.8789,7.8789,7.8789,7.8789,7.8789,7.8789,7.8789,7.8789,7.6519,7.6519,7.6519,7.6519,7.6519,7.6519,7.6519,7.6519,7.6519,7.6519,7.6519,7.6519,7.6519,7.6519,7.6519,7.6519,7.6519,7.6519,7.6519,7.6519,7.6519,7.6519,7.6519,7.6519,7.6519,7.6519,7.6519,7.6519,7.6519,7.6519,7.6519,7.6519,7.6519,7.6519,7.6519,7.6519,7.6519,7.6519,7.6519,7.6519,7.6461,7.6519,7.6413,7.6442,7.6519,7.6519,7.6519,7.6519,7.6519,7.6556,7.6594,7.665,7.6725,7.6762,7.677,7.677,7.6837,7.6818,7.6762,7.6818,7.6762,7.6725,7.665,7.665,7.6669,7.6669,7.6687,7.6669,7.6669,7.6612,7.6612,7.6687,7.6687,7.6725,7.7023,7.7246,7.7431,7.7568,7.7604,7.7641,7.7678,7.7678,7.777,7.777,7.7788,7.7825,7.7935,7.8106,7.83,7.8354,7.8427,7.8372,7.8245,7.8026,7.7862,7.7971,7.8282,7.8391,7.8554,7.8698,7.8789,7.8789,7.8789,7.8789,7.8789,7.8789,7.8789,7.8789,7.8789,7.8789,7.8789,7.8789,7.8789,7.8789,7.8789,7.6519,7.6519,7.6519,7.6548,7.6548,7.6548,7.6519,7.6519,7.6548,7.6519,7.6616,7.6548,7.6519,7.6548,7.6519,7.6519,7.6519,7.6519,7.6519,7.6519,7.6519,7.6519,7.6616,7.6819,7.6558,7.6616,7.6703,7.6577,7.6878,7.6732,7.6577,7.6616,7.6577,7.6529,7.6529,7.6529,7.6519,7.65,7.6587,7.6616,7.6587,7.6577,7.6519,7.6519,7.6519,7.6519,7.6519,7.6519,7.6519,7.6594,7.6791,7.6903,7.6986,7.7135,7.7217,7.7198,7.7217,7.7235,7.7217,7.7217,7.718,7.7217,7.7198,7.7235,7.7254,7.7254,7.7254,7.7235,7.7209,7.7042,7.7042,7.7246,7.7272,7.7328,7.7512,7.7568,7.7678,7.777,7.7807,7.7953,7.8081,7.8227,7.8427,7.8427,7.8427,7.8445,7.8427,7.859,7.8572,7.8698,7.8789,7.868,7.8554,7.8644,7.8572,7.8445,7.8608,7.868,7.8717,7.8771,7.8789,7.8789,7.8789,7.8789,7.8789,7.8789,7.8789,7.8789,7.8789,7.8789,7.8789,7.8789,7.8789,7.8789,7.8789]}]]